<?xml version="1.0" encoding="UTF-8" standalone="no" ?>
<gpx xmlns="http://www.topografix.com/GPX/1/1" xmlns:xsi="http://www.w3.org/2001/XMLSchema-instance" xsi:schemaLocation="http://www.topografix.com/GPX/1/1 http://www.topografix.com/GPX/1/1/gpx.xsd" version="1.1" creator="VisuGPX - https://www.visugpx.com">
  <metadata>
    <name>Saint Cado</name>
    <desc><![CDATA[Une jolie boucle à partir du magnifique village de Saint-Cado ]]></desc>
  </metadata>
  <trk>
    <name><![CDATA[2016-07-25 14:59:07]]></name>
    <trkseg>
      <trkpt lat="47.68319" lon="-3.18337">
        <ele>1.58</ele>
        <time>2016-07-25T08:18:08Z</time>
      </trkpt>
      <trkpt lat="47.68319" lon="-3.18334">
        <ele>1.1</ele>
        <time>2016-07-25T08:18:10Z</time>
      </trkpt>
      <trkpt lat="47.68316" lon="-3.18325">
        <ele>1.1</ele>
        <time>2016-07-25T08:18:18Z</time>
      </trkpt>
      <trkpt lat="47.68317" lon="-3.18323">
        <ele>1.1</ele>
        <time>2016-07-25T08:18:20Z</time>
      </trkpt>
      <trkpt lat="47.68327" lon="-3.18319">
        <ele>2.54</ele>
        <time>2016-07-25T08:18:37Z</time>
      </trkpt>
      <trkpt lat="47.68339" lon="-3.18322">
        <ele>4.94</ele>
        <time>2016-07-25T08:18:51Z</time>
      </trkpt>
      <trkpt lat="47.68351" lon="-3.18334">
        <ele>6.39</ele>
        <time>2016-07-25T08:19:05Z</time>
      </trkpt>
      <trkpt lat="47.68357" lon="-3.18337">
        <ele>5.42</ele>
        <time>2016-07-25T08:19:18Z</time>
      </trkpt>
      <trkpt lat="47.68375" lon="-3.18342">
        <ele>3.98</ele>
        <time>2016-07-25T08:19:34Z</time>
      </trkpt>
      <trkpt lat="47.68381" lon="-3.18342">
        <ele>3.5</ele>
        <time>2016-07-25T08:19:40Z</time>
      </trkpt>
      <trkpt lat="47.68389" lon="-3.18341">
        <ele>2.54</ele>
        <time>2016-07-25T08:19:48Z</time>
      </trkpt>
      <trkpt lat="47.68408" lon="-3.18338">
        <ele>2.54</ele>
        <time>2016-07-25T08:20:04Z</time>
      </trkpt>
      <trkpt lat="47.6842" lon="-3.18338">
        <ele>2.54</ele>
        <time>2016-07-25T08:20:18Z</time>
      </trkpt>
      <trkpt lat="47.68419" lon="-3.18339">
        <ele>2.54</ele>
        <time>2016-07-25T08:20:34Z</time>
      </trkpt>
      <trkpt lat="47.68419" lon="-3.18339">
        <ele>2.54</ele>
        <time>2016-07-25T08:20:35Z</time>
      </trkpt>
      <trkpt lat="47.68421" lon="-3.1834">
        <ele>2.54</ele>
        <time>2016-07-25T08:20:37Z</time>
      </trkpt>
      <trkpt lat="47.6843" lon="-3.18354">
        <ele>2.06</ele>
        <time>2016-07-25T08:20:49Z</time>
      </trkpt>
      <trkpt lat="47.6844" lon="-3.1837">
        <ele>1.58</ele>
        <time>2016-07-25T08:21:04Z</time>
      </trkpt>
      <trkpt lat="47.68449" lon="-3.18383">
        <ele>1.58</ele>
        <time>2016-07-25T08:21:20Z</time>
      </trkpt>
      <trkpt lat="47.68453" lon="-3.18389">
        <ele>2.06</ele>
        <time>2016-07-25T08:21:34Z</time>
      </trkpt>
      <trkpt lat="47.68463" lon="-3.184">
        <ele>1.1</ele>
        <time>2016-07-25T08:21:53Z</time>
      </trkpt>
      <trkpt lat="47.68474" lon="-3.1842">
        <ele>1.1</ele>
        <time>2016-07-25T08:22:08Z</time>
      </trkpt>
      <trkpt lat="47.68476" lon="-3.18428">
        <ele>1.1</ele>
        <time>2016-07-25T08:22:13Z</time>
      </trkpt>
      <trkpt lat="47.6848" lon="-3.1845">
        <ele>0.62</ele>
        <time>2016-07-25T08:22:28Z</time>
      </trkpt>
      <trkpt lat="47.68481" lon="-3.18454">
        <ele>0.62</ele>
        <time>2016-07-25T08:22:31Z</time>
      </trkpt>
      <trkpt lat="47.68483" lon="-3.18457">
        <ele>0.62</ele>
        <time>2016-07-25T08:22:34Z</time>
      </trkpt>
      <trkpt lat="47.6849" lon="-3.18472">
        <ele>1.1</ele>
        <time>2016-07-25T08:22:45Z</time>
      </trkpt>
      <trkpt lat="47.68493" lon="-3.1848">
        <ele>0.62</ele>
        <time>2016-07-25T08:22:58Z</time>
      </trkpt>
      <trkpt lat="47.68496" lon="-3.1848">
        <ele>1.58</ele>
        <time>2016-07-25T08:23:11Z</time>
      </trkpt>
      <trkpt lat="47.68501" lon="-3.18485">
        <ele>1.1</ele>
        <time>2016-07-25T08:23:23Z</time>
      </trkpt>
      <trkpt lat="47.68502" lon="-3.18477">
        <ele>1.1</ele>
        <time>2016-07-25T08:23:34Z</time>
      </trkpt>
      <trkpt lat="47.68505" lon="-3.18483">
        <ele>2.06</ele>
        <time>2016-07-25T08:23:43Z</time>
      </trkpt>
      <trkpt lat="47.68508" lon="-3.18486">
        <ele>1.1</ele>
        <time>2016-07-25T08:23:54Z</time>
      </trkpt>
      <trkpt lat="47.6851" lon="-3.18492">
        <ele>0.62</ele>
        <time>2016-07-25T08:24:15Z</time>
      </trkpt>
      <trkpt lat="47.68511" lon="-3.18495">
        <ele>0.62</ele>
        <time>2016-07-25T08:24:17Z</time>
      </trkpt>
      <trkpt lat="47.68514" lon="-3.18501">
        <ele>0.62</ele>
        <time>2016-07-25T08:24:22Z</time>
      </trkpt>
      <trkpt lat="47.68516" lon="-3.18506">
        <ele>0.62</ele>
        <time>2016-07-25T08:24:25Z</time>
      </trkpt>
      <trkpt lat="47.6852" lon="-3.18529">
        <ele>0.14</ele>
        <time>2016-07-25T08:24:39Z</time>
      </trkpt>
      <trkpt lat="47.68523" lon="-3.18551">
        <ele>1.1</ele>
        <time>2016-07-25T08:24:52Z</time>
      </trkpt>
      <trkpt lat="47.68524" lon="-3.18556">
        <ele>1.58</ele>
        <time>2016-07-25T08:25:05Z</time>
      </trkpt>
      <trkpt lat="47.68521" lon="-3.18554">
        <ele>1.58</ele>
        <time>2016-07-25T08:25:10Z</time>
      </trkpt>
      <trkpt lat="47.68518" lon="-3.18558">
        <ele>0.14</ele>
        <time>2016-07-25T08:25:20Z</time>
      </trkpt>
      <trkpt lat="47.68518" lon="-3.18556">
        <ele>-1.79</ele>
        <time>2016-07-25T08:25:38Z</time>
      </trkpt>
      <trkpt lat="47.68519" lon="-3.18555">
        <ele>-3.23</ele>
        <time>2016-07-25T08:26:11Z</time>
      </trkpt>
      <trkpt lat="47.68519" lon="-3.18555">
        <ele>-3.23</ele>
        <time>2016-07-25T08:26:46Z</time>
      </trkpt>
      <trkpt lat="47.68518" lon="-3.18555">
        <ele>-1.3</ele>
        <time>2016-07-25T08:27:00Z</time>
      </trkpt>
      <trkpt lat="47.68533" lon="-3.18556">
        <ele>-0.34</ele>
        <time>2016-07-25T08:27:13Z</time>
      </trkpt>
      <trkpt lat="47.68549" lon="-3.18558">
        <ele>0.14</ele>
        <time>2016-07-25T08:27:27Z</time>
      </trkpt>
      <trkpt lat="47.68555" lon="-3.18557">
        <ele>0.14</ele>
        <time>2016-07-25T08:27:38Z</time>
      </trkpt>
      <trkpt lat="47.68555" lon="-3.18559">
        <ele>-0.82</ele>
        <time>2016-07-25T08:27:57Z</time>
      </trkpt>
      <trkpt lat="47.68557" lon="-3.1856">
        <ele>-0.82</ele>
        <time>2016-07-25T08:27:59Z</time>
      </trkpt>
      <trkpt lat="47.68571" lon="-3.18558">
        <ele>0.62</ele>
        <time>2016-07-25T08:28:14Z</time>
      </trkpt>
      <trkpt lat="47.68572" lon="-3.18558">
        <ele>0.62</ele>
        <time>2016-07-25T08:28:15Z</time>
      </trkpt>
      <trkpt lat="47.68589" lon="-3.18554">
        <ele>0.14</ele>
        <time>2016-07-25T08:28:31Z</time>
      </trkpt>
      <trkpt lat="47.68592" lon="-3.18554">
        <ele>0.14</ele>
        <time>2016-07-25T08:28:34Z</time>
      </trkpt>
      <trkpt lat="47.68598" lon="-3.18551">
        <ele>0.62</ele>
        <time>2016-07-25T08:28:40Z</time>
      </trkpt>
      <trkpt lat="47.68603" lon="-3.18549">
        <ele>2.06</ele>
        <time>2016-07-25T08:28:52Z</time>
      </trkpt>
      <trkpt lat="47.68607" lon="-3.18548">
        <ele>3.02</ele>
        <time>2016-07-25T08:29:03Z</time>
      </trkpt>
      <trkpt lat="47.68608" lon="-3.18548">
        <ele>1.58</ele>
        <time>2016-07-25T08:29:12Z</time>
      </trkpt>
      <trkpt lat="47.68612" lon="-3.18549">
        <ele>1.58</ele>
        <time>2016-07-25T08:29:16Z</time>
      </trkpt>
      <trkpt lat="47.68631" lon="-3.18544">
        <ele>1.1</ele>
        <time>2016-07-25T08:29:32Z</time>
      </trkpt>
      <trkpt lat="47.6864" lon="-3.18544">
        <ele>2.06</ele>
        <time>2016-07-25T08:29:44Z</time>
      </trkpt>
      <trkpt lat="47.68641" lon="-3.18543">
        <ele>1.58</ele>
        <time>2016-07-25T08:29:46Z</time>
      </trkpt>
      <trkpt lat="47.68644" lon="-3.18535">
        <ele>2.54</ele>
        <time>2016-07-25T08:29:56Z</time>
      </trkpt>
      <trkpt lat="47.68646" lon="-3.18522">
        <ele>3.02</ele>
        <time>2016-07-25T08:30:04Z</time>
      </trkpt>
      <trkpt lat="47.68645" lon="-3.18514">
        <ele>3.5</ele>
        <time>2016-07-25T08:30:08Z</time>
      </trkpt>
      <trkpt lat="47.68644" lon="-3.18507">
        <ele>3.98</ele>
        <time>2016-07-25T08:30:12Z</time>
      </trkpt>
      <trkpt lat="47.6864" lon="-3.18499">
        <ele>4.94</ele>
        <time>2016-07-25T08:30:17Z</time>
      </trkpt>
      <trkpt lat="47.68639" lon="-3.18494">
        <ele>4.46</ele>
        <time>2016-07-25T08:30:20Z</time>
      </trkpt>
      <trkpt lat="47.68641" lon="-3.1848">
        <ele>5.42</ele>
        <time>2016-07-25T08:30:32Z</time>
      </trkpt>
      <trkpt lat="47.6864" lon="-3.1848">
        <ele>5.91</ele>
        <time>2016-07-25T08:30:48Z</time>
      </trkpt>
      <trkpt lat="47.68641" lon="-3.18478">
        <ele>5.42</ele>
        <time>2016-07-25T08:30:50Z</time>
      </trkpt>
      <trkpt lat="47.68646" lon="-3.18471">
        <ele>6.39</ele>
        <time>2016-07-25T08:31:05Z</time>
      </trkpt>
      <trkpt lat="47.68659" lon="-3.18463">
        <ele>7.83</ele>
        <time>2016-07-25T08:31:18Z</time>
      </trkpt>
      <trkpt lat="47.68664" lon="-3.18468">
        <ele>8.31</ele>
        <time>2016-07-25T08:31:30Z</time>
      </trkpt>
      <trkpt lat="47.68666" lon="-3.18469">
        <ele>6.39</ele>
        <time>2016-07-25T08:31:42Z</time>
      </trkpt>
      <trkpt lat="47.68671" lon="-3.18457">
        <ele>4.94</ele>
        <time>2016-07-25T08:31:50Z</time>
      </trkpt>
      <trkpt lat="47.6867" lon="-3.18444">
        <ele>5.91</ele>
        <time>2016-07-25T08:31:57Z</time>
      </trkpt>
      <trkpt lat="47.68661" lon="-3.18435">
        <ele>6.39</ele>
        <time>2016-07-25T08:32:10Z</time>
      </trkpt>
      <trkpt lat="47.68656" lon="-3.18437">
        <ele>5.42</ele>
        <time>2016-07-25T08:32:33Z</time>
      </trkpt>
      <trkpt lat="47.68646" lon="-3.18441">
        <ele>5.42</ele>
        <time>2016-07-25T08:32:52Z</time>
      </trkpt>
      <trkpt lat="47.68651" lon="-3.18435">
        <ele>8.31</ele>
        <time>2016-07-25T08:33:10Z</time>
      </trkpt>
      <trkpt lat="47.68653" lon="-3.18439">
        <ele>8.31</ele>
        <time>2016-07-25T08:33:26Z</time>
      </trkpt>
      <trkpt lat="47.68657" lon="-3.18438">
        <ele>8.79</ele>
        <time>2016-07-25T08:33:51Z</time>
      </trkpt>
      <trkpt lat="47.68656" lon="-3.18443">
        <ele>7.83</ele>
        <time>2016-07-25T08:34:12Z</time>
      </trkpt>
      <trkpt lat="47.68655" lon="-3.1844">
        <ele>4.94</ele>
        <time>2016-07-25T08:34:41Z</time>
      </trkpt>
      <trkpt lat="47.6866" lon="-3.18435">
        <ele>4.46</ele>
        <time>2016-07-25T08:35:00Z</time>
      </trkpt>
      <trkpt lat="47.68665" lon="-3.18435">
        <ele>3.02</ele>
        <time>2016-07-25T08:35:09Z</time>
      </trkpt>
      <trkpt lat="47.6867" lon="-3.18426">
        <ele>3.02</ele>
        <time>2016-07-25T08:35:24Z</time>
      </trkpt>
      <trkpt lat="47.68671" lon="-3.18422">
        <ele>2.54</ele>
        <time>2016-07-25T08:35:30Z</time>
      </trkpt>
      <trkpt lat="47.68669" lon="-3.18416">
        <ele>1.1</ele>
        <time>2016-07-25T08:35:38Z</time>
      </trkpt>
      <trkpt lat="47.68663" lon="-3.18407">
        <ele>4.46</ele>
        <time>2016-07-25T08:35:51Z</time>
      </trkpt>
      <trkpt lat="47.6866" lon="-3.18408">
        <ele>4.46</ele>
        <time>2016-07-25T08:35:55Z</time>
      </trkpt>
      <trkpt lat="47.68658" lon="-3.18408">
        <ele>3.98</ele>
        <time>2016-07-25T08:35:57Z</time>
      </trkpt>
      <trkpt lat="47.68655" lon="-3.18398">
        <ele>0.14</ele>
        <time>2016-07-25T08:36:11Z</time>
      </trkpt>
      <trkpt lat="47.68655" lon="-3.18398">
        <ele>1.1</ele>
        <time>2016-07-25T08:36:27Z</time>
      </trkpt>
      <trkpt lat="47.68656" lon="-3.18396">
        <ele>2.06</ele>
        <time>2016-07-25T08:36:50Z</time>
      </trkpt>
      <trkpt lat="47.68655" lon="-3.18395">
        <ele>1.1</ele>
        <time>2016-07-25T08:37:02Z</time>
      </trkpt>
      <trkpt lat="47.68655" lon="-3.18395">
        <ele>1.58</ele>
        <time>2016-07-25T08:37:11Z</time>
      </trkpt>
      <trkpt lat="47.68654" lon="-3.18394">
        <ele>1.1</ele>
        <time>2016-07-25T08:37:25Z</time>
      </trkpt>
      <trkpt lat="47.68654" lon="-3.18397">
        <ele>2.06</ele>
        <time>2016-07-25T08:37:58Z</time>
      </trkpt>
      <trkpt lat="47.68659" lon="-3.18404">
        <ele>1.1</ele>
        <time>2016-07-25T08:38:10Z</time>
      </trkpt>
      <trkpt lat="47.68668" lon="-3.18405">
        <ele>3.5</ele>
        <time>2016-07-25T08:38:22Z</time>
      </trkpt>
      <trkpt lat="47.68669" lon="-3.18399">
        <ele>2.06</ele>
        <time>2016-07-25T08:38:35Z</time>
      </trkpt>
      <trkpt lat="47.68664" lon="-3.18402">
        <ele>-1.3</ele>
        <time>2016-07-25T08:38:58Z</time>
      </trkpt>
      <trkpt lat="47.68664" lon="-3.18401">
        <ele>-0.34</ele>
        <time>2016-07-25T08:39:07Z</time>
      </trkpt>
      <trkpt lat="47.68676" lon="-3.18389">
        <ele>-3.23</ele>
        <time>2016-07-25T08:39:20Z</time>
      </trkpt>
      <trkpt lat="47.68684" lon="-3.18375">
        <ele>-3.71</ele>
        <time>2016-07-25T08:39:29Z</time>
      </trkpt>
      <trkpt lat="47.68689" lon="-3.18365">
        <ele>-3.23</ele>
        <time>2016-07-25T08:39:42Z</time>
      </trkpt>
      <trkpt lat="47.68701" lon="-3.18375">
        <ele>-5.15</ele>
        <time>2016-07-25T08:39:57Z</time>
      </trkpt>
      <trkpt lat="47.68718" lon="-3.1839">
        <ele>-6.59</ele>
        <time>2016-07-25T08:40:11Z</time>
      </trkpt>
      <trkpt lat="47.68738" lon="-3.18393">
        <ele>-6.11</ele>
        <time>2016-07-25T08:40:25Z</time>
      </trkpt>
      <trkpt lat="47.68752" lon="-3.18393">
        <ele>-3.71</ele>
        <time>2016-07-25T08:40:35Z</time>
      </trkpt>
      <trkpt lat="47.68763" lon="-3.18414">
        <ele>-4.19</ele>
        <time>2016-07-25T08:40:50Z</time>
      </trkpt>
      <trkpt lat="47.6877" lon="-3.18429">
        <ele>-4.19</ele>
        <time>2016-07-25T08:41:00Z</time>
      </trkpt>
      <trkpt lat="47.68771" lon="-3.18433">
        <ele>-4.67</ele>
        <time>2016-07-25T08:41:03Z</time>
      </trkpt>
      <trkpt lat="47.68787" lon="-3.18449">
        <ele>-3.71</ele>
        <time>2016-07-25T08:41:19Z</time>
      </trkpt>
      <trkpt lat="47.68792" lon="-3.1845">
        <ele>-2.27</ele>
        <time>2016-07-25T08:41:33Z</time>
      </trkpt>
      <trkpt lat="47.68793" lon="-3.18451">
        <ele>-1.79</ele>
        <time>2016-07-25T08:41:56Z</time>
      </trkpt>
      <trkpt lat="47.68804" lon="-3.1848">
        <ele>-1.79</ele>
        <time>2016-07-25T08:42:13Z</time>
      </trkpt>
      <trkpt lat="47.68805" lon="-3.18492">
        <ele>-1.3</ele>
        <time>2016-07-25T08:42:19Z</time>
      </trkpt>
      <trkpt lat="47.68803" lon="-3.18526">
        <ele>-0.34</ele>
        <time>2016-07-25T08:42:36Z</time>
      </trkpt>
      <trkpt lat="47.68802" lon="-3.18557">
        <ele>-0.82</ele>
        <time>2016-07-25T08:42:53Z</time>
      </trkpt>
      <trkpt lat="47.68801" lon="-3.18566">
        <ele>-1.79</ele>
        <time>2016-07-25T08:42:58Z</time>
      </trkpt>
      <trkpt lat="47.688" lon="-3.18572">
        <ele>-1.79</ele>
        <time>2016-07-25T08:43:02Z</time>
      </trkpt>
      <trkpt lat="47.68797" lon="-3.1859">
        <ele>-0.34</ele>
        <time>2016-07-25T08:43:16Z</time>
      </trkpt>
      <trkpt lat="47.68795" lon="-3.18603">
        <ele>-0.34</ele>
        <time>2016-07-25T08:43:24Z</time>
      </trkpt>
      <trkpt lat="47.68791" lon="-3.18606">
        <ele>-0.34</ele>
        <time>2016-07-25T08:43:28Z</time>
      </trkpt>
      <trkpt lat="47.68786" lon="-3.18606">
        <ele>-0.34</ele>
        <time>2016-07-25T08:43:32Z</time>
      </trkpt>
      <trkpt lat="47.68769" lon="-3.18609">
        <ele>-0.82</ele>
        <time>2016-07-25T08:43:47Z</time>
      </trkpt>
      <trkpt lat="47.68767" lon="-3.18611">
        <ele>-0.82</ele>
        <time>2016-07-25T08:43:49Z</time>
      </trkpt>
      <trkpt lat="47.68761" lon="-3.18613">
        <ele>-1.3</ele>
        <time>2016-07-25T08:43:54Z</time>
      </trkpt>
      <trkpt lat="47.68756" lon="-3.18622">
        <ele>-2.27</ele>
        <time>2016-07-25T08:44:09Z</time>
      </trkpt>
      <trkpt lat="47.68758" lon="-3.18619">
        <ele>-1.79</ele>
        <time>2016-07-25T08:44:17Z</time>
      </trkpt>
      <trkpt lat="47.68756" lon="-3.18624">
        <ele>-1.79</ele>
        <time>2016-07-25T08:44:28Z</time>
      </trkpt>
      <trkpt lat="47.68758" lon="-3.1862">
        <ele>-2.75</ele>
        <time>2016-07-25T08:44:34Z</time>
      </trkpt>
      <trkpt lat="47.68757" lon="-3.18611">
        <ele>-2.75</ele>
        <time>2016-07-25T08:44:44Z</time>
      </trkpt>
      <trkpt lat="47.68756" lon="-3.18611">
        <ele>-2.75</ele>
        <time>2016-07-25T08:44:45Z</time>
      </trkpt>
      <trkpt lat="47.68742" lon="-3.1861">
        <ele>-3.71</ele>
        <time>2016-07-25T08:44:58Z</time>
      </trkpt>
      <trkpt lat="47.68728" lon="-3.18606">
        <ele>-6.59</ele>
        <time>2016-07-25T08:45:13Z</time>
      </trkpt>
      <trkpt lat="47.68701" lon="-3.186">
        <ele>-4.19</ele>
        <time>2016-07-25T08:45:32Z</time>
      </trkpt>
      <trkpt lat="47.68685" lon="-3.18593">
        <ele>-1.79</ele>
        <time>2016-07-25T08:45:46Z</time>
      </trkpt>
      <trkpt lat="47.68678" lon="-3.18586">
        <ele>-0.34</ele>
        <time>2016-07-25T08:46:00Z</time>
      </trkpt>
      <trkpt lat="47.68676" lon="-3.18579">
        <ele>1.1</ele>
        <time>2016-07-25T08:46:11Z</time>
      </trkpt>
      <trkpt lat="47.68674" lon="-3.18583">
        <ele>1.58</ele>
        <time>2016-07-25T08:46:16Z</time>
      </trkpt>
      <trkpt lat="47.68662" lon="-3.18577">
        <ele>1.1</ele>
        <time>2016-07-25T08:46:27Z</time>
      </trkpt>
      <trkpt lat="47.6866" lon="-3.1857">
        <ele>0.14</ele>
        <time>2016-07-25T08:46:32Z</time>
      </trkpt>
      <trkpt lat="47.68647" lon="-3.18554">
        <ele>-1.3</ele>
        <time>2016-07-25T08:46:47Z</time>
      </trkpt>
      <trkpt lat="47.68632" lon="-3.18543">
        <ele>-1.79</ele>
        <time>2016-07-25T08:47:01Z</time>
      </trkpt>
      <trkpt lat="47.68624" lon="-3.18544">
        <ele>-2.75</ele>
        <time>2016-07-25T08:47:08Z</time>
      </trkpt>
      <trkpt lat="47.68607" lon="-3.18549">
        <ele>-1.79</ele>
        <time>2016-07-25T08:47:23Z</time>
      </trkpt>
      <trkpt lat="47.68603" lon="-3.18549">
        <ele>-1.79</ele>
        <time>2016-07-25T08:47:26Z</time>
      </trkpt>
      <trkpt lat="47.68586" lon="-3.18553">
        <ele>-1.79</ele>
        <time>2016-07-25T08:47:42Z</time>
      </trkpt>
      <trkpt lat="47.6857" lon="-3.18556">
        <ele>-0.34</ele>
        <time>2016-07-25T08:47:56Z</time>
      </trkpt>
      <trkpt lat="47.68558" lon="-3.18559">
        <ele>-1.3</ele>
        <time>2016-07-25T08:48:11Z</time>
      </trkpt>
      <trkpt lat="47.68554" lon="-3.18559">
        <ele>-1.3</ele>
        <time>2016-07-25T08:48:15Z</time>
      </trkpt>
      <trkpt lat="47.68535" lon="-3.18557">
        <ele>-0.82</ele>
        <time>2016-07-25T08:48:32Z</time>
      </trkpt>
      <trkpt lat="47.6853" lon="-3.18555">
        <ele>-0.82</ele>
        <time>2016-07-25T08:48:37Z</time>
      </trkpt>
      <trkpt lat="47.68516" lon="-3.18556">
        <ele>-1.3</ele>
        <time>2016-07-25T08:48:52Z</time>
      </trkpt>
      <trkpt lat="47.68515" lon="-3.18558">
        <ele>-1.3</ele>
        <time>2016-07-25T08:48:58Z</time>
      </trkpt>
      <trkpt lat="47.68513" lon="-3.18562">
        <ele>-2.27</ele>
        <time>2016-07-25T08:49:03Z</time>
      </trkpt>
      <trkpt lat="47.68512" lon="-3.18572">
        <ele>-3.23</ele>
        <time>2016-07-25T08:49:16Z</time>
      </trkpt>
      <trkpt lat="47.6851" lon="-3.18577">
        <ele>-2.75</ele>
        <time>2016-07-25T08:49:20Z</time>
      </trkpt>
      <trkpt lat="47.68508" lon="-3.18583">
        <ele>-1.3</ele>
        <time>2016-07-25T08:49:34Z</time>
      </trkpt>
      <trkpt lat="47.68507" lon="-3.18583">
        <ele>-0.34</ele>
        <time>2016-07-25T08:49:52Z</time>
      </trkpt>
      <trkpt lat="47.68504" lon="-3.18588">
        <ele>-0.82</ele>
        <time>2016-07-25T08:49:56Z</time>
      </trkpt>
      <trkpt lat="47.68495" lon="-3.18597">
        <ele>-1.79</ele>
        <time>2016-07-25T08:50:03Z</time>
      </trkpt>
      <trkpt lat="47.68492" lon="-3.18604">
        <ele>-0.82</ele>
        <time>2016-07-25T08:50:17Z</time>
      </trkpt>
      <trkpt lat="47.68488" lon="-3.18612">
        <ele>-0.82</ele>
        <time>2016-07-25T08:50:33Z</time>
      </trkpt>
      <trkpt lat="47.6848" lon="-3.18623">
        <ele>1.1</ele>
        <time>2016-07-25T08:50:42Z</time>
      </trkpt>
      <trkpt lat="47.68467" lon="-3.18636">
        <ele>1.1</ele>
        <time>2016-07-25T08:50:56Z</time>
      </trkpt>
      <trkpt lat="47.68462" lon="-3.18641">
        <ele>0.62</ele>
        <time>2016-07-25T08:51:00Z</time>
      </trkpt>
      <trkpt lat="47.68459" lon="-3.18644">
        <ele>0.14</ele>
        <time>2016-07-25T08:51:03Z</time>
      </trkpt>
      <trkpt lat="47.68443" lon="-3.18662">
        <ele>0.62</ele>
        <time>2016-07-25T08:51:20Z</time>
      </trkpt>
      <trkpt lat="47.68423" lon="-3.18679">
        <ele>3.02</ele>
        <time>2016-07-25T08:51:39Z</time>
      </trkpt>
      <trkpt lat="47.68407" lon="-3.18694">
        <ele>2.54</ele>
        <time>2016-07-25T08:51:54Z</time>
      </trkpt>
      <trkpt lat="47.68389" lon="-3.18712">
        <ele>3.5</ele>
        <time>2016-07-25T08:52:12Z</time>
      </trkpt>
      <trkpt lat="47.68372" lon="-3.1872">
        <ele>3.5</ele>
        <time>2016-07-25T08:52:28Z</time>
      </trkpt>
      <trkpt lat="47.6835" lon="-3.18738">
        <ele>1.1</ele>
        <time>2016-07-25T08:52:48Z</time>
      </trkpt>
      <trkpt lat="47.68338" lon="-3.1875">
        <ele>-0.34</ele>
        <time>2016-07-25T08:53:02Z</time>
      </trkpt>
      <trkpt lat="47.68331" lon="-3.18764">
        <ele>-0.82</ele>
        <time>2016-07-25T08:53:14Z</time>
      </trkpt>
      <trkpt lat="47.68319" lon="-3.18792">
        <ele>0.62</ele>
        <time>2016-07-25T08:53:33Z</time>
      </trkpt>
      <trkpt lat="47.68312" lon="-3.18817">
        <ele>0.62</ele>
        <time>2016-07-25T08:53:48Z</time>
      </trkpt>
      <trkpt lat="47.68311" lon="-3.18845">
        <ele>2.06</ele>
        <time>2016-07-25T08:54:03Z</time>
      </trkpt>
      <trkpt lat="47.6831" lon="-3.18854">
        <ele>1.1</ele>
        <time>2016-07-25T08:54:13Z</time>
      </trkpt>
      <trkpt lat="47.68306" lon="-3.18876">
        <ele>-0.34</ele>
        <time>2016-07-25T08:54:25Z</time>
      </trkpt>
      <trkpt lat="47.68304" lon="-3.18886">
        <ele>-1.79</ele>
        <time>2016-07-25T08:54:32Z</time>
      </trkpt>
      <trkpt lat="47.68294" lon="-3.18907">
        <ele>-5.15</ele>
        <time>2016-07-25T08:54:47Z</time>
      </trkpt>
      <trkpt lat="47.68281" lon="-3.18921">
        <ele>-6.59</ele>
        <time>2016-07-25T08:55:01Z</time>
      </trkpt>
      <trkpt lat="47.68263" lon="-3.18936">
        <ele>-5.15</ele>
        <time>2016-07-25T08:55:19Z</time>
      </trkpt>
      <trkpt lat="47.68248" lon="-3.18947">
        <ele>-5.15</ele>
        <time>2016-07-25T08:55:34Z</time>
      </trkpt>
      <trkpt lat="47.68246" lon="-3.18951">
        <ele>-2.75</ele>
        <time>2016-07-25T08:55:46Z</time>
      </trkpt>
      <trkpt lat="47.68246" lon="-3.18951">
        <ele>-2.75</ele>
        <time>2016-07-25T08:55:47Z</time>
      </trkpt>
      <trkpt lat="47.68228" lon="-3.18964">
        <ele>-1.79</ele>
        <time>2016-07-25T08:56:03Z</time>
      </trkpt>
      <trkpt lat="47.68226" lon="-3.18965">
        <ele>-1.79</ele>
        <time>2016-07-25T08:56:05Z</time>
      </trkpt>
      <trkpt lat="47.68211" lon="-3.18978">
        <ele>-1.79</ele>
        <time>2016-07-25T08:56:18Z</time>
      </trkpt>
      <trkpt lat="47.68207" lon="-3.18981">
        <ele>-1.79</ele>
        <time>2016-07-25T08:56:22Z</time>
      </trkpt>
      <trkpt lat="47.68205" lon="-3.18984">
        <ele>-1.79</ele>
        <time>2016-07-25T08:56:24Z</time>
      </trkpt>
      <trkpt lat="47.68199" lon="-3.18988">
        <ele>-1.3</ele>
        <time>2016-07-25T08:56:29Z</time>
      </trkpt>
      <trkpt lat="47.68195" lon="-3.18993">
        <ele>-1.3</ele>
        <time>2016-07-25T08:56:34Z</time>
      </trkpt>
      <trkpt lat="47.68193" lon="-3.18996">
        <ele>-0.82</ele>
        <time>2016-07-25T08:56:37Z</time>
      </trkpt>
      <trkpt lat="47.68189" lon="-3.18998">
        <ele>-0.34</ele>
        <time>2016-07-25T08:56:41Z</time>
      </trkpt>
      <trkpt lat="47.68175" lon="-3.18996">
        <ele>1.58</ele>
        <time>2016-07-25T08:56:54Z</time>
      </trkpt>
      <trkpt lat="47.6817" lon="-3.18995">
        <ele>3.5</ele>
        <time>2016-07-25T08:56:59Z</time>
      </trkpt>
      <trkpt lat="47.68156" lon="-3.18994">
        <ele>5.42</ele>
        <time>2016-07-25T08:57:12Z</time>
      </trkpt>
      <trkpt lat="47.68143" lon="-3.1899">
        <ele>7.35</ele>
        <time>2016-07-25T08:57:27Z</time>
      </trkpt>
      <trkpt lat="47.68137" lon="-3.1899">
        <ele>6.87</ele>
        <time>2016-07-25T08:57:33Z</time>
      </trkpt>
      <trkpt lat="47.68124" lon="-3.18984">
        <ele>7.35</ele>
        <time>2016-07-25T08:57:45Z</time>
      </trkpt>
      <trkpt lat="47.68109" lon="-3.18979">
        <ele>7.35</ele>
        <time>2016-07-25T08:57:57Z</time>
      </trkpt>
      <trkpt lat="47.68102" lon="-3.18977">
        <ele>6.87</ele>
        <time>2016-07-25T08:58:04Z</time>
      </trkpt>
      <trkpt lat="47.68097" lon="-3.1898">
        <ele>5.91</ele>
        <time>2016-07-25T08:58:09Z</time>
      </trkpt>
      <trkpt lat="47.68094" lon="-3.18987">
        <ele>4.94</ele>
        <time>2016-07-25T08:58:14Z</time>
      </trkpt>
      <trkpt lat="47.68094" lon="-3.18993">
        <ele>3.98</ele>
        <time>2016-07-25T08:58:17Z</time>
      </trkpt>
      <trkpt lat="47.68088" lon="-3.19019">
        <ele>1.1</ele>
        <time>2016-07-25T08:58:34Z</time>
      </trkpt>
      <trkpt lat="47.68088" lon="-3.19019">
        <ele>3.98</ele>
        <time>2016-07-25T08:58:49Z</time>
      </trkpt>
      <trkpt lat="47.68092" lon="-3.19024">
        <ele>3.98</ele>
        <time>2016-07-25T08:59:01Z</time>
      </trkpt>
      <trkpt lat="47.68091" lon="-3.19024">
        <ele>5.42</ele>
        <time>2016-07-25T08:59:08Z</time>
      </trkpt>
      <trkpt lat="47.68089" lon="-3.19016">
        <ele>4.94</ele>
        <time>2016-07-25T08:59:20Z</time>
      </trkpt>
      <trkpt lat="47.68089" lon="-3.19018">
        <ele>4.46</ele>
        <time>2016-07-25T08:59:36Z</time>
      </trkpt>
      <trkpt lat="47.68088" lon="-3.19021">
        <ele>4.46</ele>
        <time>2016-07-25T08:59:50Z</time>
      </trkpt>
      <trkpt lat="47.68089" lon="-3.19015">
        <ele>6.87</ele>
        <time>2016-07-25T09:00:02Z</time>
      </trkpt>
      <trkpt lat="47.68089" lon="-3.19003">
        <ele>6.39</ele>
        <time>2016-07-25T09:00:10Z</time>
      </trkpt>
      <trkpt lat="47.68089" lon="-3.19">
        <ele>5.91</ele>
        <time>2016-07-25T09:00:12Z</time>
      </trkpt>
      <trkpt lat="47.68089" lon="-3.18988">
        <ele>5.42</ele>
        <time>2016-07-25T09:00:21Z</time>
      </trkpt>
      <trkpt lat="47.68089" lon="-3.18978">
        <ele>2.06</ele>
        <time>2016-07-25T09:00:38Z</time>
      </trkpt>
      <trkpt lat="47.68091" lon="-3.18963">
        <ele>2.54</ele>
        <time>2016-07-25T09:00:51Z</time>
      </trkpt>
      <trkpt lat="47.68092" lon="-3.18954">
        <ele>3.5</ele>
        <time>2016-07-25T09:01:04Z</time>
      </trkpt>
      <trkpt lat="47.68092" lon="-3.1895">
        <ele>3.5</ele>
        <time>2016-07-25T09:01:06Z</time>
      </trkpt>
      <trkpt lat="47.68094" lon="-3.18924">
        <ele>5.42</ele>
        <time>2016-07-25T09:01:21Z</time>
      </trkpt>
      <trkpt lat="47.68093" lon="-3.189">
        <ele>5.42</ele>
        <time>2016-07-25T09:01:34Z</time>
      </trkpt>
      <trkpt lat="47.68086" lon="-3.18874">
        <ele>5.91</ele>
        <time>2016-07-25T09:01:49Z</time>
      </trkpt>
      <trkpt lat="47.68079" lon="-3.18848">
        <ele>6.39</ele>
        <time>2016-07-25T09:02:04Z</time>
      </trkpt>
      <trkpt lat="47.68072" lon="-3.18824">
        <ele>6.87</ele>
        <time>2016-07-25T09:02:18Z</time>
      </trkpt>
      <trkpt lat="47.68064" lon="-3.18801">
        <ele>7.83</ele>
        <time>2016-07-25T09:02:32Z</time>
      </trkpt>
      <trkpt lat="47.68063" lon="-3.18798">
        <ele>7.83</ele>
        <time>2016-07-25T09:02:34Z</time>
      </trkpt>
      <trkpt lat="47.68043" lon="-3.18799">
        <ele>8.79</ele>
        <time>2016-07-25T09:02:52Z</time>
      </trkpt>
      <trkpt lat="47.68026" lon="-3.18808">
        <ele>6.87</ele>
        <time>2016-07-25T09:03:07Z</time>
      </trkpt>
      <trkpt lat="47.68008" lon="-3.18815">
        <ele>5.42</ele>
        <time>2016-07-25T09:03:23Z</time>
      </trkpt>
      <trkpt lat="47.67992" lon="-3.18821">
        <ele>3.02</ele>
        <time>2016-07-25T09:03:39Z</time>
      </trkpt>
      <trkpt lat="47.67974" lon="-3.18823">
        <ele>-0.34</ele>
        <time>2016-07-25T09:03:54Z</time>
      </trkpt>
      <trkpt lat="47.67969" lon="-3.18821">
        <ele>-0.34</ele>
        <time>2016-07-25T09:03:58Z</time>
      </trkpt>
      <trkpt lat="47.67965" lon="-3.18817">
        <ele>-0.34</ele>
        <time>2016-07-25T09:04:02Z</time>
      </trkpt>
      <trkpt lat="47.6794" lon="-3.18811">
        <ele>0.62</ele>
        <time>2016-07-25T09:04:21Z</time>
      </trkpt>
      <trkpt lat="47.6792" lon="-3.18806">
        <ele>0.62</ele>
        <time>2016-07-25T09:04:37Z</time>
      </trkpt>
      <trkpt lat="47.67897" lon="-3.18801">
        <ele>0.14</ele>
        <time>2016-07-25T09:04:56Z</time>
      </trkpt>
      <trkpt lat="47.67879" lon="-3.18799">
        <ele>0.62</ele>
        <time>2016-07-25T09:05:11Z</time>
      </trkpt>
      <trkpt lat="47.67872" lon="-3.18798">
        <ele>1.1</ele>
        <time>2016-07-25T09:05:17Z</time>
      </trkpt>
      <trkpt lat="47.67847" lon="-3.18793">
        <ele>1.58</ele>
        <time>2016-07-25T09:05:36Z</time>
      </trkpt>
      <trkpt lat="47.6784" lon="-3.18793">
        <ele>1.1</ele>
        <time>2016-07-25T09:05:49Z</time>
      </trkpt>
      <trkpt lat="47.67829" lon="-3.1879">
        <ele>0.14</ele>
        <time>2016-07-25T09:05:59Z</time>
      </trkpt>
      <trkpt lat="47.67809" lon="-3.18784">
        <ele>-0.34</ele>
        <time>2016-07-25T09:06:15Z</time>
      </trkpt>
      <trkpt lat="47.67789" lon="-3.1878">
        <ele>0.14</ele>
        <time>2016-07-25T09:06:31Z</time>
      </trkpt>
      <trkpt lat="47.6778" lon="-3.18783">
        <ele>-0.34</ele>
        <time>2016-07-25T09:06:43Z</time>
      </trkpt>
      <trkpt lat="47.67776" lon="-3.18782">
        <ele>0.14</ele>
        <time>2016-07-25T09:06:53Z</time>
      </trkpt>
      <trkpt lat="47.67757" lon="-3.18784">
        <ele>-0.34</ele>
        <time>2016-07-25T09:07:09Z</time>
      </trkpt>
      <trkpt lat="47.67751" lon="-3.18785">
        <ele>-0.82</ele>
        <time>2016-07-25T09:07:14Z</time>
      </trkpt>
      <trkpt lat="47.67742" lon="-3.18784">
        <ele>0.62</ele>
        <time>2016-07-25T09:07:21Z</time>
      </trkpt>
      <trkpt lat="47.67736" lon="-3.18785">
        <ele>1.58</ele>
        <time>2016-07-25T09:07:26Z</time>
      </trkpt>
      <trkpt lat="47.67731" lon="-3.18784">
        <ele>1.58</ele>
        <time>2016-07-25T09:07:31Z</time>
      </trkpt>
      <trkpt lat="47.67729" lon="-3.18782">
        <ele>1.58</ele>
        <time>2016-07-25T09:07:33Z</time>
      </trkpt>
      <trkpt lat="47.67723" lon="-3.18783">
        <ele>1.58</ele>
        <time>2016-07-25T09:07:37Z</time>
      </trkpt>
      <trkpt lat="47.67709" lon="-3.18776">
        <ele>0.62</ele>
        <time>2016-07-25T09:07:48Z</time>
      </trkpt>
      <trkpt lat="47.67709" lon="-3.18787">
        <ele>0.62</ele>
        <time>2016-07-25T09:08:03Z</time>
      </trkpt>
      <trkpt lat="47.67709" lon="-3.18784">
        <ele>0.62</ele>
        <time>2016-07-25T09:08:07Z</time>
      </trkpt>
      <trkpt lat="47.67704" lon="-3.18785">
        <ele>1.58</ele>
        <time>2016-07-25T09:08:12Z</time>
      </trkpt>
      <trkpt lat="47.67694" lon="-3.18794">
        <ele>3.5</ele>
        <time>2016-07-25T09:08:22Z</time>
      </trkpt>
      <trkpt lat="47.67691" lon="-3.18797">
        <ele>3.5</ele>
        <time>2016-07-25T09:08:26Z</time>
      </trkpt>
      <trkpt lat="47.67687" lon="-3.18817">
        <ele>4.46</ele>
        <time>2016-07-25T09:08:37Z</time>
      </trkpt>
      <trkpt lat="47.6768" lon="-3.1885">
        <ele>6.87</ele>
        <time>2016-07-25T09:08:56Z</time>
      </trkpt>
      <trkpt lat="47.67674" lon="-3.18873">
        <ele>6.39</ele>
        <time>2016-07-25T09:09:11Z</time>
      </trkpt>
      <trkpt lat="47.6767" lon="-3.18896">
        <ele>6.39</ele>
        <time>2016-07-25T09:09:25Z</time>
      </trkpt>
      <trkpt lat="47.67669" lon="-3.18923">
        <ele>5.91</ele>
        <time>2016-07-25T09:09:41Z</time>
      </trkpt>
      <trkpt lat="47.6767" lon="-3.18951">
        <ele>4.46</ele>
        <time>2016-07-25T09:09:58Z</time>
      </trkpt>
      <trkpt lat="47.67671" lon="-3.18966">
        <ele>3.5</ele>
        <time>2016-07-25T09:10:07Z</time>
      </trkpt>
      <trkpt lat="47.67671" lon="-3.1897">
        <ele>3.5</ele>
        <time>2016-07-25T09:10:09Z</time>
      </trkpt>
      <trkpt lat="47.67665" lon="-3.18994">
        <ele>2.06</ele>
        <time>2016-07-25T09:10:25Z</time>
      </trkpt>
      <trkpt lat="47.67654" lon="-3.19005">
        <ele>2.54</ele>
        <time>2016-07-25T09:10:39Z</time>
      </trkpt>
      <trkpt lat="47.67653" lon="-3.19006">
        <ele>3.02</ele>
        <time>2016-07-25T09:10:40Z</time>
      </trkpt>
      <trkpt lat="47.67643" lon="-3.19017">
        <ele>3.98</ele>
        <time>2016-07-25T09:10:50Z</time>
      </trkpt>
      <trkpt lat="47.67637" lon="-3.19027">
        <ele>3.5</ele>
        <time>2016-07-25T09:10:58Z</time>
      </trkpt>
      <trkpt lat="47.67635" lon="-3.19037">
        <ele>3.02</ele>
        <time>2016-07-25T09:11:04Z</time>
      </trkpt>
      <trkpt lat="47.67642" lon="-3.19053">
        <ele>5.91</ele>
        <time>2016-07-25T09:11:18Z</time>
      </trkpt>
      <trkpt lat="47.67653" lon="-3.19071">
        <ele>8.31</ele>
        <time>2016-07-25T09:11:32Z</time>
      </trkpt>
      <trkpt lat="47.67663" lon="-3.19088">
        <ele>8.31</ele>
        <time>2016-07-25T09:11:47Z</time>
      </trkpt>
      <trkpt lat="47.67669" lon="-3.19098">
        <ele>9.27</ele>
        <time>2016-07-25T09:11:59Z</time>
      </trkpt>
      <trkpt lat="47.67675" lon="-3.19109">
        <ele>9.75</ele>
        <time>2016-07-25T09:12:08Z</time>
      </trkpt>
      <trkpt lat="47.6769" lon="-3.19125">
        <ele>10.23</ele>
        <time>2016-07-25T09:12:24Z</time>
      </trkpt>
      <trkpt lat="47.67703" lon="-3.19145">
        <ele>10.23</ele>
        <time>2016-07-25T09:12:41Z</time>
      </trkpt>
      <trkpt lat="47.67714" lon="-3.19165">
        <ele>9.27</ele>
        <time>2016-07-25T09:12:56Z</time>
      </trkpt>
      <trkpt lat="47.67718" lon="-3.19181">
        <ele>9.27</ele>
        <time>2016-07-25T09:13:07Z</time>
      </trkpt>
      <trkpt lat="47.67725" lon="-3.19196">
        <ele>8.31</ele>
        <time>2016-07-25T09:13:20Z</time>
      </trkpt>
      <trkpt lat="47.67729" lon="-3.19217">
        <ele>6.87</ele>
        <time>2016-07-25T09:13:33Z</time>
      </trkpt>
      <trkpt lat="47.67728" lon="-3.1924">
        <ele>6.87</ele>
        <time>2016-07-25T09:13:46Z</time>
      </trkpt>
      <trkpt lat="47.67729" lon="-3.19249">
        <ele>8.31</ele>
        <time>2016-07-25T09:13:51Z</time>
      </trkpt>
      <trkpt lat="47.67734" lon="-3.19281">
        <ele>7.83</ele>
        <time>2016-07-25T09:14:09Z</time>
      </trkpt>
      <trkpt lat="47.6774" lon="-3.1931">
        <ele>7.35</ele>
        <time>2016-07-25T09:14:26Z</time>
      </trkpt>
      <trkpt lat="47.67746" lon="-3.19333">
        <ele>5.42</ele>
        <time>2016-07-25T09:14:41Z</time>
      </trkpt>
      <trkpt lat="47.67753" lon="-3.1934">
        <ele>4.94</ele>
        <time>2016-07-25T09:14:52Z</time>
      </trkpt>
      <trkpt lat="47.67757" lon="-3.19341">
        <ele>6.87</ele>
        <time>2016-07-25T09:15:04Z</time>
      </trkpt>
      <trkpt lat="47.67763" lon="-3.19338">
        <ele>6.87</ele>
        <time>2016-07-25T09:15:20Z</time>
      </trkpt>
      <trkpt lat="47.67761" lon="-3.19344">
        <ele>6.39</ele>
        <time>2016-07-25T09:15:24Z</time>
      </trkpt>
      <trkpt lat="47.6776" lon="-3.19348">
        <ele>5.42</ele>
        <time>2016-07-25T09:15:26Z</time>
      </trkpt>
      <trkpt lat="47.67759" lon="-3.19351">
        <ele>5.42</ele>
        <time>2016-07-25T09:15:28Z</time>
      </trkpt>
      <trkpt lat="47.67758" lon="-3.19362">
        <ele>3.5</ele>
        <time>2016-07-25T09:15:35Z</time>
      </trkpt>
      <trkpt lat="47.67756" lon="-3.19379">
        <ele>1.58</ele>
        <time>2016-07-25T09:15:46Z</time>
      </trkpt>
      <trkpt lat="47.67754" lon="-3.19382">
        <ele>1.58</ele>
        <time>2016-07-25T09:15:48Z</time>
      </trkpt>
      <trkpt lat="47.67752" lon="-3.19385">
        <ele>5.91</ele>
        <time>2016-07-25T09:15:59Z</time>
      </trkpt>
      <trkpt lat="47.67739" lon="-3.19389">
        <ele>6.39</ele>
        <time>2016-07-25T09:16:13Z</time>
      </trkpt>
      <trkpt lat="47.67733" lon="-3.19394">
        <ele>2.54</ele>
        <time>2016-07-25T09:16:20Z</time>
      </trkpt>
      <trkpt lat="47.67735" lon="-3.19405">
        <ele>1.1</ele>
        <time>2016-07-25T09:16:29Z</time>
      </trkpt>
      <trkpt lat="47.6774" lon="-3.1941">
        <ele>1.58</ele>
        <time>2016-07-25T09:16:34Z</time>
      </trkpt>
      <trkpt lat="47.67752" lon="-3.19416">
        <ele>3.5</ele>
        <time>2016-07-25T09:16:49Z</time>
      </trkpt>
      <trkpt lat="47.67757" lon="-3.19418">
        <ele>4.46</ele>
        <time>2016-07-25T09:16:54Z</time>
      </trkpt>
      <trkpt lat="47.67764" lon="-3.19432">
        <ele>4.46</ele>
        <time>2016-07-25T09:17:07Z</time>
      </trkpt>
      <trkpt lat="47.67765" lon="-3.19434">
        <ele>3.98</ele>
        <time>2016-07-25T09:17:09Z</time>
      </trkpt>
      <trkpt lat="47.67771" lon="-3.19462">
        <ele>3.5</ele>
        <time>2016-07-25T09:17:26Z</time>
      </trkpt>
      <trkpt lat="47.67774" lon="-3.19482">
        <ele>3.02</ele>
        <time>2016-07-25T09:17:41Z</time>
      </trkpt>
      <trkpt lat="47.67771" lon="-3.19509">
        <ele>3.5</ele>
        <time>2016-07-25T09:17:55Z</time>
      </trkpt>
      <trkpt lat="47.67768" lon="-3.19521">
        <ele>3.5</ele>
        <time>2016-07-25T09:18:02Z</time>
      </trkpt>
      <trkpt lat="47.67768" lon="-3.19527">
        <ele>3.02</ele>
        <time>2016-07-25T09:18:06Z</time>
      </trkpt>
      <trkpt lat="47.6776" lon="-3.1954">
        <ele>3.98</ele>
        <time>2016-07-25T09:18:14Z</time>
      </trkpt>
      <trkpt lat="47.67741" lon="-3.19547">
        <ele>2.54</ele>
        <time>2016-07-25T09:18:30Z</time>
      </trkpt>
      <trkpt lat="47.67722" lon="-3.19546">
        <ele>3.98</ele>
        <time>2016-07-25T09:18:46Z</time>
      </trkpt>
      <trkpt lat="47.677" lon="-3.19544">
        <ele>3.02</ele>
        <time>2016-07-25T09:19:04Z</time>
      </trkpt>
      <trkpt lat="47.6768" lon="-3.19547">
        <ele>3.5</ele>
        <time>2016-07-25T09:19:21Z</time>
      </trkpt>
      <trkpt lat="47.67661" lon="-3.19559">
        <ele>2.54</ele>
        <time>2016-07-25T09:19:37Z</time>
      </trkpt>
      <trkpt lat="47.67646" lon="-3.19571">
        <ele>0.14</ele>
        <time>2016-07-25T09:19:51Z</time>
      </trkpt>
      <trkpt lat="47.67631" lon="-3.19584">
        <ele>-1.79</ele>
        <time>2016-07-25T09:20:05Z</time>
      </trkpt>
      <trkpt lat="47.67627" lon="-3.19588">
        <ele>-1.79</ele>
        <time>2016-07-25T09:20:09Z</time>
      </trkpt>
      <trkpt lat="47.67623" lon="-3.19589">
        <ele>-1.79</ele>
        <time>2016-07-25T09:20:12Z</time>
      </trkpt>
      <trkpt lat="47.67621" lon="-3.1959">
        <ele>-1.79</ele>
        <time>2016-07-25T09:20:13Z</time>
      </trkpt>
      <trkpt lat="47.6762" lon="-3.19591">
        <ele>-1.79</ele>
        <time>2016-07-25T09:20:14Z</time>
      </trkpt>
      <trkpt lat="47.67619" lon="-3.19593">
        <ele>-1.79</ele>
        <time>2016-07-25T09:20:15Z</time>
      </trkpt>
      <trkpt lat="47.67605" lon="-3.19608">
        <ele>1.58</ele>
        <time>2016-07-25T09:20:30Z</time>
      </trkpt>
      <trkpt lat="47.67593" lon="-3.19613">
        <ele>2.54</ele>
        <time>2016-07-25T09:20:40Z</time>
      </trkpt>
      <trkpt lat="47.67592" lon="-3.19614">
        <ele>2.54</ele>
        <time>2016-07-25T09:20:41Z</time>
      </trkpt>
      <trkpt lat="47.67592" lon="-3.19616">
        <ele>2.54</ele>
        <time>2016-07-25T09:20:42Z</time>
      </trkpt>
      <trkpt lat="47.67592" lon="-3.19618">
        <ele>3.02</ele>
        <time>2016-07-25T09:20:43Z</time>
      </trkpt>
      <trkpt lat="47.67591" lon="-3.1962">
        <ele>3.02</ele>
        <time>2016-07-25T09:20:44Z</time>
      </trkpt>
      <trkpt lat="47.67591" lon="-3.19621">
        <ele>3.02</ele>
        <time>2016-07-25T09:20:45Z</time>
      </trkpt>
      <trkpt lat="47.67591" lon="-3.19625">
        <ele>3.02</ele>
        <time>2016-07-25T09:20:51Z</time>
      </trkpt>
      <trkpt lat="47.67591" lon="-3.19627">
        <ele>3.02</ele>
        <time>2016-07-25T09:20:52Z</time>
      </trkpt>
      <trkpt lat="47.67591" lon="-3.19629">
        <ele>2.54</ele>
        <time>2016-07-25T09:20:53Z</time>
      </trkpt>
      <trkpt lat="47.67591" lon="-3.1963">
        <ele>2.54</ele>
        <time>2016-07-25T09:20:54Z</time>
      </trkpt>
      <trkpt lat="47.67592" lon="-3.19632">
        <ele>2.54</ele>
        <time>2016-07-25T09:20:55Z</time>
      </trkpt>
      <trkpt lat="47.67592" lon="-3.19633">
        <ele>2.06</ele>
        <time>2016-07-25T09:20:56Z</time>
      </trkpt>
      <trkpt lat="47.67592" lon="-3.19635">
        <ele>2.06</ele>
        <time>2016-07-25T09:20:57Z</time>
      </trkpt>
      <trkpt lat="47.67589" lon="-3.1966">
        <ele>3.5</ele>
        <time>2016-07-25T09:21:10Z</time>
      </trkpt>
      <trkpt lat="47.67589" lon="-3.19662">
        <ele>3.98</ele>
        <time>2016-07-25T09:21:11Z</time>
      </trkpt>
      <trkpt lat="47.67588" lon="-3.1969">
        <ele>5.42</ele>
        <time>2016-07-25T09:21:26Z</time>
      </trkpt>
      <trkpt lat="47.67588" lon="-3.19692">
        <ele>5.42</ele>
        <time>2016-07-25T09:21:27Z</time>
      </trkpt>
      <trkpt lat="47.67588" lon="-3.19694">
        <ele>5.91</ele>
        <time>2016-07-25T09:21:28Z</time>
      </trkpt>
      <trkpt lat="47.67588" lon="-3.19696">
        <ele>6.39</ele>
        <time>2016-07-25T09:21:29Z</time>
      </trkpt>
      <trkpt lat="47.67588" lon="-3.19698">
        <ele>6.39</ele>
        <time>2016-07-25T09:21:30Z</time>
      </trkpt>
      <trkpt lat="47.67589" lon="-3.19706">
        <ele>5.91</ele>
        <time>2016-07-25T09:21:35Z</time>
      </trkpt>
      <trkpt lat="47.67589" lon="-3.19707">
        <ele>5.91</ele>
        <time>2016-07-25T09:21:36Z</time>
      </trkpt>
      <trkpt lat="47.67589" lon="-3.19709">
        <ele>5.91</ele>
        <time>2016-07-25T09:21:37Z</time>
      </trkpt>
      <trkpt lat="47.67589" lon="-3.1971">
        <ele>5.42</ele>
        <time>2016-07-25T09:21:38Z</time>
      </trkpt>
      <trkpt lat="47.6759" lon="-3.19712">
        <ele>5.42</ele>
        <time>2016-07-25T09:21:39Z</time>
      </trkpt>
      <trkpt lat="47.6759" lon="-3.19714">
        <ele>5.91</ele>
        <time>2016-07-25T09:21:40Z</time>
      </trkpt>
      <trkpt lat="47.6759" lon="-3.19715">
        <ele>5.91</ele>
        <time>2016-07-25T09:21:41Z</time>
      </trkpt>
      <trkpt lat="47.6759" lon="-3.19718">
        <ele>5.91</ele>
        <time>2016-07-25T09:21:43Z</time>
      </trkpt>
      <trkpt lat="47.67592" lon="-3.19727">
        <ele>4.46</ele>
        <time>2016-07-25T09:21:55Z</time>
      </trkpt>
      <trkpt lat="47.67592" lon="-3.19728">
        <ele>4.46</ele>
        <time>2016-07-25T09:21:58Z</time>
      </trkpt>
      <trkpt lat="47.67592" lon="-3.1973">
        <ele>3.98</ele>
        <time>2016-07-25T09:21:59Z</time>
      </trkpt>
      <trkpt lat="47.67594" lon="-3.1974">
        <ele>3.98</ele>
        <time>2016-07-25T09:22:06Z</time>
      </trkpt>
      <trkpt lat="47.67594" lon="-3.19743">
        <ele>3.98</ele>
        <time>2016-07-25T09:22:08Z</time>
      </trkpt>
      <trkpt lat="47.67595" lon="-3.19745">
        <ele>3.98</ele>
        <time>2016-07-25T09:22:09Z</time>
      </trkpt>
      <trkpt lat="47.67595" lon="-3.19747">
        <ele>4.46</ele>
        <time>2016-07-25T09:22:10Z</time>
      </trkpt>
      <trkpt lat="47.67595" lon="-3.19749">
        <ele>4.46</ele>
        <time>2016-07-25T09:22:11Z</time>
      </trkpt>
      <trkpt lat="47.67595" lon="-3.19751">
        <ele>4.46</ele>
        <time>2016-07-25T09:22:12Z</time>
      </trkpt>
      <trkpt lat="47.67597" lon="-3.19783">
        <ele>3.98</ele>
        <time>2016-07-25T09:22:29Z</time>
      </trkpt>
      <trkpt lat="47.67597" lon="-3.19809">
        <ele>4.46</ele>
        <time>2016-07-25T09:22:42Z</time>
      </trkpt>
      <trkpt lat="47.67597" lon="-3.19838">
        <ele>3.5</ele>
        <time>2016-07-25T09:22:58Z</time>
      </trkpt>
      <trkpt lat="47.67598" lon="-3.19868">
        <ele>3.5</ele>
        <time>2016-07-25T09:23:13Z</time>
      </trkpt>
      <trkpt lat="47.67597" lon="-3.19879">
        <ele>3.98</ele>
        <time>2016-07-25T09:23:19Z</time>
      </trkpt>
      <trkpt lat="47.67597" lon="-3.19881">
        <ele>3.98</ele>
        <time>2016-07-25T09:23:20Z</time>
      </trkpt>
      <trkpt lat="47.67596" lon="-3.19901">
        <ele>4.46</ele>
        <time>2016-07-25T09:23:31Z</time>
      </trkpt>
      <trkpt lat="47.67597" lon="-3.19924">
        <ele>3.5</ele>
        <time>2016-07-25T09:23:45Z</time>
      </trkpt>
      <trkpt lat="47.67596" lon="-3.19932">
        <ele>2.54</ele>
        <time>2016-07-25T09:23:50Z</time>
      </trkpt>
      <trkpt lat="47.67596" lon="-3.19935">
        <ele>3.02</ele>
        <time>2016-07-25T09:24:03Z</time>
      </trkpt>
      <trkpt lat="47.67593" lon="-3.19936">
        <ele>3.02</ele>
        <time>2016-07-25T09:24:21Z</time>
      </trkpt>
      <trkpt lat="47.67587" lon="-3.19935">
        <ele>2.54</ele>
        <time>2016-07-25T09:24:28Z</time>
      </trkpt>
      <trkpt lat="47.67585" lon="-3.19934">
        <ele>2.54</ele>
        <time>2016-07-25T09:24:29Z</time>
      </trkpt>
      <trkpt lat="47.67584" lon="-3.19933">
        <ele>2.54</ele>
        <time>2016-07-25T09:24:30Z</time>
      </trkpt>
      <trkpt lat="47.67582" lon="-3.19932">
        <ele>2.54</ele>
        <time>2016-07-25T09:24:31Z</time>
      </trkpt>
      <trkpt lat="47.67581" lon="-3.19931">
        <ele>2.54</ele>
        <time>2016-07-25T09:24:32Z</time>
      </trkpt>
      <trkpt lat="47.67579" lon="-3.19931">
        <ele>2.54</ele>
        <time>2016-07-25T09:24:33Z</time>
      </trkpt>
      <trkpt lat="47.67577" lon="-3.1993">
        <ele>2.54</ele>
        <time>2016-07-25T09:24:34Z</time>
      </trkpt>
      <trkpt lat="47.67566" lon="-3.19932">
        <ele>2.06</ele>
        <time>2016-07-25T09:24:42Z</time>
      </trkpt>
      <trkpt lat="47.67558" lon="-3.19936">
        <ele>2.06</ele>
        <time>2016-07-25T09:24:49Z</time>
      </trkpt>
      <trkpt lat="47.67556" lon="-3.19936">
        <ele>2.06</ele>
        <time>2016-07-25T09:24:50Z</time>
      </trkpt>
      <trkpt lat="47.67555" lon="-3.19937">
        <ele>2.06</ele>
        <time>2016-07-25T09:24:51Z</time>
      </trkpt>
      <trkpt lat="47.67554" lon="-3.19937">
        <ele>2.06</ele>
        <time>2016-07-25T09:24:52Z</time>
      </trkpt>
      <trkpt lat="47.6755" lon="-3.19937">
        <ele>2.54</ele>
        <time>2016-07-25T09:24:56Z</time>
      </trkpt>
      <trkpt lat="47.67549" lon="-3.19936">
        <ele>2.54</ele>
        <time>2016-07-25T09:24:57Z</time>
      </trkpt>
      <trkpt lat="47.67548" lon="-3.19935">
        <ele>3.02</ele>
        <time>2016-07-25T09:24:58Z</time>
      </trkpt>
      <trkpt lat="47.67547" lon="-3.19934">
        <ele>3.02</ele>
        <time>2016-07-25T09:24:59Z</time>
      </trkpt>
      <trkpt lat="47.67543" lon="-3.19935">
        <ele>3.02</ele>
        <time>2016-07-25T09:25:03Z</time>
      </trkpt>
      <trkpt lat="47.67542" lon="-3.19935">
        <ele>3.5</ele>
        <time>2016-07-25T09:25:04Z</time>
      </trkpt>
      <trkpt lat="47.6754" lon="-3.19934">
        <ele>3.5</ele>
        <time>2016-07-25T09:25:05Z</time>
      </trkpt>
      <trkpt lat="47.67536" lon="-3.1993">
        <ele>3.5</ele>
        <time>2016-07-25T09:25:10Z</time>
      </trkpt>
      <trkpt lat="47.67535" lon="-3.19929">
        <ele>3.5</ele>
        <time>2016-07-25T09:25:11Z</time>
      </trkpt>
      <trkpt lat="47.67534" lon="-3.19928">
        <ele>3.5</ele>
        <time>2016-07-25T09:25:12Z</time>
      </trkpt>
      <trkpt lat="47.67532" lon="-3.19927">
        <ele>3.5</ele>
        <time>2016-07-25T09:25:13Z</time>
      </trkpt>
      <trkpt lat="47.67531" lon="-3.19926">
        <ele>3.98</ele>
        <time>2016-07-25T09:25:14Z</time>
      </trkpt>
      <trkpt lat="47.6753" lon="-3.19924">
        <ele>3.5</ele>
        <time>2016-07-25T09:25:15Z</time>
      </trkpt>
      <trkpt lat="47.67528" lon="-3.19923">
        <ele>3.5</ele>
        <time>2016-07-25T09:25:17Z</time>
      </trkpt>
      <trkpt lat="47.67525" lon="-3.19922">
        <ele>2.54</ele>
        <time>2016-07-25T09:25:20Z</time>
      </trkpt>
      <trkpt lat="47.67519" lon="-3.19921">
        <ele>2.06</ele>
        <time>2016-07-25T09:25:25Z</time>
      </trkpt>
      <trkpt lat="47.67518" lon="-3.19921">
        <ele>1.58</ele>
        <time>2016-07-25T09:25:26Z</time>
      </trkpt>
      <trkpt lat="47.67517" lon="-3.1992">
        <ele>1.58</ele>
        <time>2016-07-25T09:25:27Z</time>
      </trkpt>
      <trkpt lat="47.67514" lon="-3.19919">
        <ele>1.1</ele>
        <time>2016-07-25T09:25:30Z</time>
      </trkpt>
      <trkpt lat="47.67513" lon="-3.19919">
        <ele>1.1</ele>
        <time>2016-07-25T09:25:31Z</time>
      </trkpt>
      <trkpt lat="47.67512" lon="-3.19919">
        <ele>0.62</ele>
        <time>2016-07-25T09:25:32Z</time>
      </trkpt>
      <trkpt lat="47.6751" lon="-3.19918">
        <ele>0.62</ele>
        <time>2016-07-25T09:25:33Z</time>
      </trkpt>
      <trkpt lat="47.67509" lon="-3.19917">
        <ele>0.62</ele>
        <time>2016-07-25T09:25:34Z</time>
      </trkpt>
      <trkpt lat="47.67498" lon="-3.19901">
        <ele>-0.34</ele>
        <time>2016-07-25T09:25:47Z</time>
      </trkpt>
      <trkpt lat="47.67496" lon="-3.19899">
        <ele>-0.34</ele>
        <time>2016-07-25T09:25:49Z</time>
      </trkpt>
      <trkpt lat="47.67495" lon="-3.19897">
        <ele>-0.34</ele>
        <time>2016-07-25T09:25:50Z</time>
      </trkpt>
      <trkpt lat="47.67494" lon="-3.19896">
        <ele>-0.34</ele>
        <time>2016-07-25T09:25:51Z</time>
      </trkpt>
      <trkpt lat="47.67493" lon="-3.19895">
        <ele>-0.34</ele>
        <time>2016-07-25T09:25:52Z</time>
      </trkpt>
      <trkpt lat="47.67492" lon="-3.19895">
        <ele>-0.34</ele>
        <time>2016-07-25T09:25:53Z</time>
      </trkpt>
      <trkpt lat="47.6749" lon="-3.19894">
        <ele>-0.34</ele>
        <time>2016-07-25T09:25:54Z</time>
      </trkpt>
      <trkpt lat="47.67475" lon="-3.1989">
        <ele>-0.82</ele>
        <time>2016-07-25T09:26:07Z</time>
      </trkpt>
      <trkpt lat="47.67466" lon="-3.19896">
        <ele>-1.3</ele>
        <time>2016-07-25T09:26:20Z</time>
      </trkpt>
      <trkpt lat="47.67463" lon="-3.19894">
        <ele>0.62</ele>
        <time>2016-07-25T09:26:35Z</time>
      </trkpt>
      <trkpt lat="47.67461" lon="-3.19887">
        <ele>2.06</ele>
        <time>2016-07-25T09:26:45Z</time>
      </trkpt>
      <trkpt lat="47.6746" lon="-3.19884">
        <ele>2.06</ele>
        <time>2016-07-25T09:26:47Z</time>
      </trkpt>
      <trkpt lat="47.67457" lon="-3.19879">
        <ele>2.54</ele>
        <time>2016-07-25T09:26:51Z</time>
      </trkpt>
      <trkpt lat="47.67456" lon="-3.19878">
        <ele>2.54</ele>
        <time>2016-07-25T09:26:52Z</time>
      </trkpt>
      <trkpt lat="47.67452" lon="-3.19872">
        <ele>2.54</ele>
        <time>2016-07-25T09:26:57Z</time>
      </trkpt>
      <trkpt lat="47.67453" lon="-3.19866">
        <ele>2.54</ele>
        <time>2016-07-25T09:27:00Z</time>
      </trkpt>
      <trkpt lat="47.67458" lon="-3.19854">
        <ele>2.54</ele>
        <time>2016-07-25T09:27:13Z</time>
      </trkpt>
      <trkpt lat="47.67455" lon="-3.1986">
        <ele>1.58</ele>
        <time>2016-07-25T09:27:31Z</time>
      </trkpt>
      <trkpt lat="47.67453" lon="-3.19862">
        <ele>1.58</ele>
        <time>2016-07-25T09:27:34Z</time>
      </trkpt>
      <trkpt lat="47.67447" lon="-3.19869">
        <ele>1.1</ele>
        <time>2016-07-25T09:27:41Z</time>
      </trkpt>
      <trkpt lat="47.67444" lon="-3.19865">
        <ele>1.1</ele>
        <time>2016-07-25T09:27:54Z</time>
      </trkpt>
      <trkpt lat="47.67433" lon="-3.19844">
        <ele>0.62</ele>
        <time>2016-07-25T09:28:08Z</time>
      </trkpt>
      <trkpt lat="47.67431" lon="-3.19833">
        <ele>-0.82</ele>
        <time>2016-07-25T09:28:14Z</time>
      </trkpt>
      <trkpt lat="47.67433" lon="-3.19814">
        <ele>0.14</ele>
        <time>2016-07-25T09:28:30Z</time>
      </trkpt>
      <trkpt lat="47.67434" lon="-3.1982">
        <ele>1.1</ele>
        <time>2016-07-25T09:28:45Z</time>
      </trkpt>
      <trkpt lat="47.67435" lon="-3.1982">
        <ele>1.1</ele>
        <time>2016-07-25T09:29:02Z</time>
      </trkpt>
      <trkpt lat="47.67435" lon="-3.19824">
        <ele>1.1</ele>
        <time>2016-07-25T09:29:15Z</time>
      </trkpt>
      <trkpt lat="47.67434" lon="-3.19826">
        <ele>2.06</ele>
        <time>2016-07-25T09:29:29Z</time>
      </trkpt>
      <trkpt lat="47.67434" lon="-3.19824">
        <ele>4.46</ele>
        <time>2016-07-25T09:29:51Z</time>
      </trkpt>
      <trkpt lat="47.67433" lon="-3.19824">
        <ele>3.5</ele>
        <time>2016-07-25T09:30:14Z</time>
      </trkpt>
      <trkpt lat="47.67433" lon="-3.19823">
        <ele>1.1</ele>
        <time>2016-07-25T09:30:37Z</time>
      </trkpt>
      <trkpt lat="47.67432" lon="-3.19824">
        <ele>2.06</ele>
        <time>2016-07-25T09:31:01Z</time>
      </trkpt>
      <trkpt lat="47.67433" lon="-3.19822">
        <ele>3.02</ele>
        <time>2016-07-25T09:31:27Z</time>
      </trkpt>
      <trkpt lat="47.6743" lon="-3.1982">
        <ele>2.06</ele>
        <time>2016-07-25T09:31:42Z</time>
      </trkpt>
      <trkpt lat="47.67431" lon="-3.19818">
        <ele>2.54</ele>
        <time>2016-07-25T09:32:12Z</time>
      </trkpt>
      <trkpt lat="47.6743" lon="-3.19817">
        <ele>4.46</ele>
        <time>2016-07-25T09:32:33Z</time>
      </trkpt>
      <trkpt lat="47.67431" lon="-3.19818">
        <ele>5.91</ele>
        <time>2016-07-25T09:32:56Z</time>
      </trkpt>
      <trkpt lat="47.6743" lon="-3.1982">
        <ele>4.94</ele>
        <time>2016-07-25T09:33:26Z</time>
      </trkpt>
      <trkpt lat="47.67434" lon="-3.19824">
        <ele>6.39</ele>
        <time>2016-07-25T09:33:59Z</time>
      </trkpt>
      <trkpt lat="47.67435" lon="-3.19822">
        <ele>7.35</ele>
        <time>2016-07-25T09:34:28Z</time>
      </trkpt>
      <trkpt lat="47.67436" lon="-3.1982">
        <ele>7.35</ele>
        <time>2016-07-25T09:34:50Z</time>
      </trkpt>
      <trkpt lat="47.67436" lon="-3.19824">
        <ele>7.35</ele>
        <time>2016-07-25T09:35:17Z</time>
      </trkpt>
      <trkpt lat="47.67433" lon="-3.19824">
        <ele>3.98</ele>
        <time>2016-07-25T09:35:42Z</time>
      </trkpt>
      <trkpt lat="47.67431" lon="-3.19822">
        <ele>1.58</ele>
        <time>2016-07-25T09:36:05Z</time>
      </trkpt>
      <trkpt lat="47.67429" lon="-3.1982">
        <ele>2.54</ele>
        <time>2016-07-25T09:36:23Z</time>
      </trkpt>
      <trkpt lat="47.67427" lon="-3.1982">
        <ele>1.1</ele>
        <time>2016-07-25T09:36:58Z</time>
      </trkpt>
      <trkpt lat="47.67426" lon="-3.19821">
        <ele>2.06</ele>
        <time>2016-07-25T09:37:33Z</time>
      </trkpt>
      <trkpt lat="47.67432" lon="-3.19822">
        <ele>5.42</ele>
        <time>2016-07-25T09:37:59Z</time>
      </trkpt>
      <trkpt lat="47.67431" lon="-3.19822">
        <ele>3.98</ele>
        <time>2016-07-25T09:38:22Z</time>
      </trkpt>
      <trkpt lat="47.67434" lon="-3.19824">
        <ele>2.54</ele>
        <time>2016-07-25T09:38:55Z</time>
      </trkpt>
      <trkpt lat="47.67436" lon="-3.19825">
        <ele>1.58</ele>
        <time>2016-07-25T09:39:18Z</time>
      </trkpt>
      <trkpt lat="47.67434" lon="-3.19824">
        <ele>2.06</ele>
        <time>2016-07-25T09:39:47Z</time>
      </trkpt>
      <trkpt lat="47.67432" lon="-3.19824">
        <ele>1.58</ele>
        <time>2016-07-25T09:40:13Z</time>
      </trkpt>
      <trkpt lat="47.67435" lon="-3.19825">
        <ele>-4.19</ele>
        <time>2016-07-25T09:40:42Z</time>
      </trkpt>
      <trkpt lat="47.67432" lon="-3.19823">
        <ele>-0.34</ele>
        <time>2016-07-25T09:41:03Z</time>
      </trkpt>
      <trkpt lat="47.67432" lon="-3.19822">
        <ele>-0.82</ele>
        <time>2016-07-25T09:41:04Z</time>
      </trkpt>
      <trkpt lat="47.67432" lon="-3.19811">
        <ele>3.5</ele>
        <time>2016-07-25T09:41:15Z</time>
      </trkpt>
      <trkpt lat="47.67434" lon="-3.19789">
        <ele>3.02</ele>
        <time>2016-07-25T09:41:27Z</time>
      </trkpt>
      <trkpt lat="47.67431" lon="-3.19777">
        <ele>2.06</ele>
        <time>2016-07-25T09:41:40Z</time>
      </trkpt>
      <trkpt lat="47.67432" lon="-3.19778">
        <ele>2.54</ele>
        <time>2016-07-25T09:41:47Z</time>
      </trkpt>
      <trkpt lat="47.67432" lon="-3.19776">
        <ele>2.54</ele>
        <time>2016-07-25T09:41:49Z</time>
      </trkpt>
      <trkpt lat="47.6742" lon="-3.19761">
        <ele>2.54</ele>
        <time>2016-07-25T09:42:02Z</time>
      </trkpt>
      <trkpt lat="47.67397" lon="-3.19753">
        <ele>2.54</ele>
        <time>2016-07-25T09:42:20Z</time>
      </trkpt>
      <trkpt lat="47.67387" lon="-3.19748">
        <ele>2.06</ele>
        <time>2016-07-25T09:42:28Z</time>
      </trkpt>
      <trkpt lat="47.67371" lon="-3.1974">
        <ele>1.1</ele>
        <time>2016-07-25T09:42:44Z</time>
      </trkpt>
      <trkpt lat="47.67369" lon="-3.19738">
        <ele>-0.34</ele>
        <time>2016-07-25T09:43:06Z</time>
      </trkpt>
      <trkpt lat="47.67367" lon="-3.19738">
        <ele>0.14</ele>
        <time>2016-07-25T09:43:14Z</time>
      </trkpt>
      <trkpt lat="47.67364" lon="-3.19739">
        <ele>0.62</ele>
        <time>2016-07-25T09:43:18Z</time>
      </trkpt>
      <trkpt lat="47.67354" lon="-3.19728">
        <ele>2.54</ele>
        <time>2016-07-25T09:43:33Z</time>
      </trkpt>
      <trkpt lat="47.67345" lon="-3.19724">
        <ele>3.98</ele>
        <time>2016-07-25T09:43:47Z</time>
      </trkpt>
      <trkpt lat="47.67344" lon="-3.19726">
        <ele>4.46</ele>
        <time>2016-07-25T09:43:50Z</time>
      </trkpt>
      <trkpt lat="47.67338" lon="-3.19739">
        <ele>5.42</ele>
        <time>2016-07-25T09:44:02Z</time>
      </trkpt>
      <trkpt lat="47.67329" lon="-3.19749">
        <ele>6.87</ele>
        <time>2016-07-25T09:44:18Z</time>
      </trkpt>
      <trkpt lat="47.67322" lon="-3.19764">
        <ele>6.87</ele>
        <time>2016-07-25T09:44:32Z</time>
      </trkpt>
      <trkpt lat="47.67324" lon="-3.19762">
        <ele>6.39</ele>
        <time>2016-07-25T09:44:48Z</time>
      </trkpt>
      <trkpt lat="47.67324" lon="-3.19764">
        <ele>6.39</ele>
        <time>2016-07-25T09:44:49Z</time>
      </trkpt>
      <trkpt lat="47.67322" lon="-3.19767">
        <ele>5.91</ele>
        <time>2016-07-25T09:44:52Z</time>
      </trkpt>
      <trkpt lat="47.67318" lon="-3.19772">
        <ele>5.42</ele>
        <time>2016-07-25T09:44:56Z</time>
      </trkpt>
      <trkpt lat="47.67312" lon="-3.1979">
        <ele>4.94</ele>
        <time>2016-07-25T09:45:08Z</time>
      </trkpt>
      <trkpt lat="47.67307" lon="-3.19816">
        <ele>4.46</ele>
        <time>2016-07-25T09:45:23Z</time>
      </trkpt>
      <trkpt lat="47.67298" lon="-3.19834">
        <ele>3.5</ele>
        <time>2016-07-25T09:45:35Z</time>
      </trkpt>
      <trkpt lat="47.67288" lon="-3.19857">
        <ele>3.5</ele>
        <time>2016-07-25T09:45:51Z</time>
      </trkpt>
      <trkpt lat="47.67282" lon="-3.19878">
        <ele>4.94</ele>
        <time>2016-07-25T09:46:04Z</time>
      </trkpt>
      <trkpt lat="47.6728" lon="-3.19892">
        <ele>4.94</ele>
        <time>2016-07-25T09:46:12Z</time>
      </trkpt>
      <trkpt lat="47.67271" lon="-3.19897">
        <ele>5.91</ele>
        <time>2016-07-25T09:46:25Z</time>
      </trkpt>
      <trkpt lat="47.6727" lon="-3.19898">
        <ele>5.91</ele>
        <time>2016-07-25T09:46:26Z</time>
      </trkpt>
      <trkpt lat="47.67268" lon="-3.19901">
        <ele>6.39</ele>
        <time>2016-07-25T09:46:30Z</time>
      </trkpt>
      <trkpt lat="47.67262" lon="-3.19903">
        <ele>7.35</ele>
        <time>2016-07-25T09:46:43Z</time>
      </trkpt>
      <trkpt lat="47.67261" lon="-3.19902">
        <ele>7.83</ele>
        <time>2016-07-25T09:46:59Z</time>
      </trkpt>
      <trkpt lat="47.67259" lon="-3.19898">
        <ele>7.83</ele>
        <time>2016-07-25T09:47:03Z</time>
      </trkpt>
      <trkpt lat="47.67249" lon="-3.19897">
        <ele>7.83</ele>
        <time>2016-07-25T09:47:15Z</time>
      </trkpt>
      <trkpt lat="47.67245" lon="-3.19901">
        <ele>7.35</ele>
        <time>2016-07-25T09:47:20Z</time>
      </trkpt>
      <trkpt lat="47.67239" lon="-3.1991">
        <ele>6.87</ele>
        <time>2016-07-25T09:47:30Z</time>
      </trkpt>
      <trkpt lat="47.67237" lon="-3.19914">
        <ele>7.83</ele>
        <time>2016-07-25T09:47:37Z</time>
      </trkpt>
      <trkpt lat="47.67234" lon="-3.1992">
        <ele>8.31</ele>
        <time>2016-07-25T09:47:42Z</time>
      </trkpt>
      <trkpt lat="47.67231" lon="-3.19925">
        <ele>8.31</ele>
        <time>2016-07-25T09:47:46Z</time>
      </trkpt>
      <trkpt lat="47.67226" lon="-3.19931">
        <ele>8.79</ele>
        <time>2016-07-25T09:47:54Z</time>
      </trkpt>
      <trkpt lat="47.67214" lon="-3.19941">
        <ele>9.75</ele>
        <time>2016-07-25T09:48:05Z</time>
      </trkpt>
      <trkpt lat="47.67205" lon="-3.19946">
        <ele>12.15</ele>
        <time>2016-07-25T09:48:19Z</time>
      </trkpt>
      <trkpt lat="47.67203" lon="-3.19943">
        <ele>12.15</ele>
        <time>2016-07-25T09:48:23Z</time>
      </trkpt>
      <trkpt lat="47.67189" lon="-3.19927">
        <ele>13.6</ele>
        <time>2016-07-25T09:48:40Z</time>
      </trkpt>
      <trkpt lat="47.67187" lon="-3.19924">
        <ele>14.08</ele>
        <time>2016-07-25T09:48:42Z</time>
      </trkpt>
      <trkpt lat="47.67181" lon="-3.19919">
        <ele>14.08</ele>
        <time>2016-07-25T09:48:48Z</time>
      </trkpt>
      <trkpt lat="47.67176" lon="-3.19916">
        <ele>14.56</ele>
        <time>2016-07-25T09:48:52Z</time>
      </trkpt>
      <trkpt lat="47.67173" lon="-3.1991">
        <ele>15.52</ele>
        <time>2016-07-25T09:48:57Z</time>
      </trkpt>
      <trkpt lat="47.67164" lon="-3.19896">
        <ele>19.36</ele>
        <time>2016-07-25T09:49:12Z</time>
      </trkpt>
      <trkpt lat="47.67156" lon="-3.19886">
        <ele>19.84</ele>
        <time>2016-07-25T09:49:21Z</time>
      </trkpt>
      <trkpt lat="47.6715" lon="-3.19888">
        <ele>20.81</ele>
        <time>2016-07-25T09:49:38Z</time>
      </trkpt>
      <trkpt lat="47.67145" lon="-3.19887">
        <ele>16</ele>
        <time>2016-07-25T09:50:00Z</time>
      </trkpt>
      <trkpt lat="47.67144" lon="-3.19892">
        <ele>15.04</ele>
        <time>2016-07-25T09:50:04Z</time>
      </trkpt>
      <trkpt lat="47.67126" lon="-3.19912">
        <ele>10.71</ele>
        <time>2016-07-25T09:50:19Z</time>
      </trkpt>
      <trkpt lat="47.67113" lon="-3.19928">
        <ele>8.31</ele>
        <time>2016-07-25T09:50:33Z</time>
      </trkpt>
      <trkpt lat="47.67104" lon="-3.19943">
        <ele>8.31</ele>
        <time>2016-07-25T09:50:45Z</time>
      </trkpt>
      <trkpt lat="47.67089" lon="-3.19959">
        <ele>6.39</ele>
        <time>2016-07-25T09:51:02Z</time>
      </trkpt>
      <trkpt lat="47.67081" lon="-3.1997">
        <ele>6.39</ele>
        <time>2016-07-25T09:51:16Z</time>
      </trkpt>
      <trkpt lat="47.67082" lon="-3.19972">
        <ele>6.87</ele>
        <time>2016-07-25T09:51:19Z</time>
      </trkpt>
      <trkpt lat="47.67089" lon="-3.19986">
        <ele>7.35</ele>
        <time>2016-07-25T09:51:25Z</time>
      </trkpt>
      <trkpt lat="47.67103" lon="-3.20009">
        <ele>7.83</ele>
        <time>2016-07-25T09:51:40Z</time>
      </trkpt>
      <trkpt lat="47.67112" lon="-3.20023">
        <ele>5.42</ele>
        <time>2016-07-25T09:51:52Z</time>
      </trkpt>
      <trkpt lat="47.67123" lon="-3.20032">
        <ele>5.91</ele>
        <time>2016-07-25T09:52:01Z</time>
      </trkpt>
      <trkpt lat="47.67136" lon="-3.20051">
        <ele>7.35</ele>
        <time>2016-07-25T09:52:16Z</time>
      </trkpt>
      <trkpt lat="47.67148" lon="-3.20072">
        <ele>9.75</ele>
        <time>2016-07-25T09:52:31Z</time>
      </trkpt>
      <trkpt lat="47.6716" lon="-3.20083">
        <ele>10.23</ele>
        <time>2016-07-25T09:52:44Z</time>
      </trkpt>
      <trkpt lat="47.67167" lon="-3.20094">
        <ele>8.79</ele>
        <time>2016-07-25T09:52:53Z</time>
      </trkpt>
      <trkpt lat="47.67173" lon="-3.20121">
        <ele>7.83</ele>
        <time>2016-07-25T09:53:09Z</time>
      </trkpt>
      <trkpt lat="47.67173" lon="-3.20134">
        <ele>7.83</ele>
        <time>2016-07-25T09:53:16Z</time>
      </trkpt>
      <trkpt lat="47.67179" lon="-3.20158">
        <ele>6.87</ele>
        <time>2016-07-25T09:53:31Z</time>
      </trkpt>
      <trkpt lat="47.67181" lon="-3.20177">
        <ele>6.39</ele>
        <time>2016-07-25T09:53:46Z</time>
      </trkpt>
      <trkpt lat="47.67181" lon="-3.20182">
        <ele>4.94</ele>
        <time>2016-07-25T09:53:51Z</time>
      </trkpt>
      <trkpt lat="47.67182" lon="-3.20195">
        <ele>3.98</ele>
        <time>2016-07-25T09:54:03Z</time>
      </trkpt>
      <trkpt lat="47.67185" lon="-3.20199">
        <ele>3.5</ele>
        <time>2016-07-25T09:54:16Z</time>
      </trkpt>
      <trkpt lat="47.67186" lon="-3.20197">
        <ele>3.02</ele>
        <time>2016-07-25T09:54:32Z</time>
      </trkpt>
      <trkpt lat="47.67187" lon="-3.20198">
        <ele>2.54</ele>
        <time>2016-07-25T09:54:48Z</time>
      </trkpt>
      <trkpt lat="47.67187" lon="-3.202">
        <ele>3.02</ele>
        <time>2016-07-25T09:55:05Z</time>
      </trkpt>
      <trkpt lat="47.67183" lon="-3.20198">
        <ele>3.02</ele>
        <time>2016-07-25T09:55:15Z</time>
      </trkpt>
      <trkpt lat="47.67184" lon="-3.20197">
        <ele>3.5</ele>
        <time>2016-07-25T09:55:35Z</time>
      </trkpt>
      <trkpt lat="47.67183" lon="-3.20198">
        <ele>4.46</ele>
        <time>2016-07-25T09:56:10Z</time>
      </trkpt>
      <trkpt lat="47.67185" lon="-3.20198">
        <ele>4.46</ele>
        <time>2016-07-25T09:56:45Z</time>
      </trkpt>
      <trkpt lat="47.67186" lon="-3.20198">
        <ele>4.94</ele>
        <time>2016-07-25T09:57:18Z</time>
      </trkpt>
      <trkpt lat="47.67184" lon="-3.202">
        <ele>5.91</ele>
        <time>2016-07-25T09:57:50Z</time>
      </trkpt>
      <trkpt lat="47.67184" lon="-3.20197">
        <ele>4.94</ele>
        <time>2016-07-25T09:58:10Z</time>
      </trkpt>
      <trkpt lat="47.67182" lon="-3.20195">
        <ele>4.46</ele>
        <time>2016-07-25T09:58:20Z</time>
      </trkpt>
      <trkpt lat="47.67175" lon="-3.2019">
        <ele>4.46</ele>
        <time>2016-07-25T09:58:27Z</time>
      </trkpt>
      <trkpt lat="47.67171" lon="-3.20189">
        <ele>4.46</ele>
        <time>2016-07-25T09:58:32Z</time>
      </trkpt>
      <trkpt lat="47.67164" lon="-3.20184">
        <ele>3.98</ele>
        <time>2016-07-25T09:58:39Z</time>
      </trkpt>
      <trkpt lat="47.67147" lon="-3.20183">
        <ele>3.02</ele>
        <time>2016-07-25T09:58:55Z</time>
      </trkpt>
      <trkpt lat="47.67131" lon="-3.20175">
        <ele>-0.34</ele>
        <time>2016-07-25T09:59:10Z</time>
      </trkpt>
      <trkpt lat="47.67119" lon="-3.20168">
        <ele>0.14</ele>
        <time>2016-07-25T09:59:23Z</time>
      </trkpt>
      <trkpt lat="47.67107" lon="-3.20148">
        <ele>2.06</ele>
        <time>2016-07-25T09:59:39Z</time>
      </trkpt>
      <trkpt lat="47.67099" lon="-3.2014">
        <ele>0.62</ele>
        <time>2016-07-25T09:59:48Z</time>
      </trkpt>
      <trkpt lat="47.67096" lon="-3.20138">
        <ele>0.14</ele>
        <time>2016-07-25T09:59:51Z</time>
      </trkpt>
      <trkpt lat="47.67076" lon="-3.20132">
        <ele>0.14</ele>
        <time>2016-07-25T10:00:06Z</time>
      </trkpt>
      <trkpt lat="47.67067" lon="-3.20133">
        <ele>5.42</ele>
        <time>2016-07-25T10:00:20Z</time>
      </trkpt>
      <trkpt lat="47.67061" lon="-3.20139">
        <ele>5.42</ele>
        <time>2016-07-25T10:00:37Z</time>
      </trkpt>
      <trkpt lat="47.67052" lon="-3.20146">
        <ele>4.94</ele>
        <time>2016-07-25T10:00:45Z</time>
      </trkpt>
      <trkpt lat="47.67045" lon="-3.20146">
        <ele>3.02</ele>
        <time>2016-07-25T10:00:52Z</time>
      </trkpt>
      <trkpt lat="47.67029" lon="-3.20142">
        <ele>-1.79</ele>
        <time>2016-07-25T10:01:08Z</time>
      </trkpt>
      <trkpt lat="47.67019" lon="-3.2014">
        <ele>0.14</ele>
        <time>2016-07-25T10:01:24Z</time>
      </trkpt>
      <trkpt lat="47.67008" lon="-3.20143">
        <ele>1.58</ele>
        <time>2016-07-25T10:01:40Z</time>
      </trkpt>
      <trkpt lat="47.66998" lon="-3.20151">
        <ele>2.06</ele>
        <time>2016-07-25T10:01:53Z</time>
      </trkpt>
      <trkpt lat="47.66994" lon="-3.20182">
        <ele>3.02</ele>
        <time>2016-07-25T10:02:08Z</time>
      </trkpt>
      <trkpt lat="47.66992" lon="-3.20204">
        <ele>4.46</ele>
        <time>2016-07-25T10:02:18Z</time>
      </trkpt>
      <trkpt lat="47.67" lon="-3.20232">
        <ele>4.46</ele>
        <time>2016-07-25T10:02:34Z</time>
      </trkpt>
      <trkpt lat="47.67005" lon="-3.20252">
        <ele>4.46</ele>
        <time>2016-07-25T10:02:46Z</time>
      </trkpt>
      <trkpt lat="47.67006" lon="-3.20256">
        <ele>4.46</ele>
        <time>2016-07-25T10:02:49Z</time>
      </trkpt>
      <trkpt lat="47.67011" lon="-3.2026">
        <ele>2.54</ele>
        <time>2016-07-25T10:03:00Z</time>
      </trkpt>
      <trkpt lat="47.67011" lon="-3.2026">
        <ele>4.94</ele>
        <time>2016-07-25T10:03:15Z</time>
      </trkpt>
      <trkpt lat="47.67011" lon="-3.20271">
        <ele>5.91</ele>
        <time>2016-07-25T10:03:25Z</time>
      </trkpt>
      <trkpt lat="47.67014" lon="-3.20302">
        <ele>4.94</ele>
        <time>2016-07-25T10:03:42Z</time>
      </trkpt>
      <trkpt lat="47.67021" lon="-3.20331">
        <ele>4.94</ele>
        <time>2016-07-25T10:03:59Z</time>
      </trkpt>
      <trkpt lat="47.6702" lon="-3.20341">
        <ele>3.98</ele>
        <time>2016-07-25T10:04:05Z</time>
      </trkpt>
      <trkpt lat="47.67016" lon="-3.20349">
        <ele>4.46</ele>
        <time>2016-07-25T10:04:21Z</time>
      </trkpt>
      <trkpt lat="47.67015" lon="-3.20349">
        <ele>5.91</ele>
        <time>2016-07-25T10:04:33Z</time>
      </trkpt>
      <trkpt lat="47.67006" lon="-3.20346">
        <ele>4.46</ele>
        <time>2016-07-25T10:04:46Z</time>
      </trkpt>
      <trkpt lat="47.66991" lon="-3.2034">
        <ele>3.98</ele>
        <time>2016-07-25T10:05:00Z</time>
      </trkpt>
      <trkpt lat="47.66984" lon="-3.20339">
        <ele>4.94</ele>
        <time>2016-07-25T10:05:16Z</time>
      </trkpt>
      <trkpt lat="47.6697" lon="-3.20346">
        <ele>3.98</ele>
        <time>2016-07-25T10:05:30Z</time>
      </trkpt>
      <trkpt lat="47.66956" lon="-3.20354">
        <ele>3.98</ele>
        <time>2016-07-25T10:05:42Z</time>
      </trkpt>
      <trkpt lat="47.66949" lon="-3.20363">
        <ele>4.46</ele>
        <time>2016-07-25T10:05:51Z</time>
      </trkpt>
      <trkpt lat="47.66945" lon="-3.20372">
        <ele>5.91</ele>
        <time>2016-07-25T10:06:04Z</time>
      </trkpt>
      <trkpt lat="47.66937" lon="-3.2039">
        <ele>5.91</ele>
        <time>2016-07-25T10:06:18Z</time>
      </trkpt>
      <trkpt lat="47.66926" lon="-3.20416">
        <ele>4.46</ele>
        <time>2016-07-25T10:06:36Z</time>
      </trkpt>
      <trkpt lat="47.66916" lon="-3.20434">
        <ele>2.54</ele>
        <time>2016-07-25T10:06:50Z</time>
      </trkpt>
      <trkpt lat="47.66908" lon="-3.20446">
        <ele>-0.34</ele>
        <time>2016-07-25T10:07:01Z</time>
      </trkpt>
      <trkpt lat="47.66908" lon="-3.20458">
        <ele>-0.34</ele>
        <time>2016-07-25T10:07:08Z</time>
      </trkpt>
      <trkpt lat="47.66921" lon="-3.2048">
        <ele>-1.3</ele>
        <time>2016-07-25T10:07:26Z</time>
      </trkpt>
      <trkpt lat="47.66934" lon="-3.20497">
        <ele>-1.3</ele>
        <time>2016-07-25T10:07:39Z</time>
      </trkpt>
      <trkpt lat="47.66949" lon="-3.20508">
        <ele>1.1</ele>
        <time>2016-07-25T10:07:52Z</time>
      </trkpt>
      <trkpt lat="47.66968" lon="-3.20506">
        <ele>3.5</ele>
        <time>2016-07-25T10:08:06Z</time>
      </trkpt>
      <trkpt lat="47.6697" lon="-3.20504">
        <ele>5.42</ele>
        <time>2016-07-25T10:08:19Z</time>
      </trkpt>
      <trkpt lat="47.66976" lon="-3.20504">
        <ele>3.98</ele>
        <time>2016-07-25T10:08:35Z</time>
      </trkpt>
      <trkpt lat="47.66984" lon="-3.205">
        <ele>3.5</ele>
        <time>2016-07-25T10:08:48Z</time>
      </trkpt>
      <trkpt lat="47.6699" lon="-3.20504">
        <ele>4.94</ele>
        <time>2016-07-25T10:09:02Z</time>
      </trkpt>
      <trkpt lat="47.66993" lon="-3.20508">
        <ele>4.46</ele>
        <time>2016-07-25T10:09:24Z</time>
      </trkpt>
      <trkpt lat="47.66996" lon="-3.20515">
        <ele>3.5</ele>
        <time>2016-07-25T10:09:29Z</time>
      </trkpt>
      <trkpt lat="47.66999" lon="-3.20519">
        <ele>3.5</ele>
        <time>2016-07-25T10:09:46Z</time>
      </trkpt>
      <trkpt lat="47.66997" lon="-3.20519">
        <ele>3.5</ele>
        <time>2016-07-25T10:09:49Z</time>
      </trkpt>
      <trkpt lat="47.6699" lon="-3.20526">
        <ele>3.5</ele>
        <time>2016-07-25T10:09:56Z</time>
      </trkpt>
      <trkpt lat="47.66987" lon="-3.2053">
        <ele>3.5</ele>
        <time>2016-07-25T10:10:00Z</time>
      </trkpt>
      <trkpt lat="47.66986" lon="-3.20534">
        <ele>3.98</ele>
        <time>2016-07-25T10:10:02Z</time>
      </trkpt>
      <trkpt lat="47.66985" lon="-3.20536">
        <ele>3.5</ele>
        <time>2016-07-25T10:10:04Z</time>
      </trkpt>
      <trkpt lat="47.66983" lon="-3.20539">
        <ele>3.98</ele>
        <time>2016-07-25T10:10:06Z</time>
      </trkpt>
      <trkpt lat="47.66978" lon="-3.20553">
        <ele>5.42</ele>
        <time>2016-07-25T10:10:16Z</time>
      </trkpt>
      <trkpt lat="47.66975" lon="-3.20562">
        <ele>5.91</ele>
        <time>2016-07-25T10:10:25Z</time>
      </trkpt>
      <trkpt lat="47.66975" lon="-3.20565">
        <ele>5.91</ele>
        <time>2016-07-25T10:10:27Z</time>
      </trkpt>
      <trkpt lat="47.66975" lon="-3.20569">
        <ele>5.91</ele>
        <time>2016-07-25T10:10:29Z</time>
      </trkpt>
      <trkpt lat="47.66971" lon="-3.2059">
        <ele>7.35</ele>
        <time>2016-07-25T10:10:42Z</time>
      </trkpt>
      <trkpt lat="47.66975" lon="-3.20597">
        <ele>4.94</ele>
        <time>2016-07-25T10:10:54Z</time>
      </trkpt>
      <trkpt lat="47.66977" lon="-3.20603">
        <ele>3.98</ele>
        <time>2016-07-25T10:11:00Z</time>
      </trkpt>
      <trkpt lat="47.66984" lon="-3.20616">
        <ele>2.54</ele>
        <time>2016-07-25T10:11:10Z</time>
      </trkpt>
      <trkpt lat="47.66998" lon="-3.20624">
        <ele>-0.34</ele>
        <time>2016-07-25T10:11:26Z</time>
      </trkpt>
      <trkpt lat="47.67005" lon="-3.20634">
        <ele>2.54</ele>
        <time>2016-07-25T10:11:40Z</time>
      </trkpt>
      <trkpt lat="47.67009" lon="-3.20654">
        <ele>2.54</ele>
        <time>2016-07-25T10:11:54Z</time>
      </trkpt>
      <trkpt lat="47.67011" lon="-3.20659">
        <ele>2.54</ele>
        <time>2016-07-25T10:11:57Z</time>
      </trkpt>
      <trkpt lat="47.67011" lon="-3.20662">
        <ele>2.54</ele>
        <time>2016-07-25T10:11:59Z</time>
      </trkpt>
      <trkpt lat="47.6701" lon="-3.20672">
        <ele>3.98</ele>
        <time>2016-07-25T10:12:13Z</time>
      </trkpt>
      <trkpt lat="47.67009" lon="-3.20671">
        <ele>4.94</ele>
        <time>2016-07-25T10:12:41Z</time>
      </trkpt>
      <trkpt lat="47.67008" lon="-3.20671">
        <ele>4.94</ele>
        <time>2016-07-25T10:12:43Z</time>
      </trkpt>
      <trkpt lat="47.67001" lon="-3.20676">
        <ele>4.94</ele>
        <time>2016-07-25T10:12:50Z</time>
      </trkpt>
      <trkpt lat="47.66995" lon="-3.20676">
        <ele>4.94</ele>
        <time>2016-07-25T10:13:01Z</time>
      </trkpt>
      <trkpt lat="47.66992" lon="-3.20677">
        <ele>3.98</ele>
        <time>2016-07-25T10:13:20Z</time>
      </trkpt>
      <trkpt lat="47.66991" lon="-3.20676">
        <ele>5.42</ele>
        <time>2016-07-25T10:13:27Z</time>
      </trkpt>
      <trkpt lat="47.66987" lon="-3.20673">
        <ele>5.42</ele>
        <time>2016-07-25T10:13:33Z</time>
      </trkpt>
      <trkpt lat="47.66979" lon="-3.20681">
        <ele>5.42</ele>
        <time>2016-07-25T10:13:43Z</time>
      </trkpt>
      <trkpt lat="47.66976" lon="-3.2069">
        <ele>3.98</ele>
        <time>2016-07-25T10:13:57Z</time>
      </trkpt>
      <trkpt lat="47.66979" lon="-3.20687">
        <ele>4.94</ele>
        <time>2016-07-25T10:14:09Z</time>
      </trkpt>
      <trkpt lat="47.66976" lon="-3.2069">
        <ele>5.42</ele>
        <time>2016-07-25T10:14:29Z</time>
      </trkpt>
      <trkpt lat="47.6697" lon="-3.20703">
        <ele>6.87</ele>
        <time>2016-07-25T10:14:39Z</time>
      </trkpt>
      <trkpt lat="47.66971" lon="-3.20729">
        <ele>6.87</ele>
        <time>2016-07-25T10:14:53Z</time>
      </trkpt>
      <trkpt lat="47.66973" lon="-3.20739">
        <ele>8.31</ele>
        <time>2016-07-25T10:15:04Z</time>
      </trkpt>
      <trkpt lat="47.66985" lon="-3.20757">
        <ele>5.42</ele>
        <time>2016-07-25T10:15:19Z</time>
      </trkpt>
      <trkpt lat="47.66987" lon="-3.20764">
        <ele>5.42</ele>
        <time>2016-07-25T10:15:23Z</time>
      </trkpt>
      <trkpt lat="47.66985" lon="-3.20778">
        <ele>6.87</ele>
        <time>2016-07-25T10:15:40Z</time>
      </trkpt>
      <trkpt lat="47.66986" lon="-3.20781">
        <ele>6.87</ele>
        <time>2016-07-25T10:15:54Z</time>
      </trkpt>
      <trkpt lat="47.66987" lon="-3.20798">
        <ele>5.91</ele>
        <time>2016-07-25T10:16:07Z</time>
      </trkpt>
      <trkpt lat="47.66988" lon="-3.20804">
        <ele>4.94</ele>
        <time>2016-07-25T10:16:11Z</time>
      </trkpt>
      <trkpt lat="47.6699" lon="-3.20807">
        <ele>4.94</ele>
        <time>2016-07-25T10:16:26Z</time>
      </trkpt>
      <trkpt lat="47.66992" lon="-3.20825">
        <ele>5.42</ele>
        <time>2016-07-25T10:16:40Z</time>
      </trkpt>
      <trkpt lat="47.66993" lon="-3.20832">
        <ele>5.91</ele>
        <time>2016-07-25T10:16:44Z</time>
      </trkpt>
      <trkpt lat="47.66993" lon="-3.20843">
        <ele>6.39</ele>
        <time>2016-07-25T10:16:51Z</time>
      </trkpt>
      <trkpt lat="47.66988" lon="-3.20847">
        <ele>6.87</ele>
        <time>2016-07-25T10:16:57Z</time>
      </trkpt>
      <trkpt lat="47.66981" lon="-3.20844">
        <ele>6.87</ele>
        <time>2016-07-25T10:17:04Z</time>
      </trkpt>
      <trkpt lat="47.66972" lon="-3.20846">
        <ele>6.87</ele>
        <time>2016-07-25T10:17:15Z</time>
      </trkpt>
      <trkpt lat="47.6696" lon="-3.20859">
        <ele>7.35</ele>
        <time>2016-07-25T10:17:29Z</time>
      </trkpt>
      <trkpt lat="47.6696" lon="-3.20861">
        <ele>6.87</ele>
        <time>2016-07-25T10:17:30Z</time>
      </trkpt>
      <trkpt lat="47.66956" lon="-3.20863">
        <ele>6.87</ele>
        <time>2016-07-25T10:17:34Z</time>
      </trkpt>
      <trkpt lat="47.66951" lon="-3.20861">
        <ele>6.87</ele>
        <time>2016-07-25T10:17:43Z</time>
      </trkpt>
      <trkpt lat="47.66932" lon="-3.2087">
        <ele>6.39</ele>
        <time>2016-07-25T10:17:58Z</time>
      </trkpt>
      <trkpt lat="47.66916" lon="-3.20885">
        <ele>7.35</ele>
        <time>2016-07-25T10:18:13Z</time>
      </trkpt>
      <trkpt lat="47.66896" lon="-3.20892">
        <ele>6.87</ele>
        <time>2016-07-25T10:18:29Z</time>
      </trkpt>
      <trkpt lat="47.66876" lon="-3.2088">
        <ele>6.39</ele>
        <time>2016-07-25T10:18:46Z</time>
      </trkpt>
      <trkpt lat="47.66852" lon="-3.20881">
        <ele>4.94</ele>
        <time>2016-07-25T10:19:06Z</time>
      </trkpt>
      <trkpt lat="47.66841" lon="-3.20882">
        <ele>5.42</ele>
        <time>2016-07-25T10:19:19Z</time>
      </trkpt>
      <trkpt lat="47.66828" lon="-3.20881">
        <ele>5.91</ele>
        <time>2016-07-25T10:19:32Z</time>
      </trkpt>
      <trkpt lat="47.6682" lon="-3.20881">
        <ele>5.91</ele>
        <time>2016-07-25T10:19:38Z</time>
      </trkpt>
      <trkpt lat="47.66815" lon="-3.20883">
        <ele>5.42</ele>
        <time>2016-07-25T10:19:42Z</time>
      </trkpt>
      <trkpt lat="47.66808" lon="-3.20883">
        <ele>5.42</ele>
        <time>2016-07-25T10:19:49Z</time>
      </trkpt>
      <trkpt lat="47.66802" lon="-3.20883">
        <ele>6.87</ele>
        <time>2016-07-25T10:20:02Z</time>
      </trkpt>
      <trkpt lat="47.66797" lon="-3.20884">
        <ele>2.54</ele>
        <time>2016-07-25T10:20:13Z</time>
      </trkpt>
      <trkpt lat="47.66796" lon="-3.20885">
        <ele>-0.34</ele>
        <time>2016-07-25T10:20:25Z</time>
      </trkpt>
      <trkpt lat="47.66786" lon="-3.20888">
        <ele>-0.34</ele>
        <time>2016-07-25T10:20:32Z</time>
      </trkpt>
      <trkpt lat="47.66765" lon="-3.20885">
        <ele>5.91</ele>
        <time>2016-07-25T10:20:51Z</time>
      </trkpt>
      <trkpt lat="47.66751" lon="-3.2088">
        <ele>7.35</ele>
        <time>2016-07-25T10:21:03Z</time>
      </trkpt>
      <trkpt lat="47.6674" lon="-3.20872">
        <ele>6.39</ele>
        <time>2016-07-25T10:21:19Z</time>
      </trkpt>
      <trkpt lat="47.66738" lon="-3.20868">
        <ele>6.87</ele>
        <time>2016-07-25T10:21:48Z</time>
      </trkpt>
      <trkpt lat="47.66733" lon="-3.20866">
        <ele>7.35</ele>
        <time>2016-07-25T10:22:09Z</time>
      </trkpt>
      <trkpt lat="47.66716" lon="-3.2087">
        <ele>8.31</ele>
        <time>2016-07-25T10:22:23Z</time>
      </trkpt>
      <trkpt lat="47.66704" lon="-3.20881">
        <ele>8.31</ele>
        <time>2016-07-25T10:22:33Z</time>
      </trkpt>
      <trkpt lat="47.66699" lon="-3.20892">
        <ele>8.31</ele>
        <time>2016-07-25T10:22:44Z</time>
      </trkpt>
      <trkpt lat="47.66688" lon="-3.20896">
        <ele>7.35</ele>
        <time>2016-07-25T10:22:59Z</time>
      </trkpt>
      <trkpt lat="47.66682" lon="-3.20895">
        <ele>6.87</ele>
        <time>2016-07-25T10:23:21Z</time>
      </trkpt>
      <trkpt lat="47.66681" lon="-3.20895">
        <ele>6.87</ele>
        <time>2016-07-25T10:23:22Z</time>
      </trkpt>
      <trkpt lat="47.66676" lon="-3.20893">
        <ele>6.39</ele>
        <time>2016-07-25T10:23:28Z</time>
      </trkpt>
      <trkpt lat="47.66666" lon="-3.20883">
        <ele>5.91</ele>
        <time>2016-07-25T10:23:43Z</time>
      </trkpt>
      <trkpt lat="47.66666" lon="-3.20883">
        <ele>5.91</ele>
        <time>2016-07-25T10:23:46Z</time>
      </trkpt>
      <trkpt lat="47.66664" lon="-3.2088">
        <ele>5.42</ele>
        <time>2016-07-25T10:23:49Z</time>
      </trkpt>
      <trkpt lat="47.66663" lon="-3.20879">
        <ele>6.39</ele>
        <time>2016-07-25T10:24:00Z</time>
      </trkpt>
      <trkpt lat="47.66662" lon="-3.20879">
        <ele>7.83</ele>
        <time>2016-07-25T10:24:22Z</time>
      </trkpt>
      <trkpt lat="47.66657" lon="-3.20866">
        <ele>7.83</ele>
        <time>2016-07-25T10:24:46Z</time>
      </trkpt>
      <trkpt lat="47.66654" lon="-3.20846">
        <ele>5.91</ele>
        <time>2016-07-25T10:24:58Z</time>
      </trkpt>
      <trkpt lat="47.66654" lon="-3.20836">
        <ele>5.91</ele>
        <time>2016-07-25T10:25:04Z</time>
      </trkpt>
      <trkpt lat="47.66645" lon="-3.20816">
        <ele>5.91</ele>
        <time>2016-07-25T10:25:19Z</time>
      </trkpt>
      <trkpt lat="47.66644" lon="-3.20803">
        <ele>4.94</ele>
        <time>2016-07-25T10:25:26Z</time>
      </trkpt>
      <trkpt lat="47.66641" lon="-3.20773">
        <ele>4.94</ele>
        <time>2016-07-25T10:25:43Z</time>
      </trkpt>
      <trkpt lat="47.66641" lon="-3.20768">
        <ele>4.46</ele>
        <time>2016-07-25T10:25:46Z</time>
      </trkpt>
      <trkpt lat="47.66641" lon="-3.20764">
        <ele>4.46</ele>
        <time>2016-07-25T10:25:48Z</time>
      </trkpt>
      <trkpt lat="47.66642" lon="-3.20744">
        <ele>3.98</ele>
        <time>2016-07-25T10:26:00Z</time>
      </trkpt>
      <trkpt lat="47.6664" lon="-3.20728">
        <ele>3.5</ele>
        <time>2016-07-25T10:26:09Z</time>
      </trkpt>
      <trkpt lat="47.66647" lon="-3.20703">
        <ele>3.98</ele>
        <time>2016-07-25T10:26:24Z</time>
      </trkpt>
      <trkpt lat="47.66648" lon="-3.207">
        <ele>3.98</ele>
        <time>2016-07-25T10:26:26Z</time>
      </trkpt>
      <trkpt lat="47.6666" lon="-3.20688">
        <ele>5.42</ele>
        <time>2016-07-25T10:26:38Z</time>
      </trkpt>
      <trkpt lat="47.66661" lon="-3.20687">
        <ele>6.39</ele>
        <time>2016-07-25T10:26:51Z</time>
      </trkpt>
      <trkpt lat="47.66664" lon="-3.20687">
        <ele>6.87</ele>
        <time>2016-07-25T10:26:55Z</time>
      </trkpt>
      <trkpt lat="47.66667" lon="-3.20687">
        <ele>6.87</ele>
        <time>2016-07-25T10:26:58Z</time>
      </trkpt>
      <trkpt lat="47.66674" lon="-3.20688">
        <ele>7.83</ele>
        <time>2016-07-25T10:27:12Z</time>
      </trkpt>
      <trkpt lat="47.66688" lon="-3.20702">
        <ele>6.87</ele>
        <time>2016-07-25T10:27:26Z</time>
      </trkpt>
      <trkpt lat="47.66696" lon="-3.20711">
        <ele>7.35</ele>
        <time>2016-07-25T10:27:35Z</time>
      </trkpt>
      <trkpt lat="47.66709" lon="-3.20724">
        <ele>8.79</ele>
        <time>2016-07-25T10:27:51Z</time>
      </trkpt>
      <trkpt lat="47.66711" lon="-3.20726">
        <ele>8.79</ele>
        <time>2016-07-25T10:27:55Z</time>
      </trkpt>
      <trkpt lat="47.66719" lon="-3.20697">
        <ele>9.75</ele>
        <time>2016-07-25T10:28:12Z</time>
      </trkpt>
      <trkpt lat="47.66719" lon="-3.20688">
        <ele>9.75</ele>
        <time>2016-07-25T10:28:18Z</time>
      </trkpt>
      <trkpt lat="47.66716" lon="-3.2068">
        <ele>9.75</ele>
        <time>2016-07-25T10:28:24Z</time>
      </trkpt>
      <trkpt lat="47.66704" lon="-3.2067">
        <ele>9.75</ele>
        <time>2016-07-25T10:28:35Z</time>
      </trkpt>
      <trkpt lat="47.66689" lon="-3.20648">
        <ele>7.83</ele>
        <time>2016-07-25T10:28:50Z</time>
      </trkpt>
      <trkpt lat="47.66686" lon="-3.2062">
        <ele>5.42</ele>
        <time>2016-07-25T10:29:06Z</time>
      </trkpt>
      <trkpt lat="47.66685" lon="-3.20617">
        <ele>4.94</ele>
        <time>2016-07-25T10:29:08Z</time>
      </trkpt>
      <trkpt lat="47.66675" lon="-3.2059">
        <ele>3.5</ele>
        <time>2016-07-25T10:29:25Z</time>
      </trkpt>
      <trkpt lat="47.66671" lon="-3.2058">
        <ele>2.54</ele>
        <time>2016-07-25T10:29:32Z</time>
      </trkpt>
      <trkpt lat="47.66664" lon="-3.20578">
        <ele>1.1</ele>
        <time>2016-07-25T10:29:46Z</time>
      </trkpt>
      <trkpt lat="47.66665" lon="-3.20579">
        <ele>4.46</ele>
        <time>2016-07-25T10:30:13Z</time>
      </trkpt>
      <trkpt lat="47.66662" lon="-3.20577">
        <ele>4.46</ele>
        <time>2016-07-25T10:30:22Z</time>
      </trkpt>
      <trkpt lat="47.66655" lon="-3.20558">
        <ele>3.5</ele>
        <time>2016-07-25T10:30:34Z</time>
      </trkpt>
      <trkpt lat="47.66655" lon="-3.20553">
        <ele>3.5</ele>
        <time>2016-07-25T10:30:37Z</time>
      </trkpt>
      <trkpt lat="47.66658" lon="-3.20547">
        <ele>3.5</ele>
        <time>2016-07-25T10:30:44Z</time>
      </trkpt>
      <trkpt lat="47.66666" lon="-3.20537">
        <ele>3.5</ele>
        <time>2016-07-25T10:30:54Z</time>
      </trkpt>
      <trkpt lat="47.66667" lon="-3.20528">
        <ele>3.98</ele>
        <time>2016-07-25T10:30:59Z</time>
      </trkpt>
      <trkpt lat="47.66671" lon="-3.20516">
        <ele>3.98</ele>
        <time>2016-07-25T10:31:12Z</time>
      </trkpt>
      <trkpt lat="47.6668" lon="-3.20499">
        <ele>5.42</ele>
        <time>2016-07-25T10:31:25Z</time>
      </trkpt>
      <trkpt lat="47.66672" lon="-3.20488">
        <ele>4.94</ele>
        <time>2016-07-25T10:31:36Z</time>
      </trkpt>
      <trkpt lat="47.66666" lon="-3.20488">
        <ele>4.46</ele>
        <time>2016-07-25T10:31:40Z</time>
      </trkpt>
      <trkpt lat="47.66665" lon="-3.20482">
        <ele>4.94</ele>
        <time>2016-07-25T10:31:44Z</time>
      </trkpt>
      <trkpt lat="47.66665" lon="-3.20479">
        <ele>4.94</ele>
        <time>2016-07-25T10:31:46Z</time>
      </trkpt>
      <trkpt lat="47.66663" lon="-3.20468">
        <ele>4.46</ele>
        <time>2016-07-25T10:31:52Z</time>
      </trkpt>
      <trkpt lat="47.66657" lon="-3.20444">
        <ele>3.98</ele>
        <time>2016-07-25T10:32:08Z</time>
      </trkpt>
      <trkpt lat="47.66644" lon="-3.20429">
        <ele>3.98</ele>
        <time>2016-07-25T10:32:22Z</time>
      </trkpt>
      <trkpt lat="47.6664" lon="-3.20428">
        <ele>4.46</ele>
        <time>2016-07-25T10:32:25Z</time>
      </trkpt>
      <trkpt lat="47.66635" lon="-3.20423">
        <ele>4.94</ele>
        <time>2016-07-25T10:32:31Z</time>
      </trkpt>
      <trkpt lat="47.66634" lon="-3.20416">
        <ele>4.46</ele>
        <time>2016-07-25T10:32:36Z</time>
      </trkpt>
      <trkpt lat="47.66622" lon="-3.20401">
        <ele>3.02</ele>
        <time>2016-07-25T10:32:50Z</time>
      </trkpt>
      <trkpt lat="47.66619" lon="-3.20399">
        <ele>1.58</ele>
        <time>2016-07-25T10:32:56Z</time>
      </trkpt>
      <trkpt lat="47.66616" lon="-3.20397">
        <ele>0.62</ele>
        <time>2016-07-25T10:33:12Z</time>
      </trkpt>
      <trkpt lat="47.66615" lon="-3.20388">
        <ele>2.54</ele>
        <time>2016-07-25T10:33:30Z</time>
      </trkpt>
      <trkpt lat="47.66611" lon="-3.20382">
        <ele>2.06</ele>
        <time>2016-07-25T10:33:40Z</time>
      </trkpt>
      <trkpt lat="47.66611" lon="-3.20375">
        <ele>2.06</ele>
        <time>2016-07-25T10:33:45Z</time>
      </trkpt>
      <trkpt lat="47.66615" lon="-3.2037">
        <ele>1.58</ele>
        <time>2016-07-25T10:33:51Z</time>
      </trkpt>
      <trkpt lat="47.66624" lon="-3.20353">
        <ele>3.02</ele>
        <time>2016-07-25T10:34:07Z</time>
      </trkpt>
      <trkpt lat="47.66621" lon="-3.2035">
        <ele>3.5</ele>
        <time>2016-07-25T10:34:10Z</time>
      </trkpt>
      <trkpt lat="47.66612" lon="-3.20344">
        <ele>4.94</ele>
        <time>2016-07-25T10:34:19Z</time>
      </trkpt>
      <trkpt lat="47.66613" lon="-3.20335">
        <ele>4.46</ele>
        <time>2016-07-25T10:34:31Z</time>
      </trkpt>
      <trkpt lat="47.66608" lon="-3.20318">
        <ele>5.91</ele>
        <time>2016-07-25T10:34:42Z</time>
      </trkpt>
      <trkpt lat="47.6661" lon="-3.20306">
        <ele>5.91</ele>
        <time>2016-07-25T10:34:49Z</time>
      </trkpt>
      <trkpt lat="47.66613" lon="-3.203">
        <ele>5.91</ele>
        <time>2016-07-25T10:34:54Z</time>
      </trkpt>
      <trkpt lat="47.66618" lon="-3.20271">
        <ele>4.94</ele>
        <time>2016-07-25T10:35:10Z</time>
      </trkpt>
      <trkpt lat="47.66618" lon="-3.20262">
        <ele>4.94</ele>
        <time>2016-07-25T10:35:19Z</time>
      </trkpt>
      <trkpt lat="47.66618" lon="-3.20237">
        <ele>2.54</ele>
        <time>2016-07-25T10:35:33Z</time>
      </trkpt>
      <trkpt lat="47.6662" lon="-3.20231">
        <ele>3.5</ele>
        <time>2016-07-25T10:35:47Z</time>
      </trkpt>
      <trkpt lat="47.66622" lon="-3.20214">
        <ele>3.02</ele>
        <time>2016-07-25T10:36:02Z</time>
      </trkpt>
      <trkpt lat="47.66625" lon="-3.20201">
        <ele>2.54</ele>
        <time>2016-07-25T10:36:10Z</time>
      </trkpt>
      <trkpt lat="47.66627" lon="-3.20185">
        <ele>3.02</ele>
        <time>2016-07-25T10:36:19Z</time>
      </trkpt>
      <trkpt lat="47.66622" lon="-3.20158">
        <ele>1.1</ele>
        <time>2016-07-25T10:36:35Z</time>
      </trkpt>
      <trkpt lat="47.66622" lon="-3.20144">
        <ele>-1.3</ele>
        <time>2016-07-25T10:36:43Z</time>
      </trkpt>
      <trkpt lat="47.66616" lon="-3.2013">
        <ele>-3.71</ele>
        <time>2016-07-25T10:36:52Z</time>
      </trkpt>
      <trkpt lat="47.66594" lon="-3.20122">
        <ele>-4.19</ele>
        <time>2016-07-25T10:37:10Z</time>
      </trkpt>
      <trkpt lat="47.66577" lon="-3.20124">
        <ele>-4.67</ele>
        <time>2016-07-25T10:37:25Z</time>
      </trkpt>
      <trkpt lat="47.66576" lon="-3.20125">
        <ele>-4.67</ele>
        <time>2016-07-25T10:37:26Z</time>
      </trkpt>
      <trkpt lat="47.6657" lon="-3.20131">
        <ele>-1.79</ele>
        <time>2016-07-25T10:37:30Z</time>
      </trkpt>
      <trkpt lat="47.66562" lon="-3.20145">
        <ele>-0.34</ele>
        <time>2016-07-25T10:37:39Z</time>
      </trkpt>
      <trkpt lat="47.66559" lon="-3.20165">
        <ele>2.06</ele>
        <time>2016-07-25T10:37:52Z</time>
      </trkpt>
      <trkpt lat="47.66556" lon="-3.20181">
        <ele>4.46</ele>
        <time>2016-07-25T10:38:01Z</time>
      </trkpt>
      <trkpt lat="47.66553" lon="-3.20206">
        <ele>4.46</ele>
        <time>2016-07-25T10:38:16Z</time>
      </trkpt>
      <trkpt lat="47.66549" lon="-3.20213">
        <ele>4.46</ele>
        <time>2016-07-25T10:38:23Z</time>
      </trkpt>
      <trkpt lat="47.66547" lon="-3.20215">
        <ele>4.46</ele>
        <time>2016-07-25T10:38:25Z</time>
      </trkpt>
      <trkpt lat="47.66539" lon="-3.20241">
        <ele>5.42</ele>
        <time>2016-07-25T10:38:41Z</time>
      </trkpt>
      <trkpt lat="47.66536" lon="-3.20264">
        <ele>4.94</ele>
        <time>2016-07-25T10:38:55Z</time>
      </trkpt>
      <trkpt lat="47.66534" lon="-3.20289">
        <ele>5.42</ele>
        <time>2016-07-25T10:39:09Z</time>
      </trkpt>
      <trkpt lat="47.66533" lon="-3.20295">
        <ele>5.42</ele>
        <time>2016-07-25T10:39:13Z</time>
      </trkpt>
      <trkpt lat="47.66529" lon="-3.20305">
        <ele>4.94</ele>
        <time>2016-07-25T10:39:20Z</time>
      </trkpt>
      <trkpt lat="47.66528" lon="-3.20308">
        <ele>4.46</ele>
        <time>2016-07-25T10:39:29Z</time>
      </trkpt>
      <trkpt lat="47.66529" lon="-3.20311">
        <ele>5.42</ele>
        <time>2016-07-25T10:39:46Z</time>
      </trkpt>
      <trkpt lat="47.66529" lon="-3.20308">
        <ele>5.91</ele>
        <time>2016-07-25T10:40:20Z</time>
      </trkpt>
      <trkpt lat="47.66529" lon="-3.20309">
        <ele>3.98</ele>
        <time>2016-07-25T10:40:56Z</time>
      </trkpt>
      <trkpt lat="47.66528" lon="-3.20307">
        <ele>3.5</ele>
        <time>2016-07-25T10:41:17Z</time>
      </trkpt>
      <trkpt lat="47.66528" lon="-3.2031">
        <ele>7.35</ele>
        <time>2016-07-25T10:41:52Z</time>
      </trkpt>
      <trkpt lat="47.66529" lon="-3.20308">
        <ele>5.91</ele>
        <time>2016-07-25T10:42:32Z</time>
      </trkpt>
      <trkpt lat="47.66528" lon="-3.20307">
        <ele>6.39</ele>
        <time>2016-07-25T10:43:06Z</time>
      </trkpt>
      <trkpt lat="47.6653" lon="-3.20309">
        <ele>7.35</ele>
        <time>2016-07-25T10:43:37Z</time>
      </trkpt>
      <trkpt lat="47.66528" lon="-3.20307">
        <ele>5.42</ele>
        <time>2016-07-25T10:44:09Z</time>
      </trkpt>
      <trkpt lat="47.6653" lon="-3.20307">
        <ele>7.35</ele>
        <time>2016-07-25T10:44:48Z</time>
      </trkpt>
      <trkpt lat="47.66528" lon="-3.20308">
        <ele>7.35</ele>
        <time>2016-07-25T10:45:25Z</time>
      </trkpt>
      <trkpt lat="47.6653" lon="-3.20309">
        <ele>8.31</ele>
        <time>2016-07-25T10:45:58Z</time>
      </trkpt>
      <trkpt lat="47.66529" lon="-3.2031">
        <ele>6.87</ele>
        <time>2016-07-25T10:46:36Z</time>
      </trkpt>
      <trkpt lat="47.66529" lon="-3.20309">
        <ele>5.91</ele>
        <time>2016-07-25T10:47:06Z</time>
      </trkpt>
      <trkpt lat="47.66528" lon="-3.20308">
        <ele>6.39</ele>
        <time>2016-07-25T10:47:50Z</time>
      </trkpt>
      <trkpt lat="47.66531" lon="-3.20309">
        <ele>5.42</ele>
        <time>2016-07-25T10:48:24Z</time>
      </trkpt>
      <trkpt lat="47.66531" lon="-3.2031">
        <ele>7.35</ele>
        <time>2016-07-25T10:49:00Z</time>
      </trkpt>
      <trkpt lat="47.66531" lon="-3.20311">
        <ele>6.87</ele>
        <time>2016-07-25T10:49:30Z</time>
      </trkpt>
      <trkpt lat="47.6653" lon="-3.2031">
        <ele>4.94</ele>
        <time>2016-07-25T10:50:07Z</time>
      </trkpt>
      <trkpt lat="47.6653" lon="-3.20309">
        <ele>7.35</ele>
        <time>2016-07-25T10:50:44Z</time>
      </trkpt>
      <trkpt lat="47.6653" lon="-3.20309">
        <ele>5.91</ele>
        <time>2016-07-25T10:51:25Z</time>
      </trkpt>
      <trkpt lat="47.6653" lon="-3.20309">
        <ele>4.94</ele>
        <time>2016-07-25T10:51:57Z</time>
      </trkpt>
      <trkpt lat="47.66531" lon="-3.20308">
        <ele>6.87</ele>
        <time>2016-07-25T10:52:30Z</time>
      </trkpt>
      <trkpt lat="47.66528" lon="-3.2031">
        <ele>3.5</ele>
        <time>2016-07-25T10:53:00Z</time>
      </trkpt>
      <trkpt lat="47.66527" lon="-3.20311">
        <ele>4.46</ele>
        <time>2016-07-25T10:53:37Z</time>
      </trkpt>
      <trkpt lat="47.66528" lon="-3.2031">
        <ele>4.94</ele>
        <time>2016-07-25T10:54:07Z</time>
      </trkpt>
      <trkpt lat="47.66527" lon="-3.20309">
        <ele>4.94</ele>
        <time>2016-07-25T10:54:45Z</time>
      </trkpt>
      <trkpt lat="47.66528" lon="-3.20309">
        <ele>6.87</ele>
        <time>2016-07-25T10:55:20Z</time>
      </trkpt>
      <trkpt lat="47.66529" lon="-3.2031">
        <ele>6.39</ele>
        <time>2016-07-25T10:55:54Z</time>
      </trkpt>
      <trkpt lat="47.66529" lon="-3.20309">
        <ele>6.87</ele>
        <time>2016-07-25T10:56:31Z</time>
      </trkpt>
      <trkpt lat="47.66529" lon="-3.20309">
        <ele>8.31</ele>
        <time>2016-07-25T10:57:13Z</time>
      </trkpt>
      <trkpt lat="47.66529" lon="-3.20309">
        <ele>8.31</ele>
        <time>2016-07-25T10:57:49Z</time>
      </trkpt>
      <trkpt lat="47.66526" lon="-3.20309">
        <ele>5.91</ele>
        <time>2016-07-25T10:58:25Z</time>
      </trkpt>
      <trkpt lat="47.66526" lon="-3.2031">
        <ele>4.46</ele>
        <time>2016-07-25T10:58:52Z</time>
      </trkpt>
      <trkpt lat="47.66528" lon="-3.20308">
        <ele>6.39</ele>
        <time>2016-07-25T10:59:14Z</time>
      </trkpt>
      <trkpt lat="47.66529" lon="-3.20307">
        <ele>6.39</ele>
        <time>2016-07-25T10:59:33Z</time>
      </trkpt>
      <trkpt lat="47.66528" lon="-3.2031">
        <ele>5.91</ele>
        <time>2016-07-25T10:59:55Z</time>
      </trkpt>
      <trkpt lat="47.66528" lon="-3.2031">
        <ele>5.91</ele>
        <time>2016-07-25T11:00:23Z</time>
      </trkpt>
      <trkpt lat="47.66528" lon="-3.2031">
        <ele>7.35</ele>
        <time>2016-07-25T11:00:49Z</time>
      </trkpt>
      <trkpt lat="47.66525" lon="-3.20307">
        <ele>4.46</ele>
        <time>2016-07-25T11:01:25Z</time>
      </trkpt>
      <trkpt lat="47.66527" lon="-3.20306">
        <ele>5.91</ele>
        <time>2016-07-25T11:01:58Z</time>
      </trkpt>
      <trkpt lat="47.66526" lon="-3.20307">
        <ele>4.94</ele>
        <time>2016-07-25T11:02:26Z</time>
      </trkpt>
      <trkpt lat="47.66529" lon="-3.20308">
        <ele>6.87</ele>
        <time>2016-07-25T11:02:58Z</time>
      </trkpt>
      <trkpt lat="47.66527" lon="-3.20308">
        <ele>6.87</ele>
        <time>2016-07-25T11:03:21Z</time>
      </trkpt>
      <trkpt lat="47.66524" lon="-3.2031">
        <ele>2.54</ele>
        <time>2016-07-25T11:03:56Z</time>
      </trkpt>
      <trkpt lat="47.66526" lon="-3.20311">
        <ele>5.91</ele>
        <time>2016-07-25T11:04:33Z</time>
      </trkpt>
      <trkpt lat="47.66529" lon="-3.20309">
        <ele>8.31</ele>
        <time>2016-07-25T11:04:58Z</time>
      </trkpt>
      <trkpt lat="47.6653" lon="-3.20312">
        <ele>7.35</ele>
        <time>2016-07-25T11:05:26Z</time>
      </trkpt>
      <trkpt lat="47.66529" lon="-3.2031">
        <ele>9.27</ele>
        <time>2016-07-25T11:06:01Z</time>
      </trkpt>
      <trkpt lat="47.66527" lon="-3.2031">
        <ele>9.27</ele>
        <time>2016-07-25T11:06:34Z</time>
      </trkpt>
      <trkpt lat="47.66527" lon="-3.20312">
        <ele>9.27</ele>
        <time>2016-07-25T11:07:00Z</time>
      </trkpt>
      <trkpt lat="47.66529" lon="-3.2031">
        <ele>9.75</ele>
        <time>2016-07-25T11:07:25Z</time>
      </trkpt>
      <trkpt lat="47.66527" lon="-3.2031">
        <ele>9.27</ele>
        <time>2016-07-25T11:07:47Z</time>
      </trkpt>
      <trkpt lat="47.66528" lon="-3.2031">
        <ele>8.31</ele>
        <time>2016-07-25T11:08:15Z</time>
      </trkpt>
      <trkpt lat="47.66526" lon="-3.20308">
        <ele>7.83</ele>
        <time>2016-07-25T11:08:41Z</time>
      </trkpt>
      <trkpt lat="47.66526" lon="-3.20307">
        <ele>7.83</ele>
        <time>2016-07-25T11:09:08Z</time>
      </trkpt>
      <trkpt lat="47.66525" lon="-3.20305">
        <ele>8.79</ele>
        <time>2016-07-25T11:09:21Z</time>
      </trkpt>
      <trkpt lat="47.66517" lon="-3.20301">
        <ele>8.31</ele>
        <time>2016-07-25T11:09:32Z</time>
      </trkpt>
      <trkpt lat="47.66515" lon="-3.20295">
        <ele>8.79</ele>
        <time>2016-07-25T11:09:38Z</time>
      </trkpt>
      <trkpt lat="47.66515" lon="-3.20292">
        <ele>8.79</ele>
        <time>2016-07-25T11:09:40Z</time>
      </trkpt>
      <trkpt lat="47.66512" lon="-3.20274">
        <ele>8.79</ele>
        <time>2016-07-25T11:09:52Z</time>
      </trkpt>
      <trkpt lat="47.66504" lon="-3.20254">
        <ele>8.79</ele>
        <time>2016-07-25T11:10:06Z</time>
      </trkpt>
      <trkpt lat="47.665" lon="-3.20248">
        <ele>8.31</ele>
        <time>2016-07-25T11:10:11Z</time>
      </trkpt>
      <trkpt lat="47.66495" lon="-3.2023">
        <ele>4.46</ele>
        <time>2016-07-25T11:10:25Z</time>
      </trkpt>
      <trkpt lat="47.66491" lon="-3.20223">
        <ele>0.62</ele>
        <time>2016-07-25T11:10:36Z</time>
      </trkpt>
      <trkpt lat="47.6648" lon="-3.2022">
        <ele>1.1</ele>
        <time>2016-07-25T11:10:45Z</time>
      </trkpt>
      <trkpt lat="47.66468" lon="-3.20218">
        <ele>1.58</ele>
        <time>2016-07-25T11:10:55Z</time>
      </trkpt>
      <trkpt lat="47.66463" lon="-3.20213">
        <ele>2.06</ele>
        <time>2016-07-25T11:10:59Z</time>
      </trkpt>
      <trkpt lat="47.66459" lon="-3.20201">
        <ele>3.5</ele>
        <time>2016-07-25T11:11:09Z</time>
      </trkpt>
      <trkpt lat="47.66452" lon="-3.20176">
        <ele>5.42</ele>
        <time>2016-07-25T11:11:24Z</time>
      </trkpt>
      <trkpt lat="47.6645" lon="-3.20168">
        <ele>5.91</ele>
        <time>2016-07-25T11:11:28Z</time>
      </trkpt>
      <trkpt lat="47.66441" lon="-3.2014">
        <ele>6.87</ele>
        <time>2016-07-25T11:11:45Z</time>
      </trkpt>
      <trkpt lat="47.66439" lon="-3.20135">
        <ele>7.35</ele>
        <time>2016-07-25T11:11:48Z</time>
      </trkpt>
      <trkpt lat="47.66436" lon="-3.20128">
        <ele>6.39</ele>
        <time>2016-07-25T11:11:53Z</time>
      </trkpt>
      <trkpt lat="47.66433" lon="-3.20122">
        <ele>5.42</ele>
        <time>2016-07-25T11:11:57Z</time>
      </trkpt>
      <trkpt lat="47.6643" lon="-3.20116">
        <ele>5.42</ele>
        <time>2016-07-25T11:12:01Z</time>
      </trkpt>
      <trkpt lat="47.66423" lon="-3.201">
        <ele>5.42</ele>
        <time>2016-07-25T11:12:11Z</time>
      </trkpt>
      <trkpt lat="47.66421" lon="-3.20097">
        <ele>4.94</ele>
        <time>2016-07-25T11:12:17Z</time>
      </trkpt>
      <trkpt lat="47.66418" lon="-3.20091">
        <ele>4.94</ele>
        <time>2016-07-25T11:12:21Z</time>
      </trkpt>
      <trkpt lat="47.66416" lon="-3.20088">
        <ele>4.94</ele>
        <time>2016-07-25T11:12:24Z</time>
      </trkpt>
      <trkpt lat="47.66415" lon="-3.20085">
        <ele>5.42</ele>
        <time>2016-07-25T11:12:26Z</time>
      </trkpt>
      <trkpt lat="47.66413" lon="-3.2008">
        <ele>5.42</ele>
        <time>2016-07-25T11:12:30Z</time>
      </trkpt>
      <trkpt lat="47.66412" lon="-3.20072">
        <ele>5.42</ele>
        <time>2016-07-25T11:12:35Z</time>
      </trkpt>
      <trkpt lat="47.66408" lon="-3.20052">
        <ele>5.42</ele>
        <time>2016-07-25T11:12:49Z</time>
      </trkpt>
      <trkpt lat="47.66401" lon="-3.20031">
        <ele>5.42</ele>
        <time>2016-07-25T11:13:03Z</time>
      </trkpt>
      <trkpt lat="47.66402" lon="-3.20025">
        <ele>6.39</ele>
        <time>2016-07-25T11:13:13Z</time>
      </trkpt>
      <trkpt lat="47.66403" lon="-3.20025">
        <ele>5.42</ele>
        <time>2016-07-25T11:13:35Z</time>
      </trkpt>
      <trkpt lat="47.66415" lon="-3.20019">
        <ele>2.54</ele>
        <time>2016-07-25T11:13:47Z</time>
      </trkpt>
      <trkpt lat="47.66435" lon="-3.2002">
        <ele>1.58</ele>
        <time>2016-07-25T11:14:01Z</time>
      </trkpt>
      <trkpt lat="47.66445" lon="-3.20019">
        <ele>0.62</ele>
        <time>2016-07-25T11:14:08Z</time>
      </trkpt>
      <trkpt lat="47.66461" lon="-3.2">
        <ele>2.06</ele>
        <time>2016-07-25T11:14:23Z</time>
      </trkpt>
      <trkpt lat="47.66462" lon="-3.19998">
        <ele>1.58</ele>
        <time>2016-07-25T11:14:24Z</time>
      </trkpt>
      <trkpt lat="47.66472" lon="-3.1998">
        <ele>0.62</ele>
        <time>2016-07-25T11:14:36Z</time>
      </trkpt>
      <trkpt lat="47.66484" lon="-3.1996">
        <ele>0.14</ele>
        <time>2016-07-25T11:14:51Z</time>
      </trkpt>
      <trkpt lat="47.66487" lon="-3.19953">
        <ele>0.14</ele>
        <time>2016-07-25T11:14:56Z</time>
      </trkpt>
      <trkpt lat="47.66483" lon="-3.19945">
        <ele>-1.3</ele>
        <time>2016-07-25T11:15:02Z</time>
      </trkpt>
      <trkpt lat="47.66468" lon="-3.1993">
        <ele>-4.19</ele>
        <time>2016-07-25T11:15:17Z</time>
      </trkpt>
      <trkpt lat="47.66451" lon="-3.19927">
        <ele>-6.11</ele>
        <time>2016-07-25T11:15:30Z</time>
      </trkpt>
      <trkpt lat="47.66445" lon="-3.19923">
        <ele>-5.63</ele>
        <time>2016-07-25T11:15:35Z</time>
      </trkpt>
      <trkpt lat="47.66432" lon="-3.199">
        <ele>-0.34</ele>
        <time>2016-07-25T11:15:50Z</time>
      </trkpt>
      <trkpt lat="47.66432" lon="-3.19885">
        <ele>1.58</ele>
        <time>2016-07-25T11:15:58Z</time>
      </trkpt>
      <trkpt lat="47.66428" lon="-3.1987">
        <ele>2.54</ele>
        <time>2016-07-25T11:16:06Z</time>
      </trkpt>
      <trkpt lat="47.66422" lon="-3.19843">
        <ele>4.94</ele>
        <time>2016-07-25T11:16:20Z</time>
      </trkpt>
      <trkpt lat="47.66423" lon="-3.19817">
        <ele>4.94</ele>
        <time>2016-07-25T11:16:34Z</time>
      </trkpt>
      <trkpt lat="47.6643" lon="-3.19795">
        <ele>4.94</ele>
        <time>2016-07-25T11:16:47Z</time>
      </trkpt>
      <trkpt lat="47.66426" lon="-3.19773">
        <ele>5.42</ele>
        <time>2016-07-25T11:16:58Z</time>
      </trkpt>
      <trkpt lat="47.6642" lon="-3.19758">
        <ele>5.42</ele>
        <time>2016-07-25T11:17:08Z</time>
      </trkpt>
      <trkpt lat="47.6642" lon="-3.19752">
        <ele>5.42</ele>
        <time>2016-07-25T11:17:12Z</time>
      </trkpt>
      <trkpt lat="47.66419" lon="-3.19717">
        <ele>6.39</ele>
        <time>2016-07-25T11:17:30Z</time>
      </trkpt>
      <trkpt lat="47.6642" lon="-3.19706">
        <ele>7.35</ele>
        <time>2016-07-25T11:17:36Z</time>
      </trkpt>
      <trkpt lat="47.66416" lon="-3.19681">
        <ele>7.83</ele>
        <time>2016-07-25T11:17:51Z</time>
      </trkpt>
      <trkpt lat="47.66409" lon="-3.19653">
        <ele>7.35</ele>
        <time>2016-07-25T11:18:06Z</time>
      </trkpt>
      <trkpt lat="47.66401" lon="-3.19632">
        <ele>6.87</ele>
        <time>2016-07-25T11:18:20Z</time>
      </trkpt>
      <trkpt lat="47.66396" lon="-3.19626">
        <ele>5.91</ele>
        <time>2016-07-25T11:18:26Z</time>
      </trkpt>
      <trkpt lat="47.66392" lon="-3.19618">
        <ele>4.94</ele>
        <time>2016-07-25T11:18:32Z</time>
      </trkpt>
      <trkpt lat="47.66383" lon="-3.19598">
        <ele>2.06</ele>
        <time>2016-07-25T11:18:47Z</time>
      </trkpt>
      <trkpt lat="47.66376" lon="-3.1959">
        <ele>1.1</ele>
        <time>2016-07-25T11:18:56Z</time>
      </trkpt>
      <trkpt lat="47.66364" lon="-3.19585">
        <ele>-2.75</ele>
        <time>2016-07-25T11:19:10Z</time>
      </trkpt>
      <trkpt lat="47.66355" lon="-3.19566">
        <ele>-3.23</ele>
        <time>2016-07-25T11:19:24Z</time>
      </trkpt>
      <trkpt lat="47.66339" lon="-3.19549">
        <ele>-2.27</ele>
        <time>2016-07-25T11:19:41Z</time>
      </trkpt>
      <trkpt lat="47.66326" lon="-3.19534">
        <ele>2.06</ele>
        <time>2016-07-25T11:19:54Z</time>
      </trkpt>
      <trkpt lat="47.66322" lon="-3.19538">
        <ele>0.62</ele>
        <time>2016-07-25T11:20:03Z</time>
      </trkpt>
      <trkpt lat="47.66312" lon="-3.19537">
        <ele>0.62</ele>
        <time>2016-07-25T11:20:16Z</time>
      </trkpt>
      <trkpt lat="47.66306" lon="-3.19525">
        <ele>3.02</ele>
        <time>2016-07-25T11:20:29Z</time>
      </trkpt>
      <trkpt lat="47.66305" lon="-3.19515">
        <ele>3.02</ele>
        <time>2016-07-25T11:20:40Z</time>
      </trkpt>
      <trkpt lat="47.663" lon="-3.19508">
        <ele>3.5</ele>
        <time>2016-07-25T11:20:54Z</time>
      </trkpt>
      <trkpt lat="47.66301" lon="-3.19505">
        <ele>4.94</ele>
        <time>2016-07-25T11:21:12Z</time>
      </trkpt>
      <trkpt lat="47.66304" lon="-3.19499">
        <ele>3.98</ele>
        <time>2016-07-25T11:21:30Z</time>
      </trkpt>
      <trkpt lat="47.66304" lon="-3.19496">
        <ele>3.5</ele>
        <time>2016-07-25T11:21:34Z</time>
      </trkpt>
      <trkpt lat="47.663" lon="-3.19482">
        <ele>3.02</ele>
        <time>2016-07-25T11:21:45Z</time>
      </trkpt>
      <trkpt lat="47.66297" lon="-3.19484">
        <ele>2.54</ele>
        <time>2016-07-25T11:22:01Z</time>
      </trkpt>
      <trkpt lat="47.66293" lon="-3.19483">
        <ele>-1.3</ele>
        <time>2016-07-25T11:22:16Z</time>
      </trkpt>
      <trkpt lat="47.66294" lon="-3.19484">
        <ele>-1.3</ele>
        <time>2016-07-25T11:22:23Z</time>
      </trkpt>
      <trkpt lat="47.66297" lon="-3.19487">
        <ele>-0.34</ele>
        <time>2016-07-25T11:22:26Z</time>
      </trkpt>
      <trkpt lat="47.66303" lon="-3.19491">
        <ele>1.58</ele>
        <time>2016-07-25T11:22:36Z</time>
      </trkpt>
      <trkpt lat="47.66306" lon="-3.19498">
        <ele>1.58</ele>
        <time>2016-07-25T11:22:43Z</time>
      </trkpt>
      <trkpt lat="47.66308" lon="-3.19496">
        <ele>2.06</ele>
        <time>2016-07-25T11:22:46Z</time>
      </trkpt>
      <trkpt lat="47.66312" lon="-3.19485">
        <ele>3.02</ele>
        <time>2016-07-25T11:22:57Z</time>
      </trkpt>
      <trkpt lat="47.66314" lon="-3.19483">
        <ele>3.02</ele>
        <time>2016-07-25T11:23:00Z</time>
      </trkpt>
      <trkpt lat="47.66321" lon="-3.19478">
        <ele>3.02</ele>
        <time>2016-07-25T11:23:12Z</time>
      </trkpt>
      <trkpt lat="47.66322" lon="-3.19471">
        <ele>3.98</ele>
        <time>2016-07-25T11:23:16Z</time>
      </trkpt>
      <trkpt lat="47.66319" lon="-3.19451">
        <ele>4.94</ele>
        <time>2016-07-25T11:23:29Z</time>
      </trkpt>
      <trkpt lat="47.66312" lon="-3.19429">
        <ele>5.42</ele>
        <time>2016-07-25T11:23:43Z</time>
      </trkpt>
      <trkpt lat="47.66311" lon="-3.19423">
        <ele>4.94</ele>
        <time>2016-07-25T11:23:47Z</time>
      </trkpt>
      <trkpt lat="47.66307" lon="-3.19398">
        <ele>4.94</ele>
        <time>2016-07-25T11:24:01Z</time>
      </trkpt>
      <trkpt lat="47.66311" lon="-3.1939">
        <ele>5.42</ele>
        <time>2016-07-25T11:24:07Z</time>
      </trkpt>
      <trkpt lat="47.66314" lon="-3.19366">
        <ele>6.39</ele>
        <time>2016-07-25T11:24:21Z</time>
      </trkpt>
      <trkpt lat="47.66314" lon="-3.19339">
        <ele>6.87</ele>
        <time>2016-07-25T11:24:36Z</time>
      </trkpt>
      <trkpt lat="47.66314" lon="-3.19314">
        <ele>7.83</ele>
        <time>2016-07-25T11:24:50Z</time>
      </trkpt>
      <trkpt lat="47.66312" lon="-3.1929">
        <ele>7.35</ele>
        <time>2016-07-25T11:25:03Z</time>
      </trkpt>
      <trkpt lat="47.66311" lon="-3.19277">
        <ele>7.35</ele>
        <time>2016-07-25T11:25:10Z</time>
      </trkpt>
      <trkpt lat="47.66307" lon="-3.1926">
        <ele>7.35</ele>
        <time>2016-07-25T11:25:21Z</time>
      </trkpt>
      <trkpt lat="47.66305" lon="-3.19249">
        <ele>7.35</ele>
        <time>2016-07-25T11:25:29Z</time>
      </trkpt>
      <trkpt lat="47.66298" lon="-3.19244">
        <ele>5.91</ele>
        <time>2016-07-25T11:25:37Z</time>
      </trkpt>
      <trkpt lat="47.66293" lon="-3.19238">
        <ele>5.42</ele>
        <time>2016-07-25T11:25:50Z</time>
      </trkpt>
      <trkpt lat="47.66291" lon="-3.19235">
        <ele>5.42</ele>
        <time>2016-07-25T11:25:52Z</time>
      </trkpt>
      <trkpt lat="47.66291" lon="-3.19227">
        <ele>4.46</ele>
        <time>2016-07-25T11:25:57Z</time>
      </trkpt>
      <trkpt lat="47.66292" lon="-3.19216">
        <ele>4.46</ele>
        <time>2016-07-25T11:26:05Z</time>
      </trkpt>
      <trkpt lat="47.66292" lon="-3.19203">
        <ele>4.94</ele>
        <time>2016-07-25T11:26:15Z</time>
      </trkpt>
      <trkpt lat="47.66292" lon="-3.19199">
        <ele>4.46</ele>
        <time>2016-07-25T11:26:18Z</time>
      </trkpt>
      <trkpt lat="47.66291" lon="-3.19176">
        <ele>2.54</ele>
        <time>2016-07-25T11:26:33Z</time>
      </trkpt>
      <trkpt lat="47.66291" lon="-3.19167">
        <ele>2.06</ele>
        <time>2016-07-25T11:26:38Z</time>
      </trkpt>
      <trkpt lat="47.66297" lon="-3.19149">
        <ele>3.02</ele>
        <time>2016-07-25T11:26:51Z</time>
      </trkpt>
      <trkpt lat="47.66299" lon="-3.19132">
        <ele>3.98</ele>
        <time>2016-07-25T11:27:08Z</time>
      </trkpt>
      <trkpt lat="47.66305" lon="-3.1912">
        <ele>4.46</ele>
        <time>2016-07-25T11:27:17Z</time>
      </trkpt>
      <trkpt lat="47.66309" lon="-3.19108">
        <ele>3.98</ele>
        <time>2016-07-25T11:27:30Z</time>
      </trkpt>
      <trkpt lat="47.66303" lon="-3.19092">
        <ele>2.06</ele>
        <time>2016-07-25T11:27:42Z</time>
      </trkpt>
      <trkpt lat="47.66301" lon="-3.19083">
        <ele>1.1</ele>
        <time>2016-07-25T11:27:51Z</time>
      </trkpt>
      <trkpt lat="47.66293" lon="-3.19078">
        <ele>-0.34</ele>
        <time>2016-07-25T11:27:59Z</time>
      </trkpt>
      <trkpt lat="47.66289" lon="-3.19076">
        <ele>-0.82</ele>
        <time>2016-07-25T11:28:03Z</time>
      </trkpt>
      <trkpt lat="47.66284" lon="-3.19043">
        <ele>1.58</ele>
        <time>2016-07-25T11:28:21Z</time>
      </trkpt>
      <trkpt lat="47.66279" lon="-3.19022">
        <ele>3.5</ele>
        <time>2016-07-25T11:28:35Z</time>
      </trkpt>
      <trkpt lat="47.66272" lon="-3.18994">
        <ele>5.91</ele>
        <time>2016-07-25T11:28:52Z</time>
      </trkpt>
      <trkpt lat="47.66272" lon="-3.1899">
        <ele>6.39</ele>
        <time>2016-07-25T11:28:56Z</time>
      </trkpt>
      <trkpt lat="47.66269" lon="-3.1898">
        <ele>6.87</ele>
        <time>2016-07-25T11:29:02Z</time>
      </trkpt>
      <trkpt lat="47.66267" lon="-3.18974">
        <ele>7.35</ele>
        <time>2016-07-25T11:29:06Z</time>
      </trkpt>
      <trkpt lat="47.66261" lon="-3.18957">
        <ele>7.83</ele>
        <time>2016-07-25T11:29:17Z</time>
      </trkpt>
      <trkpt lat="47.66259" lon="-3.18949">
        <ele>7.83</ele>
        <time>2016-07-25T11:29:22Z</time>
      </trkpt>
      <trkpt lat="47.66256" lon="-3.1894">
        <ele>7.83</ele>
        <time>2016-07-25T11:29:28Z</time>
      </trkpt>
      <trkpt lat="47.66249" lon="-3.18917">
        <ele>7.35</ele>
        <time>2016-07-25T11:29:43Z</time>
      </trkpt>
      <trkpt lat="47.66241" lon="-3.18904">
        <ele>7.83</ele>
        <time>2016-07-25T11:29:57Z</time>
      </trkpt>
      <trkpt lat="47.66241" lon="-3.18903">
        <ele>8.31</ele>
        <time>2016-07-25T11:30:02Z</time>
      </trkpt>
      <trkpt lat="47.66238" lon="-3.18882">
        <ele>10.23</ele>
        <time>2016-07-25T11:30:16Z</time>
      </trkpt>
      <trkpt lat="47.66237" lon="-3.18877">
        <ele>10.23</ele>
        <time>2016-07-25T11:30:20Z</time>
      </trkpt>
      <trkpt lat="47.66239" lon="-3.18864">
        <ele>9.75</ele>
        <time>2016-07-25T11:30:27Z</time>
      </trkpt>
      <trkpt lat="47.66237" lon="-3.18853">
        <ele>9.27</ele>
        <time>2016-07-25T11:30:38Z</time>
      </trkpt>
      <trkpt lat="47.66236" lon="-3.18853">
        <ele>9.27</ele>
        <time>2016-07-25T11:30:41Z</time>
      </trkpt>
      <trkpt lat="47.66235" lon="-3.18829">
        <ele>9.27</ele>
        <time>2016-07-25T11:30:54Z</time>
      </trkpt>
      <trkpt lat="47.66237" lon="-3.18815">
        <ele>9.27</ele>
        <time>2016-07-25T11:31:02Z</time>
      </trkpt>
      <trkpt lat="47.66242" lon="-3.18801">
        <ele>9.75</ele>
        <time>2016-07-25T11:31:14Z</time>
      </trkpt>
      <trkpt lat="47.66242" lon="-3.188">
        <ele>9.75</ele>
        <time>2016-07-25T11:31:15Z</time>
      </trkpt>
      <trkpt lat="47.66253" lon="-3.1878">
        <ele>11.19</ele>
        <time>2016-07-25T11:31:28Z</time>
      </trkpt>
      <trkpt lat="47.66255" lon="-3.18772">
        <ele>11.67</ele>
        <time>2016-07-25T11:31:33Z</time>
      </trkpt>
      <trkpt lat="47.66255" lon="-3.18754">
        <ele>12.15</ele>
        <time>2016-07-25T11:31:45Z</time>
      </trkpt>
      <trkpt lat="47.66256" lon="-3.18752">
        <ele>12.15</ele>
        <time>2016-07-25T11:31:46Z</time>
      </trkpt>
      <trkpt lat="47.66255" lon="-3.18744">
        <ele>12.63</ele>
        <time>2016-07-25T11:31:50Z</time>
      </trkpt>
      <trkpt lat="47.66252" lon="-3.18719">
        <ele>13.12</ele>
        <time>2016-07-25T11:32:03Z</time>
      </trkpt>
      <trkpt lat="47.6625" lon="-3.18688">
        <ele>14.56</ele>
        <time>2016-07-25T11:32:19Z</time>
      </trkpt>
      <trkpt lat="47.66248" lon="-3.18667">
        <ele>15.52</ele>
        <time>2016-07-25T11:32:31Z</time>
      </trkpt>
      <trkpt lat="47.66245" lon="-3.18644">
        <ele>16.48</ele>
        <time>2016-07-25T11:32:44Z</time>
      </trkpt>
      <trkpt lat="47.66243" lon="-3.18617">
        <ele>16.48</ele>
        <time>2016-07-25T11:33:00Z</time>
      </trkpt>
      <trkpt lat="47.6624" lon="-3.18601">
        <ele>16.96</ele>
        <time>2016-07-25T11:33:13Z</time>
      </trkpt>
      <trkpt lat="47.6624" lon="-3.18597">
        <ele>16.96</ele>
        <time>2016-07-25T11:33:25Z</time>
      </trkpt>
      <trkpt lat="47.66239" lon="-3.18591">
        <ele>16.96</ele>
        <time>2016-07-25T11:33:29Z</time>
      </trkpt>
      <trkpt lat="47.66238" lon="-3.1858">
        <ele>17.44</ele>
        <time>2016-07-25T11:33:39Z</time>
      </trkpt>
      <trkpt lat="47.66238" lon="-3.18579">
        <ele>17.44</ele>
        <time>2016-07-25T11:33:40Z</time>
      </trkpt>
      <trkpt lat="47.66237" lon="-3.18557">
        <ele>17.44</ele>
        <time>2016-07-25T11:33:52Z</time>
      </trkpt>
      <trkpt lat="47.66236" lon="-3.18533">
        <ele>16.96</ele>
        <time>2016-07-25T11:34:06Z</time>
      </trkpt>
      <trkpt lat="47.66234" lon="-3.18505">
        <ele>16.96</ele>
        <time>2016-07-25T11:34:23Z</time>
      </trkpt>
      <trkpt lat="47.66232" lon="-3.18478">
        <ele>16.96</ele>
        <time>2016-07-25T11:34:39Z</time>
      </trkpt>
      <trkpt lat="47.6623" lon="-3.18453">
        <ele>16</ele>
        <time>2016-07-25T11:34:53Z</time>
      </trkpt>
      <trkpt lat="47.66229" lon="-3.18444">
        <ele>16</ele>
        <time>2016-07-25T11:34:58Z</time>
      </trkpt>
      <trkpt lat="47.66225" lon="-3.18416">
        <ele>14.56</ele>
        <time>2016-07-25T11:35:15Z</time>
      </trkpt>
      <trkpt lat="47.66224" lon="-3.18413">
        <ele>14.08</ele>
        <time>2016-07-25T11:35:16Z</time>
      </trkpt>
      <trkpt lat="47.66222" lon="-3.18409">
        <ele>13.6</ele>
        <time>2016-07-25T11:35:19Z</time>
      </trkpt>
      <trkpt lat="47.66222" lon="-3.18405">
        <ele>13.6</ele>
        <time>2016-07-25T11:35:21Z</time>
      </trkpt>
      <trkpt lat="47.66222" lon="-3.18403">
        <ele>13.12</ele>
        <time>2016-07-25T11:35:22Z</time>
      </trkpt>
      <trkpt lat="47.66222" lon="-3.18399">
        <ele>12.15</ele>
        <time>2016-07-25T11:35:33Z</time>
      </trkpt>
      <trkpt lat="47.66219" lon="-3.18399">
        <ele>11.19</ele>
        <time>2016-07-25T11:35:45Z</time>
      </trkpt>
      <trkpt lat="47.66218" lon="-3.18397">
        <ele>10.23</ele>
        <time>2016-07-25T11:35:48Z</time>
      </trkpt>
      <trkpt lat="47.66217" lon="-3.18395">
        <ele>9.75</ele>
        <time>2016-07-25T11:35:49Z</time>
      </trkpt>
      <trkpt lat="47.66217" lon="-3.18393">
        <ele>9.75</ele>
        <time>2016-07-25T11:35:50Z</time>
      </trkpt>
      <trkpt lat="47.66212" lon="-3.1838">
        <ele>7.83</ele>
        <time>2016-07-25T11:36:00Z</time>
      </trkpt>
      <trkpt lat="47.66211" lon="-3.18379">
        <ele>7.83</ele>
        <time>2016-07-25T11:36:01Z</time>
      </trkpt>
      <trkpt lat="47.66211" lon="-3.1837">
        <ele>7.35</ele>
        <time>2016-07-25T11:36:12Z</time>
      </trkpt>
      <trkpt lat="47.6621" lon="-3.18368">
        <ele>6.39</ele>
        <time>2016-07-25T11:36:16Z</time>
      </trkpt>
      <trkpt lat="47.66209" lon="-3.18365">
        <ele>6.87</ele>
        <time>2016-07-25T11:36:17Z</time>
      </trkpt>
      <trkpt lat="47.66209" lon="-3.18363">
        <ele>7.35</ele>
        <time>2016-07-25T11:36:18Z</time>
      </trkpt>
      <trkpt lat="47.66209" lon="-3.18361">
        <ele>7.83</ele>
        <time>2016-07-25T11:36:19Z</time>
      </trkpt>
      <trkpt lat="47.66208" lon="-3.18356">
        <ele>8.31</ele>
        <time>2016-07-25T11:36:22Z</time>
      </trkpt>
      <trkpt lat="47.66207" lon="-3.18354">
        <ele>8.31</ele>
        <time>2016-07-25T11:36:23Z</time>
      </trkpt>
      <trkpt lat="47.66203" lon="-3.18337">
        <ele>10.23</ele>
        <time>2016-07-25T11:36:33Z</time>
      </trkpt>
      <trkpt lat="47.66202" lon="-3.18325">
        <ele>10.23</ele>
        <time>2016-07-25T11:36:41Z</time>
      </trkpt>
      <trkpt lat="47.66202" lon="-3.18323">
        <ele>10.23</ele>
        <time>2016-07-25T11:36:42Z</time>
      </trkpt>
      <trkpt lat="47.66202" lon="-3.1832">
        <ele>10.23</ele>
        <time>2016-07-25T11:36:43Z</time>
      </trkpt>
      <trkpt lat="47.66203" lon="-3.18315">
        <ele>10.23</ele>
        <time>2016-07-25T11:36:46Z</time>
      </trkpt>
      <trkpt lat="47.66204" lon="-3.18314">
        <ele>10.23</ele>
        <time>2016-07-25T11:36:47Z</time>
      </trkpt>
      <trkpt lat="47.66205" lon="-3.18312">
        <ele>11.19</ele>
        <time>2016-07-25T11:36:59Z</time>
      </trkpt>
      <trkpt lat="47.66202" lon="-3.18306">
        <ele>11.19</ele>
        <time>2016-07-25T11:37:04Z</time>
      </trkpt>
      <trkpt lat="47.66202" lon="-3.18304">
        <ele>11.19</ele>
        <time>2016-07-25T11:37:05Z</time>
      </trkpt>
      <trkpt lat="47.66202" lon="-3.18293">
        <ele>11.19</ele>
        <time>2016-07-25T11:37:09Z</time>
      </trkpt>
      <trkpt lat="47.66217" lon="-3.18265">
        <ele>12.63</ele>
        <time>2016-07-25T11:37:26Z</time>
      </trkpt>
      <trkpt lat="47.66225" lon="-3.18249">
        <ele>11.67</ele>
        <time>2016-07-25T11:37:38Z</time>
      </trkpt>
      <trkpt lat="47.66226" lon="-3.18247">
        <ele>11.67</ele>
        <time>2016-07-25T11:37:39Z</time>
      </trkpt>
      <trkpt lat="47.66226" lon="-3.18245">
        <ele>11.19</ele>
        <time>2016-07-25T11:37:40Z</time>
      </trkpt>
      <trkpt lat="47.66227" lon="-3.18243">
        <ele>11.19</ele>
        <time>2016-07-25T11:37:41Z</time>
      </trkpt>
      <trkpt lat="47.66236" lon="-3.18221">
        <ele>10.23</ele>
        <time>2016-07-25T11:37:56Z</time>
      </trkpt>
      <trkpt lat="47.66247" lon="-3.18196">
        <ele>8.31</ele>
        <time>2016-07-25T11:38:13Z</time>
      </trkpt>
      <trkpt lat="47.66252" lon="-3.18185">
        <ele>6.39</ele>
        <time>2016-07-25T11:38:21Z</time>
      </trkpt>
      <trkpt lat="47.66255" lon="-3.18172">
        <ele>5.91</ele>
        <time>2016-07-25T11:38:28Z</time>
      </trkpt>
      <trkpt lat="47.66257" lon="-3.18164">
        <ele>5.91</ele>
        <time>2016-07-25T11:38:33Z</time>
      </trkpt>
      <trkpt lat="47.66265" lon="-3.1814">
        <ele>5.42</ele>
        <time>2016-07-25T11:38:49Z</time>
      </trkpt>
      <trkpt lat="47.66278" lon="-3.18131">
        <ele>4.94</ele>
        <time>2016-07-25T11:39:03Z</time>
      </trkpt>
      <trkpt lat="47.66288" lon="-3.18126">
        <ele>5.42</ele>
        <time>2016-07-25T11:39:22Z</time>
      </trkpt>
      <trkpt lat="47.66301" lon="-3.18108">
        <ele>6.87</ele>
        <time>2016-07-25T11:39:36Z</time>
      </trkpt>
      <trkpt lat="47.6631" lon="-3.18091">
        <ele>7.83</ele>
        <time>2016-07-25T11:39:48Z</time>
      </trkpt>
      <trkpt lat="47.66312" lon="-3.18085">
        <ele>7.83</ele>
        <time>2016-07-25T11:39:53Z</time>
      </trkpt>
      <trkpt lat="47.66313" lon="-3.1808">
        <ele>7.83</ele>
        <time>2016-07-25T11:39:56Z</time>
      </trkpt>
      <trkpt lat="47.66313" lon="-3.18078">
        <ele>8.31</ele>
        <time>2016-07-25T11:39:57Z</time>
      </trkpt>
      <trkpt lat="47.66316" lon="-3.18055">
        <ele>8.79</ele>
        <time>2016-07-25T11:40:10Z</time>
      </trkpt>
      <trkpt lat="47.66317" lon="-3.18035">
        <ele>8.79</ele>
        <time>2016-07-25T11:40:21Z</time>
      </trkpt>
      <trkpt lat="47.66317" lon="-3.18025">
        <ele>9.27</ele>
        <time>2016-07-25T11:40:27Z</time>
      </trkpt>
      <trkpt lat="47.66317" lon="-3.18023">
        <ele>9.27</ele>
        <time>2016-07-25T11:40:28Z</time>
      </trkpt>
      <trkpt lat="47.66318" lon="-3.18012">
        <ele>10.71</ele>
        <time>2016-07-25T11:40:35Z</time>
      </trkpt>
      <trkpt lat="47.66319" lon="-3.18007">
        <ele>11.19</ele>
        <time>2016-07-25T11:40:38Z</time>
      </trkpt>
      <trkpt lat="47.66326" lon="-3.17984">
        <ele>12.15</ele>
        <time>2016-07-25T11:40:51Z</time>
      </trkpt>
      <trkpt lat="47.66327" lon="-3.17982">
        <ele>12.15</ele>
        <time>2016-07-25T11:40:52Z</time>
      </trkpt>
      <trkpt lat="47.66332" lon="-3.17972">
        <ele>11.67</ele>
        <time>2016-07-25T11:41:00Z</time>
      </trkpt>
      <trkpt lat="47.66332" lon="-3.17971">
        <ele>11.67</ele>
        <time>2016-07-25T11:41:01Z</time>
      </trkpt>
      <trkpt lat="47.66335" lon="-3.17959">
        <ele>11.19</ele>
        <time>2016-07-25T11:41:09Z</time>
      </trkpt>
      <trkpt lat="47.66336" lon="-3.17957">
        <ele>11.19</ele>
        <time>2016-07-25T11:41:10Z</time>
      </trkpt>
      <trkpt lat="47.66345" lon="-3.17939">
        <ele>11.19</ele>
        <time>2016-07-25T11:41:21Z</time>
      </trkpt>
      <trkpt lat="47.66345" lon="-3.17934">
        <ele>10.71</ele>
        <time>2016-07-25T11:41:25Z</time>
      </trkpt>
      <trkpt lat="47.66345" lon="-3.17933">
        <ele>11.19</ele>
        <time>2016-07-25T11:41:26Z</time>
      </trkpt>
      <trkpt lat="47.66353" lon="-3.17908">
        <ele>15.04</ele>
        <time>2016-07-25T11:41:40Z</time>
      </trkpt>
      <trkpt lat="47.66358" lon="-3.17877">
        <ele>17.92</ele>
        <time>2016-07-25T11:41:58Z</time>
      </trkpt>
      <trkpt lat="47.66361" lon="-3.17864">
        <ele>17.92</ele>
        <time>2016-07-25T11:42:06Z</time>
      </trkpt>
      <trkpt lat="47.66362" lon="-3.17863">
        <ele>17.92</ele>
        <time>2016-07-25T11:42:07Z</time>
      </trkpt>
      <trkpt lat="47.66363" lon="-3.17861">
        <ele>17.92</ele>
        <time>2016-07-25T11:42:09Z</time>
      </trkpt>
      <trkpt lat="47.66378" lon="-3.17861">
        <ele>16.96</ele>
        <time>2016-07-25T11:42:23Z</time>
      </trkpt>
      <trkpt lat="47.66392" lon="-3.17855">
        <ele>16</ele>
        <time>2016-07-25T11:42:36Z</time>
      </trkpt>
      <trkpt lat="47.66397" lon="-3.17852">
        <ele>14.56</ele>
        <time>2016-07-25T11:42:42Z</time>
      </trkpt>
      <trkpt lat="47.66398" lon="-3.17851">
        <ele>14.08</ele>
        <time>2016-07-25T11:42:43Z</time>
      </trkpt>
      <trkpt lat="47.664" lon="-3.1785">
        <ele>13.6</ele>
        <time>2016-07-25T11:42:44Z</time>
      </trkpt>
      <trkpt lat="47.66408" lon="-3.17842">
        <ele>10.71</ele>
        <time>2016-07-25T11:42:54Z</time>
      </trkpt>
      <trkpt lat="47.66427" lon="-3.17829">
        <ele>12.15</ele>
        <time>2016-07-25T11:43:10Z</time>
      </trkpt>
      <trkpt lat="47.6643" lon="-3.17825">
        <ele>12.63</ele>
        <time>2016-07-25T11:43:13Z</time>
      </trkpt>
      <trkpt lat="47.66444" lon="-3.17808">
        <ele>13.12</ele>
        <time>2016-07-25T11:43:29Z</time>
      </trkpt>
      <trkpt lat="47.66448" lon="-3.17802">
        <ele>12.63</ele>
        <time>2016-07-25T11:43:34Z</time>
      </trkpt>
      <trkpt lat="47.66449" lon="-3.17801">
        <ele>12.63</ele>
        <time>2016-07-25T11:43:35Z</time>
      </trkpt>
      <trkpt lat="47.66463" lon="-3.17782">
        <ele>13.12</ele>
        <time>2016-07-25T11:43:50Z</time>
      </trkpt>
      <trkpt lat="47.66474" lon="-3.17768">
        <ele>14.08</ele>
        <time>2016-07-25T11:44:02Z</time>
      </trkpt>
      <trkpt lat="47.66475" lon="-3.17768">
        <ele>14.08</ele>
        <time>2016-07-25T11:44:03Z</time>
      </trkpt>
      <trkpt lat="47.66476" lon="-3.17767">
        <ele>14.08</ele>
        <time>2016-07-25T11:44:04Z</time>
      </trkpt>
      <trkpt lat="47.66482" lon="-3.17763">
        <ele>14.08</ele>
        <time>2016-07-25T11:44:19Z</time>
      </trkpt>
      <trkpt lat="47.66483" lon="-3.17761">
        <ele>14.08</ele>
        <time>2016-07-25T11:44:20Z</time>
      </trkpt>
      <trkpt lat="47.66484" lon="-3.1776">
        <ele>14.08</ele>
        <time>2016-07-25T11:44:21Z</time>
      </trkpt>
      <trkpt lat="47.66485" lon="-3.17759">
        <ele>14.08</ele>
        <time>2016-07-25T11:44:23Z</time>
      </trkpt>
      <trkpt lat="47.66499" lon="-3.17745">
        <ele>13.12</ele>
        <time>2016-07-25T11:44:37Z</time>
      </trkpt>
      <trkpt lat="47.66511" lon="-3.17733">
        <ele>13.6</ele>
        <time>2016-07-25T11:44:53Z</time>
      </trkpt>
      <trkpt lat="47.66513" lon="-3.17731">
        <ele>13.6</ele>
        <time>2016-07-25T11:44:54Z</time>
      </trkpt>
      <trkpt lat="47.66514" lon="-3.17731">
        <ele>13.6</ele>
        <time>2016-07-25T11:44:55Z</time>
      </trkpt>
      <trkpt lat="47.6653" lon="-3.17723">
        <ele>11.67</ele>
        <time>2016-07-25T11:45:07Z</time>
      </trkpt>
      <trkpt lat="47.66545" lon="-3.17718">
        <ele>11.19</ele>
        <time>2016-07-25T11:45:21Z</time>
      </trkpt>
      <trkpt lat="47.6655" lon="-3.17719">
        <ele>10.71</ele>
        <time>2016-07-25T11:45:27Z</time>
      </trkpt>
      <trkpt lat="47.66552" lon="-3.17719">
        <ele>10.71</ele>
        <time>2016-07-25T11:45:28Z</time>
      </trkpt>
      <trkpt lat="47.66553" lon="-3.17719">
        <ele>10.23</ele>
        <time>2016-07-25T11:45:29Z</time>
      </trkpt>
      <trkpt lat="47.66554" lon="-3.17719">
        <ele>10.23</ele>
        <time>2016-07-25T11:45:30Z</time>
      </trkpt>
      <trkpt lat="47.66558" lon="-3.17719">
        <ele>10.23</ele>
        <time>2016-07-25T11:45:33Z</time>
      </trkpt>
      <trkpt lat="47.66562" lon="-3.17718">
        <ele>10.23</ele>
        <time>2016-07-25T11:45:37Z</time>
      </trkpt>
      <trkpt lat="47.66564" lon="-3.17717">
        <ele>9.75</ele>
        <time>2016-07-25T11:45:38Z</time>
      </trkpt>
      <trkpt lat="47.66569" lon="-3.17717">
        <ele>9.27</ele>
        <time>2016-07-25T11:45:42Z</time>
      </trkpt>
      <trkpt lat="47.66583" lon="-3.17714">
        <ele>9.75</ele>
        <time>2016-07-25T11:45:54Z</time>
      </trkpt>
      <trkpt lat="47.66604" lon="-3.17711">
        <ele>9.27</ele>
        <time>2016-07-25T11:46:12Z</time>
      </trkpt>
      <trkpt lat="47.66605" lon="-3.17712">
        <ele>9.27</ele>
        <time>2016-07-25T11:46:13Z</time>
      </trkpt>
      <trkpt lat="47.66618" lon="-3.17715">
        <ele>7.83</ele>
        <time>2016-07-25T11:46:24Z</time>
      </trkpt>
      <trkpt lat="47.66619" lon="-3.17715">
        <ele>7.83</ele>
        <time>2016-07-25T11:46:25Z</time>
      </trkpt>
      <trkpt lat="47.66621" lon="-3.17715">
        <ele>7.83</ele>
        <time>2016-07-25T11:46:26Z</time>
      </trkpt>
      <trkpt lat="47.66633" lon="-3.17715">
        <ele>7.35</ele>
        <time>2016-07-25T11:46:39Z</time>
      </trkpt>
      <trkpt lat="47.66649" lon="-3.17721">
        <ele>9.75</ele>
        <time>2016-07-25T11:46:56Z</time>
      </trkpt>
      <trkpt lat="47.66665" lon="-3.17736">
        <ele>9.75</ele>
        <time>2016-07-25T11:47:11Z</time>
      </trkpt>
      <trkpt lat="47.66686" lon="-3.17752">
        <ele>11.19</ele>
        <time>2016-07-25T11:47:29Z</time>
      </trkpt>
      <trkpt lat="47.66702" lon="-3.17765">
        <ele>12.63</ele>
        <time>2016-07-25T11:47:45Z</time>
      </trkpt>
      <trkpt lat="47.6672" lon="-3.17775">
        <ele>15.52</ele>
        <time>2016-07-25T11:48:01Z</time>
      </trkpt>
      <trkpt lat="47.6673" lon="-3.17774">
        <ele>15.04</ele>
        <time>2016-07-25T11:48:08Z</time>
      </trkpt>
      <trkpt lat="47.66731" lon="-3.17772">
        <ele>15.04</ele>
        <time>2016-07-25T11:48:09Z</time>
      </trkpt>
      <trkpt lat="47.66732" lon="-3.1777">
        <ele>15.04</ele>
        <time>2016-07-25T11:48:10Z</time>
      </trkpt>
      <trkpt lat="47.66733" lon="-3.17769">
        <ele>15.04</ele>
        <time>2016-07-25T11:48:11Z</time>
      </trkpt>
      <trkpt lat="47.66735" lon="-3.17766">
        <ele>15.52</ele>
        <time>2016-07-25T11:48:19Z</time>
      </trkpt>
      <trkpt lat="47.66736" lon="-3.17765">
        <ele>15.52</ele>
        <time>2016-07-25T11:48:20Z</time>
      </trkpt>
      <trkpt lat="47.66736" lon="-3.17763">
        <ele>15.52</ele>
        <time>2016-07-25T11:48:21Z</time>
      </trkpt>
      <trkpt lat="47.66737" lon="-3.17762">
        <ele>15.52</ele>
        <time>2016-07-25T11:48:22Z</time>
      </trkpt>
      <trkpt lat="47.66738" lon="-3.17757">
        <ele>15.52</ele>
        <time>2016-07-25T11:48:25Z</time>
      </trkpt>
      <trkpt lat="47.66738" lon="-3.17755">
        <ele>15.52</ele>
        <time>2016-07-25T11:48:26Z</time>
      </trkpt>
      <trkpt lat="47.66739" lon="-3.17753">
        <ele>15.52</ele>
        <time>2016-07-25T11:48:27Z</time>
      </trkpt>
      <trkpt lat="47.66739" lon="-3.17751">
        <ele>15.52</ele>
        <time>2016-07-25T11:48:28Z</time>
      </trkpt>
      <trkpt lat="47.66739" lon="-3.1775">
        <ele>15.52</ele>
        <time>2016-07-25T11:48:29Z</time>
      </trkpt>
      <trkpt lat="47.6674" lon="-3.17745">
        <ele>15.52</ele>
        <time>2016-07-25T11:48:32Z</time>
      </trkpt>
      <trkpt lat="47.66748" lon="-3.17728">
        <ele>15.52</ele>
        <time>2016-07-25T11:48:42Z</time>
      </trkpt>
      <trkpt lat="47.6675" lon="-3.17725">
        <ele>16</ele>
        <time>2016-07-25T11:48:44Z</time>
      </trkpt>
      <trkpt lat="47.66751" lon="-3.17724">
        <ele>16.48</ele>
        <time>2016-07-25T11:48:45Z</time>
      </trkpt>
      <trkpt lat="47.66752" lon="-3.17723">
        <ele>16.48</ele>
        <time>2016-07-25T11:48:46Z</time>
      </trkpt>
      <trkpt lat="47.66753" lon="-3.17721">
        <ele>16.48</ele>
        <time>2016-07-25T11:48:47Z</time>
      </trkpt>
      <trkpt lat="47.66754" lon="-3.1772">
        <ele>16.96</ele>
        <time>2016-07-25T11:48:48Z</time>
      </trkpt>
      <trkpt lat="47.66754" lon="-3.17718">
        <ele>16.96</ele>
        <time>2016-07-25T11:48:49Z</time>
      </trkpt>
      <trkpt lat="47.66755" lon="-3.17717">
        <ele>17.44</ele>
        <time>2016-07-25T11:48:50Z</time>
      </trkpt>
      <trkpt lat="47.66766" lon="-3.17697">
        <ele>17.92</ele>
        <time>2016-07-25T11:49:04Z</time>
      </trkpt>
      <trkpt lat="47.66769" lon="-3.17693">
        <ele>17.44</ele>
        <time>2016-07-25T11:49:07Z</time>
      </trkpt>
      <trkpt lat="47.6677" lon="-3.17691">
        <ele>16.96</ele>
        <time>2016-07-25T11:49:08Z</time>
      </trkpt>
      <trkpt lat="47.6677" lon="-3.1769">
        <ele>16.96</ele>
        <time>2016-07-25T11:49:09Z</time>
      </trkpt>
      <trkpt lat="47.66782" lon="-3.17668">
        <ele>16</ele>
        <time>2016-07-25T11:49:23Z</time>
      </trkpt>
      <trkpt lat="47.66784" lon="-3.17663">
        <ele>16</ele>
        <time>2016-07-25T11:49:26Z</time>
      </trkpt>
      <trkpt lat="47.66785" lon="-3.17662">
        <ele>16</ele>
        <time>2016-07-25T11:49:27Z</time>
      </trkpt>
      <trkpt lat="47.66797" lon="-3.17639">
        <ele>16</ele>
        <time>2016-07-25T11:49:42Z</time>
      </trkpt>
      <trkpt lat="47.66798" lon="-3.17638">
        <ele>16</ele>
        <time>2016-07-25T11:49:43Z</time>
      </trkpt>
      <trkpt lat="47.66799" lon="-3.17637">
        <ele>16</ele>
        <time>2016-07-25T11:49:44Z</time>
      </trkpt>
      <trkpt lat="47.668" lon="-3.17635">
        <ele>16</ele>
        <time>2016-07-25T11:49:45Z</time>
      </trkpt>
      <trkpt lat="47.66809" lon="-3.17614">
        <ele>17.44</ele>
        <time>2016-07-25T11:49:59Z</time>
      </trkpt>
      <trkpt lat="47.66814" lon="-3.17599">
        <ele>17.44</ele>
        <time>2016-07-25T11:50:10Z</time>
      </trkpt>
      <trkpt lat="47.66815" lon="-3.17596">
        <ele>17.44</ele>
        <time>2016-07-25T11:50:12Z</time>
      </trkpt>
      <trkpt lat="47.66817" lon="-3.17592">
        <ele>17.44</ele>
        <time>2016-07-25T11:50:14Z</time>
      </trkpt>
      <trkpt lat="47.66817" lon="-3.1759">
        <ele>16.96</ele>
        <time>2016-07-25T11:50:15Z</time>
      </trkpt>
      <trkpt lat="47.66824" lon="-3.17574">
        <ele>15.52</ele>
        <time>2016-07-25T11:50:26Z</time>
      </trkpt>
      <trkpt lat="47.66832" lon="-3.17551">
        <ele>12.15</ele>
        <time>2016-07-25T11:50:39Z</time>
      </trkpt>
      <trkpt lat="47.66832" lon="-3.17548">
        <ele>12.15</ele>
        <time>2016-07-25T11:50:40Z</time>
      </trkpt>
      <trkpt lat="47.66833" lon="-3.17547">
        <ele>11.67</ele>
        <time>2016-07-25T11:50:41Z</time>
      </trkpt>
      <trkpt lat="47.66842" lon="-3.17523">
        <ele>12.15</ele>
        <time>2016-07-25T11:50:56Z</time>
      </trkpt>
      <trkpt lat="47.66843" lon="-3.1752">
        <ele>12.15</ele>
        <time>2016-07-25T11:50:58Z</time>
      </trkpt>
      <trkpt lat="47.66845" lon="-3.17518">
        <ele>12.63</ele>
        <time>2016-07-25T11:50:59Z</time>
      </trkpt>
      <trkpt lat="47.66851" lon="-3.17512">
        <ele>14.08</ele>
        <time>2016-07-25T11:51:05Z</time>
      </trkpt>
      <trkpt lat="47.66851" lon="-3.1751">
        <ele>14.08</ele>
        <time>2016-07-25T11:51:06Z</time>
      </trkpt>
      <trkpt lat="47.66854" lon="-3.17506">
        <ele>14.56</ele>
        <time>2016-07-25T11:51:09Z</time>
      </trkpt>
      <trkpt lat="47.66854" lon="-3.17505">
        <ele>14.56</ele>
        <time>2016-07-25T11:51:10Z</time>
      </trkpt>
      <trkpt lat="47.66855" lon="-3.17503">
        <ele>14.56</ele>
        <time>2016-07-25T11:51:11Z</time>
      </trkpt>
      <trkpt lat="47.66856" lon="-3.17502">
        <ele>14.56</ele>
        <time>2016-07-25T11:51:12Z</time>
      </trkpt>
      <trkpt lat="47.66857" lon="-3.17501">
        <ele>14.56</ele>
        <time>2016-07-25T11:51:13Z</time>
      </trkpt>
      <trkpt lat="47.66857" lon="-3.17499">
        <ele>14.56</ele>
        <time>2016-07-25T11:51:14Z</time>
      </trkpt>
      <trkpt lat="47.66859" lon="-3.17498">
        <ele>15.04</ele>
        <time>2016-07-25T11:51:15Z</time>
      </trkpt>
      <trkpt lat="47.66868" lon="-3.17481">
        <ele>16.48</ele>
        <time>2016-07-25T11:51:27Z</time>
      </trkpt>
      <trkpt lat="47.66869" lon="-3.17479">
        <ele>16</ele>
        <time>2016-07-25T11:51:30Z</time>
      </trkpt>
      <trkpt lat="47.66869" lon="-3.17477">
        <ele>16</ele>
        <time>2016-07-25T11:51:31Z</time>
      </trkpt>
      <trkpt lat="47.66873" lon="-3.17468">
        <ele>16.48</ele>
        <time>2016-07-25T11:51:38Z</time>
      </trkpt>
      <trkpt lat="47.66874" lon="-3.17466">
        <ele>16.48</ele>
        <time>2016-07-25T11:51:39Z</time>
      </trkpt>
      <trkpt lat="47.66875" lon="-3.17465">
        <ele>16.48</ele>
        <time>2016-07-25T11:51:40Z</time>
      </trkpt>
      <trkpt lat="47.66876" lon="-3.17463">
        <ele>16.96</ele>
        <time>2016-07-25T11:51:41Z</time>
      </trkpt>
      <trkpt lat="47.66877" lon="-3.17461">
        <ele>16.96</ele>
        <time>2016-07-25T11:51:42Z</time>
      </trkpt>
      <trkpt lat="47.66878" lon="-3.1746">
        <ele>16.96</ele>
        <time>2016-07-25T11:51:43Z</time>
      </trkpt>
      <trkpt lat="47.66879" lon="-3.17458">
        <ele>16.96</ele>
        <time>2016-07-25T11:51:44Z</time>
      </trkpt>
      <trkpt lat="47.66882" lon="-3.17453">
        <ele>17.44</ele>
        <time>2016-07-25T11:51:48Z</time>
      </trkpt>
      <trkpt lat="47.66883" lon="-3.17452">
        <ele>17.44</ele>
        <time>2016-07-25T11:51:49Z</time>
      </trkpt>
      <trkpt lat="47.6689" lon="-3.17436">
        <ele>17.92</ele>
        <time>2016-07-25T11:51:59Z</time>
      </trkpt>
      <trkpt lat="47.66897" lon="-3.17411">
        <ele>16.48</ele>
        <time>2016-07-25T11:52:15Z</time>
      </trkpt>
      <trkpt lat="47.66903" lon="-3.17391">
        <ele>15.04</ele>
        <time>2016-07-25T11:52:30Z</time>
      </trkpt>
      <trkpt lat="47.66919" lon="-3.17367">
        <ele>16.48</ele>
        <time>2016-07-25T11:52:45Z</time>
      </trkpt>
      <trkpt lat="47.66928" lon="-3.17346">
        <ele>16.96</ele>
        <time>2016-07-25T11:52:59Z</time>
      </trkpt>
      <trkpt lat="47.66938" lon="-3.17318">
        <ele>15.52</ele>
        <time>2016-07-25T11:53:17Z</time>
      </trkpt>
      <trkpt lat="47.66947" lon="-3.173">
        <ele>13.12</ele>
        <time>2016-07-25T11:53:31Z</time>
      </trkpt>
      <trkpt lat="47.66961" lon="-3.17285">
        <ele>13.12</ele>
        <time>2016-07-25T11:53:44Z</time>
      </trkpt>
      <trkpt lat="47.66963" lon="-3.17281">
        <ele>13.12</ele>
        <time>2016-07-25T11:53:47Z</time>
      </trkpt>
      <trkpt lat="47.66964" lon="-3.1728">
        <ele>13.12</ele>
        <time>2016-07-25T11:53:48Z</time>
      </trkpt>
      <trkpt lat="47.66981" lon="-3.17259">
        <ele>13.12</ele>
        <time>2016-07-25T11:54:04Z</time>
      </trkpt>
      <trkpt lat="47.66988" lon="-3.17255">
        <ele>10.23</ele>
        <time>2016-07-25T11:54:18Z</time>
      </trkpt>
      <trkpt lat="47.66988" lon="-3.17255">
        <ele>10.23</ele>
        <time>2016-07-25T11:54:19Z</time>
      </trkpt>
      <trkpt lat="47.66991" lon="-3.17254">
        <ele>9.27</ele>
        <time>2016-07-25T11:54:23Z</time>
      </trkpt>
      <trkpt lat="47.66992" lon="-3.17253">
        <ele>8.79</ele>
        <time>2016-07-25T11:54:24Z</time>
      </trkpt>
      <trkpt lat="47.67" lon="-3.17243">
        <ele>9.75</ele>
        <time>2016-07-25T11:54:32Z</time>
      </trkpt>
      <trkpt lat="47.67001" lon="-3.17242">
        <ele>9.75</ele>
        <time>2016-07-25T11:54:33Z</time>
      </trkpt>
      <trkpt lat="47.67002" lon="-3.1724">
        <ele>9.75</ele>
        <time>2016-07-25T11:54:34Z</time>
      </trkpt>
      <trkpt lat="47.67004" lon="-3.17235">
        <ele>9.75</ele>
        <time>2016-07-25T11:54:37Z</time>
      </trkpt>
      <trkpt lat="47.67005" lon="-3.17233">
        <ele>9.75</ele>
        <time>2016-07-25T11:54:38Z</time>
      </trkpt>
      <trkpt lat="47.67005" lon="-3.17231">
        <ele>9.75</ele>
        <time>2016-07-25T11:54:39Z</time>
      </trkpt>
      <trkpt lat="47.67007" lon="-3.17229">
        <ele>9.75</ele>
        <time>2016-07-25T11:54:40Z</time>
      </trkpt>
      <trkpt lat="47.67008" lon="-3.17227">
        <ele>10.23</ele>
        <time>2016-07-25T11:54:41Z</time>
      </trkpt>
      <trkpt lat="47.67008" lon="-3.17226">
        <ele>10.23</ele>
        <time>2016-07-25T11:54:42Z</time>
      </trkpt>
      <trkpt lat="47.67009" lon="-3.17224">
        <ele>10.71</ele>
        <time>2016-07-25T11:54:43Z</time>
      </trkpt>
      <trkpt lat="47.6701" lon="-3.17222">
        <ele>11.19</ele>
        <time>2016-07-25T11:54:44Z</time>
      </trkpt>
      <trkpt lat="47.67011" lon="-3.17221">
        <ele>11.19</ele>
        <time>2016-07-25T11:54:45Z</time>
      </trkpt>
      <trkpt lat="47.67012" lon="-3.17219">
        <ele>11.67</ele>
        <time>2016-07-25T11:54:46Z</time>
      </trkpt>
      <trkpt lat="47.67013" lon="-3.17218">
        <ele>12.15</ele>
        <time>2016-07-25T11:54:47Z</time>
      </trkpt>
      <trkpt lat="47.67018" lon="-3.17207">
        <ele>12.63</ele>
        <time>2016-07-25T11:54:54Z</time>
      </trkpt>
      <trkpt lat="47.67022" lon="-3.17203">
        <ele>12.15</ele>
        <time>2016-07-25T11:54:57Z</time>
      </trkpt>
      <trkpt lat="47.67022" lon="-3.17201">
        <ele>12.15</ele>
        <time>2016-07-25T11:54:58Z</time>
      </trkpt>
      <trkpt lat="47.67023" lon="-3.17199">
        <ele>11.67</ele>
        <time>2016-07-25T11:54:59Z</time>
      </trkpt>
      <trkpt lat="47.67024" lon="-3.17198">
        <ele>11.67</ele>
        <time>2016-07-25T11:55:00Z</time>
      </trkpt>
      <trkpt lat="47.67024" lon="-3.17196">
        <ele>11.67</ele>
        <time>2016-07-25T11:55:01Z</time>
      </trkpt>
      <trkpt lat="47.6703" lon="-3.17176">
        <ele>12.63</ele>
        <time>2016-07-25T11:55:13Z</time>
      </trkpt>
      <trkpt lat="47.6703" lon="-3.17174">
        <ele>12.63</ele>
        <time>2016-07-25T11:55:14Z</time>
      </trkpt>
      <trkpt lat="47.6703" lon="-3.17172">
        <ele>12.63</ele>
        <time>2016-07-25T11:55:15Z</time>
      </trkpt>
      <trkpt lat="47.67031" lon="-3.1717">
        <ele>12.63</ele>
        <time>2016-07-25T11:55:16Z</time>
      </trkpt>
      <trkpt lat="47.67031" lon="-3.17165">
        <ele>12.63</ele>
        <time>2016-07-25T11:55:19Z</time>
      </trkpt>
      <trkpt lat="47.67031" lon="-3.17163">
        <ele>13.12</ele>
        <time>2016-07-25T11:55:20Z</time>
      </trkpt>
      <trkpt lat="47.67033" lon="-3.17157">
        <ele>13.12</ele>
        <time>2016-07-25T11:55:24Z</time>
      </trkpt>
      <trkpt lat="47.67033" lon="-3.17154">
        <ele>13.12</ele>
        <time>2016-07-25T11:55:25Z</time>
      </trkpt>
      <trkpt lat="47.67033" lon="-3.17152">
        <ele>13.12</ele>
        <time>2016-07-25T11:55:26Z</time>
      </trkpt>
      <trkpt lat="47.67034" lon="-3.17127">
        <ele>13.6</ele>
        <time>2016-07-25T11:55:38Z</time>
      </trkpt>
      <trkpt lat="47.67037" lon="-3.17099">
        <ele>13.6</ele>
        <time>2016-07-25T11:55:53Z</time>
      </trkpt>
      <trkpt lat="47.67031" lon="-3.17077">
        <ele>14.56</ele>
        <time>2016-07-25T11:56:06Z</time>
      </trkpt>
      <trkpt lat="47.6703" lon="-3.17068">
        <ele>15.04</ele>
        <time>2016-07-25T11:56:11Z</time>
      </trkpt>
      <trkpt lat="47.6703" lon="-3.17066">
        <ele>15.04</ele>
        <time>2016-07-25T11:56:12Z</time>
      </trkpt>
      <trkpt lat="47.67031" lon="-3.17044">
        <ele>15.04</ele>
        <time>2016-07-25T11:56:23Z</time>
      </trkpt>
      <trkpt lat="47.67031" lon="-3.17024">
        <ele>15.52</ele>
        <time>2016-07-25T11:56:34Z</time>
      </trkpt>
      <trkpt lat="47.67034" lon="-3.17001">
        <ele>16.48</ele>
        <time>2016-07-25T11:56:47Z</time>
      </trkpt>
      <trkpt lat="47.67035" lon="-3.16994">
        <ele>16.48</ele>
        <time>2016-07-25T11:56:51Z</time>
      </trkpt>
      <trkpt lat="47.67032" lon="-3.16994">
        <ele>18.4</ele>
        <time>2016-07-25T11:57:04Z</time>
      </trkpt>
      <trkpt lat="47.67033" lon="-3.16992">
        <ele>18.4</ele>
        <time>2016-07-25T11:57:18Z</time>
      </trkpt>
      <trkpt lat="47.67034" lon="-3.16991">
        <ele>18.4</ele>
        <time>2016-07-25T11:57:19Z</time>
      </trkpt>
      <trkpt lat="47.67035" lon="-3.1699">
        <ele>18.4</ele>
        <time>2016-07-25T11:57:20Z</time>
      </trkpt>
      <trkpt lat="47.67036" lon="-3.16987">
        <ele>18.4</ele>
        <time>2016-07-25T11:57:22Z</time>
      </trkpt>
      <trkpt lat="47.67036" lon="-3.16979">
        <ele>18.4</ele>
        <time>2016-07-25T11:57:27Z</time>
      </trkpt>
      <trkpt lat="47.67037" lon="-3.16977">
        <ele>17.92</ele>
        <time>2016-07-25T11:57:28Z</time>
      </trkpt>
      <trkpt lat="47.67037" lon="-3.16975">
        <ele>17.44</ele>
        <time>2016-07-25T11:57:29Z</time>
      </trkpt>
      <trkpt lat="47.67039" lon="-3.16963">
        <ele>16</ele>
        <time>2016-07-25T11:57:37Z</time>
      </trkpt>
      <trkpt lat="47.67039" lon="-3.16961">
        <ele>16</ele>
        <time>2016-07-25T11:57:38Z</time>
      </trkpt>
      <trkpt lat="47.67039" lon="-3.16939">
        <ele>16.48</ele>
        <time>2016-07-25T11:57:50Z</time>
      </trkpt>
      <trkpt lat="47.6704" lon="-3.16918">
        <ele>16.96</ele>
        <time>2016-07-25T11:58:02Z</time>
      </trkpt>
      <trkpt lat="47.67041" lon="-3.16902">
        <ele>17.44</ele>
        <time>2016-07-25T11:58:12Z</time>
      </trkpt>
      <trkpt lat="47.67041" lon="-3.169">
        <ele>17.44</ele>
        <time>2016-07-25T11:58:13Z</time>
      </trkpt>
      <trkpt lat="47.67043" lon="-3.16875">
        <ele>17.92</ele>
        <time>2016-07-25T11:58:27Z</time>
      </trkpt>
      <trkpt lat="47.67044" lon="-3.16854">
        <ele>17.92</ele>
        <time>2016-07-25T11:58:38Z</time>
      </trkpt>
      <trkpt lat="47.67044" lon="-3.16852">
        <ele>18.4</ele>
        <time>2016-07-25T11:58:39Z</time>
      </trkpt>
      <trkpt lat="47.67044" lon="-3.16826">
        <ele>18.4</ele>
        <time>2016-07-25T11:58:53Z</time>
      </trkpt>
      <trkpt lat="47.67046" lon="-3.16802">
        <ele>17.92</ele>
        <time>2016-07-25T11:59:06Z</time>
      </trkpt>
      <trkpt lat="47.67048" lon="-3.16781">
        <ele>19.84</ele>
        <time>2016-07-25T11:59:18Z</time>
      </trkpt>
      <trkpt lat="47.67046" lon="-3.16779">
        <ele>19.84</ele>
        <time>2016-07-25T11:59:38Z</time>
      </trkpt>
      <trkpt lat="47.67048" lon="-3.16774">
        <ele>20.81</ele>
        <time>2016-07-25T11:59:58Z</time>
      </trkpt>
      <trkpt lat="47.67048" lon="-3.16768">
        <ele>21.29</ele>
        <time>2016-07-25T12:00:02Z</time>
      </trkpt>
      <trkpt lat="47.67048" lon="-3.16762">
        <ele>20.81</ele>
        <time>2016-07-25T12:00:09Z</time>
      </trkpt>
      <trkpt lat="47.67048" lon="-3.1676">
        <ele>20.32</ele>
        <time>2016-07-25T12:00:10Z</time>
      </trkpt>
      <trkpt lat="47.67048" lon="-3.16757">
        <ele>20.32</ele>
        <time>2016-07-25T12:00:11Z</time>
      </trkpt>
      <trkpt lat="47.67049" lon="-3.16737">
        <ele>17.92</ele>
        <time>2016-07-25T12:00:22Z</time>
      </trkpt>
      <trkpt lat="47.67051" lon="-3.16718">
        <ele>17.44</ele>
        <time>2016-07-25T12:00:34Z</time>
      </trkpt>
      <trkpt lat="47.67052" lon="-3.16717">
        <ele>16.96</ele>
        <time>2016-07-25T12:00:35Z</time>
      </trkpt>
      <trkpt lat="47.67054" lon="-3.16715">
        <ele>16.96</ele>
        <time>2016-07-25T12:00:37Z</time>
      </trkpt>
      <trkpt lat="47.67072" lon="-3.16715">
        <ele>14.56</ele>
        <time>2016-07-25T12:00:52Z</time>
      </trkpt>
      <trkpt lat="47.6709" lon="-3.16714">
        <ele>12.15</ele>
        <time>2016-07-25T12:01:07Z</time>
      </trkpt>
      <trkpt lat="47.67109" lon="-3.16713">
        <ele>10.23</ele>
        <time>2016-07-25T12:01:22Z</time>
      </trkpt>
      <trkpt lat="47.67126" lon="-3.16712">
        <ele>9.75</ele>
        <time>2016-07-25T12:01:35Z</time>
      </trkpt>
      <trkpt lat="47.67143" lon="-3.16712">
        <ele>10.23</ele>
        <time>2016-07-25T12:01:51Z</time>
      </trkpt>
      <trkpt lat="47.67145" lon="-3.16712">
        <ele>10.71</ele>
        <time>2016-07-25T12:01:52Z</time>
      </trkpt>
      <trkpt lat="47.67146" lon="-3.16712">
        <ele>10.71</ele>
        <time>2016-07-25T12:01:53Z</time>
      </trkpt>
      <trkpt lat="47.67147" lon="-3.16712">
        <ele>10.23</ele>
        <time>2016-07-25T12:01:54Z</time>
      </trkpt>
      <trkpt lat="47.67148" lon="-3.16712">
        <ele>10.23</ele>
        <time>2016-07-25T12:01:55Z</time>
      </trkpt>
      <trkpt lat="47.67159" lon="-3.16711">
        <ele>9.27</ele>
        <time>2016-07-25T12:02:05Z</time>
      </trkpt>
      <trkpt lat="47.6716" lon="-3.1671">
        <ele>9.75</ele>
        <time>2016-07-25T12:02:06Z</time>
      </trkpt>
      <trkpt lat="47.67168" lon="-3.16704">
        <ele>9.27</ele>
        <time>2016-07-25T12:02:13Z</time>
      </trkpt>
      <trkpt lat="47.6717" lon="-3.16703">
        <ele>9.27</ele>
        <time>2016-07-25T12:02:14Z</time>
      </trkpt>
      <trkpt lat="47.67171" lon="-3.16702">
        <ele>8.79</ele>
        <time>2016-07-25T12:02:15Z</time>
      </trkpt>
      <trkpt lat="47.6718" lon="-3.16696">
        <ele>8.31</ele>
        <time>2016-07-25T12:02:22Z</time>
      </trkpt>
      <trkpt lat="47.67181" lon="-3.16695">
        <ele>8.31</ele>
        <time>2016-07-25T12:02:23Z</time>
      </trkpt>
      <trkpt lat="47.67183" lon="-3.16694">
        <ele>8.31</ele>
        <time>2016-07-25T12:02:24Z</time>
      </trkpt>
      <trkpt lat="47.67184" lon="-3.16693">
        <ele>8.31</ele>
        <time>2016-07-25T12:02:25Z</time>
      </trkpt>
      <trkpt lat="47.67185" lon="-3.16692">
        <ele>8.31</ele>
        <time>2016-07-25T12:02:26Z</time>
      </trkpt>
      <trkpt lat="47.67201" lon="-3.16677">
        <ele>7.35</ele>
        <time>2016-07-25T12:02:41Z</time>
      </trkpt>
      <trkpt lat="47.67204" lon="-3.16675">
        <ele>7.83</ele>
        <time>2016-07-25T12:02:43Z</time>
      </trkpt>
      <trkpt lat="47.67205" lon="-3.16674">
        <ele>7.35</ele>
        <time>2016-07-25T12:02:45Z</time>
      </trkpt>
      <trkpt lat="47.67216" lon="-3.16665">
        <ele>11.19</ele>
        <time>2016-07-25T12:02:58Z</time>
      </trkpt>
      <trkpt lat="47.6722" lon="-3.1666">
        <ele>12.15</ele>
        <time>2016-07-25T12:03:14Z</time>
      </trkpt>
      <trkpt lat="47.67225" lon="-3.16657">
        <ele>12.63</ele>
        <time>2016-07-25T12:03:33Z</time>
      </trkpt>
      <trkpt lat="47.67232" lon="-3.16653">
        <ele>11.19</ele>
        <time>2016-07-25T12:03:39Z</time>
      </trkpt>
      <trkpt lat="47.67245" lon="-3.16646">
        <ele>11.19</ele>
        <time>2016-07-25T12:03:51Z</time>
      </trkpt>
      <trkpt lat="47.67262" lon="-3.16634">
        <ele>11.19</ele>
        <time>2016-07-25T12:04:09Z</time>
      </trkpt>
      <trkpt lat="47.67281" lon="-3.16622">
        <ele>9.27</ele>
        <time>2016-07-25T12:04:24Z</time>
      </trkpt>
      <trkpt lat="47.67282" lon="-3.16621">
        <ele>9.27</ele>
        <time>2016-07-25T12:04:25Z</time>
      </trkpt>
      <trkpt lat="47.67283" lon="-3.1662">
        <ele>9.27</ele>
        <time>2016-07-25T12:04:26Z</time>
      </trkpt>
      <trkpt lat="47.67284" lon="-3.16619">
        <ele>8.79</ele>
        <time>2016-07-25T12:04:27Z</time>
      </trkpt>
      <trkpt lat="47.67285" lon="-3.16618">
        <ele>8.79</ele>
        <time>2016-07-25T12:04:28Z</time>
      </trkpt>
      <trkpt lat="47.67286" lon="-3.16617">
        <ele>8.79</ele>
        <time>2016-07-25T12:04:29Z</time>
      </trkpt>
      <trkpt lat="47.67287" lon="-3.16616">
        <ele>8.79</ele>
        <time>2016-07-25T12:04:30Z</time>
      </trkpt>
      <trkpt lat="47.67303" lon="-3.16602">
        <ele>9.27</ele>
        <time>2016-07-25T12:04:44Z</time>
      </trkpt>
      <trkpt lat="47.67319" lon="-3.16589">
        <ele>10.23</ele>
        <time>2016-07-25T12:04:59Z</time>
      </trkpt>
      <trkpt lat="47.67337" lon="-3.16575">
        <ele>10.23</ele>
        <time>2016-07-25T12:05:15Z</time>
      </trkpt>
      <trkpt lat="47.67347" lon="-3.16566">
        <ele>9.75</ele>
        <time>2016-07-25T12:05:25Z</time>
      </trkpt>
      <trkpt lat="47.67362" lon="-3.16547">
        <ele>9.75</ele>
        <time>2016-07-25T12:05:39Z</time>
      </trkpt>
      <trkpt lat="47.67371" lon="-3.16531">
        <ele>6.87</ele>
        <time>2016-07-25T12:05:53Z</time>
      </trkpt>
      <trkpt lat="47.67378" lon="-3.16524">
        <ele>4.94</ele>
        <time>2016-07-25T12:06:00Z</time>
      </trkpt>
      <trkpt lat="47.67379" lon="-3.16524">
        <ele>4.94</ele>
        <time>2016-07-25T12:06:01Z</time>
      </trkpt>
      <trkpt lat="47.67381" lon="-3.16523">
        <ele>4.46</ele>
        <time>2016-07-25T12:06:02Z</time>
      </trkpt>
      <trkpt lat="47.67384" lon="-3.16521">
        <ele>3.98</ele>
        <time>2016-07-25T12:06:05Z</time>
      </trkpt>
      <trkpt lat="47.67385" lon="-3.16521">
        <ele>3.98</ele>
        <time>2016-07-25T12:06:06Z</time>
      </trkpt>
      <trkpt lat="47.674" lon="-3.16521">
        <ele>3.5</ele>
        <time>2016-07-25T12:06:19Z</time>
      </trkpt>
      <trkpt lat="47.6742" lon="-3.16508">
        <ele>11.19</ele>
        <time>2016-07-25T12:06:36Z</time>
      </trkpt>
      <trkpt lat="47.67437" lon="-3.16497">
        <ele>14.56</ele>
        <time>2016-07-25T12:06:51Z</time>
      </trkpt>
      <trkpt lat="47.67452" lon="-3.16487">
        <ele>15.04</ele>
        <time>2016-07-25T12:07:04Z</time>
      </trkpt>
      <trkpt lat="47.67469" lon="-3.16475">
        <ele>15.52</ele>
        <time>2016-07-25T12:07:20Z</time>
      </trkpt>
      <trkpt lat="47.67474" lon="-3.16472">
        <ele>15.52</ele>
        <time>2016-07-25T12:07:25Z</time>
      </trkpt>
      <trkpt lat="47.67475" lon="-3.16471">
        <ele>16</ele>
        <time>2016-07-25T12:07:26Z</time>
      </trkpt>
      <trkpt lat="47.67487" lon="-3.16467">
        <ele>16</ele>
        <time>2016-07-25T12:07:36Z</time>
      </trkpt>
      <trkpt lat="47.67489" lon="-3.16467">
        <ele>16</ele>
        <time>2016-07-25T12:07:37Z</time>
      </trkpt>
      <trkpt lat="47.6749" lon="-3.16466">
        <ele>16</ele>
        <time>2016-07-25T12:07:38Z</time>
      </trkpt>
      <trkpt lat="47.67492" lon="-3.16466">
        <ele>16</ele>
        <time>2016-07-25T12:07:39Z</time>
      </trkpt>
      <trkpt lat="47.67493" lon="-3.16466">
        <ele>15.52</ele>
        <time>2016-07-25T12:07:40Z</time>
      </trkpt>
      <trkpt lat="47.67496" lon="-3.16466">
        <ele>15.52</ele>
        <time>2016-07-25T12:07:42Z</time>
      </trkpt>
      <trkpt lat="47.67506" lon="-3.16466">
        <ele>14.56</ele>
        <time>2016-07-25T12:07:51Z</time>
      </trkpt>
      <trkpt lat="47.67507" lon="-3.16466">
        <ele>14.56</ele>
        <time>2016-07-25T12:07:52Z</time>
      </trkpt>
      <trkpt lat="47.67508" lon="-3.16466">
        <ele>14.56</ele>
        <time>2016-07-25T12:07:53Z</time>
      </trkpt>
      <trkpt lat="47.67509" lon="-3.16465">
        <ele>15.04</ele>
        <time>2016-07-25T12:07:54Z</time>
      </trkpt>
      <trkpt lat="47.67511" lon="-3.16466">
        <ele>15.52</ele>
        <time>2016-07-25T12:07:55Z</time>
      </trkpt>
      <trkpt lat="47.67524" lon="-3.16464">
        <ele>16.96</ele>
        <time>2016-07-25T12:08:08Z</time>
      </trkpt>
      <trkpt lat="47.67534" lon="-3.16461">
        <ele>16.96</ele>
        <time>2016-07-25T12:08:18Z</time>
      </trkpt>
      <trkpt lat="47.67535" lon="-3.16461">
        <ele>16.96</ele>
        <time>2016-07-25T12:08:19Z</time>
      </trkpt>
      <trkpt lat="47.67555" lon="-3.16456">
        <ele>17.44</ele>
        <time>2016-07-25T12:08:34Z</time>
      </trkpt>
      <trkpt lat="47.67579" lon="-3.16449">
        <ele>16.48</ele>
        <time>2016-07-25T12:08:47Z</time>
      </trkpt>
      <trkpt lat="47.67591" lon="-3.16441">
        <ele>12.63</ele>
        <time>2016-07-25T12:08:58Z</time>
      </trkpt>
      <trkpt lat="47.67611" lon="-3.16431">
        <ele>15.04</ele>
        <time>2016-07-25T12:09:14Z</time>
      </trkpt>
      <trkpt lat="47.6763" lon="-3.16421">
        <ele>15.04</ele>
        <time>2016-07-25T12:09:30Z</time>
      </trkpt>
      <trkpt lat="47.67648" lon="-3.1641">
        <ele>16</ele>
        <time>2016-07-25T12:09:46Z</time>
      </trkpt>
      <trkpt lat="47.67652" lon="-3.16406">
        <ele>16</ele>
        <time>2016-07-25T12:09:50Z</time>
      </trkpt>
      <trkpt lat="47.67653" lon="-3.16405">
        <ele>16</ele>
        <time>2016-07-25T12:09:51Z</time>
      </trkpt>
      <trkpt lat="47.67655" lon="-3.16405">
        <ele>16</ele>
        <time>2016-07-25T12:09:52Z</time>
      </trkpt>
      <trkpt lat="47.67656" lon="-3.16405">
        <ele>15.52</ele>
        <time>2016-07-25T12:09:53Z</time>
      </trkpt>
      <trkpt lat="47.67657" lon="-3.16404">
        <ele>15.52</ele>
        <time>2016-07-25T12:09:54Z</time>
      </trkpt>
      <trkpt lat="47.67659" lon="-3.16404">
        <ele>15.52</ele>
        <time>2016-07-25T12:09:55Z</time>
      </trkpt>
      <trkpt lat="47.6766" lon="-3.16403">
        <ele>15.52</ele>
        <time>2016-07-25T12:09:56Z</time>
      </trkpt>
      <trkpt lat="47.67677" lon="-3.16394">
        <ele>14.08</ele>
        <time>2016-07-25T12:10:10Z</time>
      </trkpt>
      <trkpt lat="47.677" lon="-3.16387">
        <ele>14.08</ele>
        <time>2016-07-25T12:10:28Z</time>
      </trkpt>
      <trkpt lat="47.67721" lon="-3.16386">
        <ele>14.56</ele>
        <time>2016-07-25T12:10:43Z</time>
      </trkpt>
      <trkpt lat="47.67742" lon="-3.16384">
        <ele>14.56</ele>
        <time>2016-07-25T12:10:57Z</time>
      </trkpt>
      <trkpt lat="47.6776" lon="-3.16385">
        <ele>13.6</ele>
        <time>2016-07-25T12:11:11Z</time>
      </trkpt>
      <trkpt lat="47.67761" lon="-3.16385">
        <ele>13.6</ele>
        <time>2016-07-25T12:11:12Z</time>
      </trkpt>
      <trkpt lat="47.67762" lon="-3.16386">
        <ele>13.6</ele>
        <time>2016-07-25T12:11:13Z</time>
      </trkpt>
      <trkpt lat="47.67763" lon="-3.16386">
        <ele>14.08</ele>
        <time>2016-07-25T12:11:14Z</time>
      </trkpt>
      <trkpt lat="47.67768" lon="-3.16386">
        <ele>13.6</ele>
        <time>2016-07-25T12:11:19Z</time>
      </trkpt>
      <trkpt lat="47.67769" lon="-3.16385">
        <ele>13.6</ele>
        <time>2016-07-25T12:11:20Z</time>
      </trkpt>
      <trkpt lat="47.67789" lon="-3.1638">
        <ele>15.52</ele>
        <time>2016-07-25T12:11:38Z</time>
      </trkpt>
      <trkpt lat="47.6781" lon="-3.16382">
        <ele>18.88</ele>
        <time>2016-07-25T12:11:54Z</time>
      </trkpt>
      <trkpt lat="47.67819" lon="-3.16383">
        <ele>19.84</ele>
        <time>2016-07-25T12:12:01Z</time>
      </trkpt>
      <trkpt lat="47.67821" lon="-3.16382">
        <ele>20.32</ele>
        <time>2016-07-25T12:12:02Z</time>
      </trkpt>
      <trkpt lat="47.67829" lon="-3.16381">
        <ele>20.32</ele>
        <time>2016-07-25T12:12:08Z</time>
      </trkpt>
      <trkpt lat="47.67833" lon="-3.1638">
        <ele>20.81</ele>
        <time>2016-07-25T12:12:09Z</time>
      </trkpt>
      <trkpt lat="47.67857" lon="-3.16372">
        <ele>15.52</ele>
        <time>2016-07-25T12:12:22Z</time>
      </trkpt>
      <trkpt lat="47.67859" lon="-3.16371">
        <ele>15.52</ele>
        <time>2016-07-25T12:12:23Z</time>
      </trkpt>
      <trkpt lat="47.6786" lon="-3.16371">
        <ele>15.04</ele>
        <time>2016-07-25T12:12:24Z</time>
      </trkpt>
      <trkpt lat="47.67862" lon="-3.1637">
        <ele>14.56</ele>
        <time>2016-07-25T12:12:25Z</time>
      </trkpt>
      <trkpt lat="47.67863" lon="-3.16369">
        <ele>14.56</ele>
        <time>2016-07-25T12:12:26Z</time>
      </trkpt>
      <trkpt lat="47.67886" lon="-3.16351">
        <ele>12.15</ele>
        <time>2016-07-25T12:12:44Z</time>
      </trkpt>
      <trkpt lat="47.67904" lon="-3.16337">
        <ele>10.71</ele>
        <time>2016-07-25T12:12:59Z</time>
      </trkpt>
      <trkpt lat="47.67924" lon="-3.16325">
        <ele>9.75</ele>
        <time>2016-07-25T12:13:14Z</time>
      </trkpt>
      <trkpt lat="47.67941" lon="-3.16317">
        <ele>8.31</ele>
        <time>2016-07-25T12:13:27Z</time>
      </trkpt>
      <trkpt lat="47.67961" lon="-3.16304">
        <ele>6.87</ele>
        <time>2016-07-25T12:13:43Z</time>
      </trkpt>
      <trkpt lat="47.67979" lon="-3.16282">
        <ele>5.42</ele>
        <time>2016-07-25T12:14:01Z</time>
      </trkpt>
      <trkpt lat="47.67993" lon="-3.16256">
        <ele>3.5</ele>
        <time>2016-07-25T12:14:17Z</time>
      </trkpt>
      <trkpt lat="47.68002" lon="-3.16231">
        <ele>3.02</ele>
        <time>2016-07-25T12:14:32Z</time>
      </trkpt>
      <trkpt lat="47.68005" lon="-3.16224">
        <ele>3.02</ele>
        <time>2016-07-25T12:14:45Z</time>
      </trkpt>
      <trkpt lat="47.68002" lon="-3.16229">
        <ele>1.58</ele>
        <time>2016-07-25T12:14:56Z</time>
      </trkpt>
      <trkpt lat="47.68001" lon="-3.1623">
        <ele>1.58</ele>
        <time>2016-07-25T12:14:57Z</time>
      </trkpt>
      <trkpt lat="47.68002" lon="-3.16232">
        <ele>1.58</ele>
        <time>2016-07-25T12:14:58Z</time>
      </trkpt>
      <trkpt lat="47.68002" lon="-3.16234">
        <ele>2.06</ele>
        <time>2016-07-25T12:14:59Z</time>
      </trkpt>
      <trkpt lat="47.68002" lon="-3.16235">
        <ele>2.06</ele>
        <time>2016-07-25T12:15:00Z</time>
      </trkpt>
      <trkpt lat="47.68007" lon="-3.16254">
        <ele>0.62</ele>
        <time>2016-07-25T12:15:13Z</time>
      </trkpt>
      <trkpt lat="47.68007" lon="-3.16256">
        <ele>0.62</ele>
        <time>2016-07-25T12:15:14Z</time>
      </trkpt>
      <trkpt lat="47.68007" lon="-3.16258">
        <ele>0.62</ele>
        <time>2016-07-25T12:15:15Z</time>
      </trkpt>
      <trkpt lat="47.68008" lon="-3.1626">
        <ele>1.1</ele>
        <time>2016-07-25T12:15:16Z</time>
      </trkpt>
      <trkpt lat="47.68008" lon="-3.16262">
        <ele>1.1</ele>
        <time>2016-07-25T12:15:17Z</time>
      </trkpt>
      <trkpt lat="47.68008" lon="-3.16282">
        <ele>1.1</ele>
        <time>2016-07-25T12:15:28Z</time>
      </trkpt>
      <trkpt lat="47.68008" lon="-3.16284">
        <ele>1.1</ele>
        <time>2016-07-25T12:15:29Z</time>
      </trkpt>
      <trkpt lat="47.68006" lon="-3.16305">
        <ele>1.1</ele>
        <time>2016-07-25T12:15:41Z</time>
      </trkpt>
      <trkpt lat="47.67995" lon="-3.16323">
        <ele>0.62</ele>
        <time>2016-07-25T12:15:55Z</time>
      </trkpt>
      <trkpt lat="47.67987" lon="-3.16349">
        <ele>1.1</ele>
        <time>2016-07-25T12:16:10Z</time>
      </trkpt>
      <trkpt lat="47.67987" lon="-3.16366">
        <ele>2.54</ele>
        <time>2016-07-25T12:16:23Z</time>
      </trkpt>
      <trkpt lat="47.67987" lon="-3.16379">
        <ele>3.02</ele>
        <time>2016-07-25T12:16:31Z</time>
      </trkpt>
      <trkpt lat="47.67988" lon="-3.16387">
        <ele>3.02</ele>
        <time>2016-07-25T12:16:36Z</time>
      </trkpt>
      <trkpt lat="47.67991" lon="-3.16406">
        <ele>2.06</ele>
        <time>2016-07-25T12:16:49Z</time>
      </trkpt>
      <trkpt lat="47.67996" lon="-3.16433">
        <ele>-1.3</ele>
        <time>2016-07-25T12:17:05Z</time>
      </trkpt>
      <trkpt lat="47.67997" lon="-3.16441">
        <ele>-1.3</ele>
        <time>2016-07-25T12:17:09Z</time>
      </trkpt>
      <trkpt lat="47.68006" lon="-3.16466">
        <ele>-1.3</ele>
        <time>2016-07-25T12:17:24Z</time>
      </trkpt>
      <trkpt lat="47.68013" lon="-3.1649">
        <ele>-2.27</ele>
        <time>2016-07-25T12:17:39Z</time>
      </trkpt>
      <trkpt lat="47.68017" lon="-3.16511">
        <ele>-3.23</ele>
        <time>2016-07-25T12:17:52Z</time>
      </trkpt>
      <trkpt lat="47.68021" lon="-3.16539">
        <ele>-5.15</ele>
        <time>2016-07-25T12:18:08Z</time>
      </trkpt>
      <trkpt lat="47.68019" lon="-3.16558">
        <ele>-4.67</ele>
        <time>2016-07-25T12:18:21Z</time>
      </trkpt>
      <trkpt lat="47.68022" lon="-3.16577">
        <ele>-4.67</ele>
        <time>2016-07-25T12:18:32Z</time>
      </trkpt>
      <trkpt lat="47.68022" lon="-3.16579">
        <ele>-4.67</ele>
        <time>2016-07-25T12:18:33Z</time>
      </trkpt>
      <trkpt lat="47.68021" lon="-3.16609">
        <ele>-4.19</ele>
        <time>2016-07-25T12:18:49Z</time>
      </trkpt>
      <trkpt lat="47.68024" lon="-3.16637">
        <ele>-4.67</ele>
        <time>2016-07-25T12:19:06Z</time>
      </trkpt>
      <trkpt lat="47.68026" lon="-3.16643">
        <ele>-4.67</ele>
        <time>2016-07-25T12:19:09Z</time>
      </trkpt>
      <trkpt lat="47.68027" lon="-3.16646">
        <ele>-4.67</ele>
        <time>2016-07-25T12:19:10Z</time>
      </trkpt>
      <trkpt lat="47.68034" lon="-3.16667">
        <ele>-4.67</ele>
        <time>2016-07-25T12:19:23Z</time>
      </trkpt>
      <trkpt lat="47.68039" lon="-3.16677">
        <ele>-3.71</ele>
        <time>2016-07-25T12:19:30Z</time>
      </trkpt>
      <trkpt lat="47.6804" lon="-3.16678">
        <ele>-3.71</ele>
        <time>2016-07-25T12:19:31Z</time>
      </trkpt>
      <trkpt lat="47.68058" lon="-3.16688">
        <ele>-2.75</ele>
        <time>2016-07-25T12:19:45Z</time>
      </trkpt>
      <trkpt lat="47.68062" lon="-3.16693">
        <ele>-2.27</ele>
        <time>2016-07-25T12:19:49Z</time>
      </trkpt>
      <trkpt lat="47.68062" lon="-3.16697">
        <ele>-1.3</ele>
        <time>2016-07-25T12:19:52Z</time>
      </trkpt>
      <trkpt lat="47.68062" lon="-3.16699">
        <ele>-1.3</ele>
        <time>2016-07-25T12:19:53Z</time>
      </trkpt>
      <trkpt lat="47.68057" lon="-3.16713">
        <ele>-0.34</ele>
        <time>2016-07-25T12:20:03Z</time>
      </trkpt>
      <trkpt lat="47.68056" lon="-3.16715">
        <ele>-0.34</ele>
        <time>2016-07-25T12:20:04Z</time>
      </trkpt>
      <trkpt lat="47.68055" lon="-3.16716">
        <ele>-0.34</ele>
        <time>2016-07-25T12:20:05Z</time>
      </trkpt>
      <trkpt lat="47.68048" lon="-3.16742">
        <ele>-0.82</ele>
        <time>2016-07-25T12:20:21Z</time>
      </trkpt>
      <trkpt lat="47.68046" lon="-3.16757">
        <ele>-3.71</ele>
        <time>2016-07-25T12:20:34Z</time>
      </trkpt>
      <trkpt lat="47.68045" lon="-3.16765">
        <ele>-5.15</ele>
        <time>2016-07-25T12:20:39Z</time>
      </trkpt>
      <trkpt lat="47.6805" lon="-3.16798">
        <ele>-4.19</ele>
        <time>2016-07-25T12:20:57Z</time>
      </trkpt>
      <trkpt lat="47.6805" lon="-3.16802">
        <ele>-4.67</ele>
        <time>2016-07-25T12:20:59Z</time>
      </trkpt>
      <trkpt lat="47.6805" lon="-3.16804">
        <ele>-5.15</ele>
        <time>2016-07-25T12:21:00Z</time>
      </trkpt>
      <trkpt lat="47.6805" lon="-3.16806">
        <ele>-5.15</ele>
        <time>2016-07-25T12:21:01Z</time>
      </trkpt>
      <trkpt lat="47.68052" lon="-3.16811">
        <ele>-5.15</ele>
        <time>2016-07-25T12:21:05Z</time>
      </trkpt>
      <trkpt lat="47.68052" lon="-3.16814">
        <ele>-5.63</ele>
        <time>2016-07-25T12:21:06Z</time>
      </trkpt>
      <trkpt lat="47.68053" lon="-3.16815">
        <ele>-5.63</ele>
        <time>2016-07-25T12:21:07Z</time>
      </trkpt>
      <trkpt lat="47.68055" lon="-3.16819">
        <ele>-6.59</ele>
        <time>2016-07-25T12:21:10Z</time>
      </trkpt>
      <trkpt lat="47.68065" lon="-3.16823">
        <ele>-4.19</ele>
        <time>2016-07-25T12:21:21Z</time>
      </trkpt>
      <trkpt lat="47.68066" lon="-3.16823">
        <ele>-4.19</ele>
        <time>2016-07-25T12:21:22Z</time>
      </trkpt>
      <trkpt lat="47.68067" lon="-3.16823">
        <ele>-4.19</ele>
        <time>2016-07-25T12:21:23Z</time>
      </trkpt>
      <trkpt lat="47.6807" lon="-3.16824">
        <ele>-4.19</ele>
        <time>2016-07-25T12:21:25Z</time>
      </trkpt>
      <trkpt lat="47.68071" lon="-3.16824">
        <ele>-3.71</ele>
        <time>2016-07-25T12:21:26Z</time>
      </trkpt>
      <trkpt lat="47.68073" lon="-3.16825">
        <ele>-3.71</ele>
        <time>2016-07-25T12:21:27Z</time>
      </trkpt>
      <trkpt lat="47.68074" lon="-3.16825">
        <ele>-3.71</ele>
        <time>2016-07-25T12:21:28Z</time>
      </trkpt>
      <trkpt lat="47.68075" lon="-3.16825">
        <ele>-3.23</ele>
        <time>2016-07-25T12:21:29Z</time>
      </trkpt>
      <trkpt lat="47.68076" lon="-3.16826">
        <ele>-3.71</ele>
        <time>2016-07-25T12:21:30Z</time>
      </trkpt>
      <trkpt lat="47.68078" lon="-3.16826">
        <ele>-3.71</ele>
        <time>2016-07-25T12:21:31Z</time>
      </trkpt>
      <trkpt lat="47.68079" lon="-3.16827">
        <ele>-3.71</ele>
        <time>2016-07-25T12:21:32Z</time>
      </trkpt>
      <trkpt lat="47.68098" lon="-3.16828">
        <ele>-3.71</ele>
        <time>2016-07-25T12:21:46Z</time>
      </trkpt>
      <trkpt lat="47.68113" lon="-3.16823">
        <ele>-1.79</ele>
        <time>2016-07-25T12:21:58Z</time>
      </trkpt>
      <trkpt lat="47.68114" lon="-3.16824">
        <ele>-1.79</ele>
        <time>2016-07-25T12:21:59Z</time>
      </trkpt>
      <trkpt lat="47.68118" lon="-3.16835">
        <ele>-0.82</ele>
        <time>2016-07-25T12:22:06Z</time>
      </trkpt>
      <trkpt lat="47.68125" lon="-3.16854">
        <ele>-1.3</ele>
        <time>2016-07-25T12:22:19Z</time>
      </trkpt>
      <trkpt lat="47.68126" lon="-3.16855">
        <ele>-1.79</ele>
        <time>2016-07-25T12:22:20Z</time>
      </trkpt>
      <trkpt lat="47.68127" lon="-3.16856">
        <ele>-1.79</ele>
        <time>2016-07-25T12:22:21Z</time>
      </trkpt>
      <trkpt lat="47.68139" lon="-3.16868">
        <ele>-5.63</ele>
        <time>2016-07-25T12:22:35Z</time>
      </trkpt>
      <trkpt lat="47.68148" lon="-3.16871">
        <ele>-7.55</ele>
        <time>2016-07-25T12:22:43Z</time>
      </trkpt>
      <trkpt lat="47.68152" lon="-3.1688">
        <ele>-9.96</ele>
        <time>2016-07-25T12:22:52Z</time>
      </trkpt>
      <trkpt lat="47.68154" lon="-3.16892">
        <ele>-11.4</ele>
        <time>2016-07-25T12:22:59Z</time>
      </trkpt>
      <trkpt lat="47.68158" lon="-3.16909">
        <ele>-12.84</ele>
        <time>2016-07-25T12:23:13Z</time>
      </trkpt>
      <trkpt lat="47.68159" lon="-3.16921">
        <ele>-11.88</ele>
        <time>2016-07-25T12:23:26Z</time>
      </trkpt>
      <trkpt lat="47.68161" lon="-3.16926">
        <ele>-11.4</ele>
        <time>2016-07-25T12:23:30Z</time>
      </trkpt>
      <trkpt lat="47.68162" lon="-3.16927">
        <ele>-10.92</ele>
        <time>2016-07-25T12:23:31Z</time>
      </trkpt>
      <trkpt lat="47.68173" lon="-3.16931">
        <ele>-8.51</ele>
        <time>2016-07-25T12:23:44Z</time>
      </trkpt>
      <trkpt lat="47.68174" lon="-3.16931">
        <ele>-8.03</ele>
        <time>2016-07-25T12:23:45Z</time>
      </trkpt>
      <trkpt lat="47.68175" lon="-3.16932">
        <ele>-8.03</ele>
        <time>2016-07-25T12:23:46Z</time>
      </trkpt>
      <trkpt lat="47.68176" lon="-3.16933">
        <ele>-7.55</ele>
        <time>2016-07-25T12:23:47Z</time>
      </trkpt>
      <trkpt lat="47.68177" lon="-3.16935">
        <ele>-7.55</ele>
        <time>2016-07-25T12:23:48Z</time>
      </trkpt>
      <trkpt lat="47.68179" lon="-3.16942">
        <ele>-3.71</ele>
        <time>2016-07-25T12:23:55Z</time>
      </trkpt>
      <trkpt lat="47.68176" lon="-3.16963">
        <ele>0.62</ele>
        <time>2016-07-25T12:24:10Z</time>
      </trkpt>
      <trkpt lat="47.68173" lon="-3.16974">
        <ele>0.14</ele>
        <time>2016-07-25T12:24:18Z</time>
      </trkpt>
      <trkpt lat="47.68173" lon="-3.16976">
        <ele>0.14</ele>
        <time>2016-07-25T12:24:19Z</time>
      </trkpt>
      <trkpt lat="47.68174" lon="-3.16981">
        <ele>0.14</ele>
        <time>2016-07-25T12:24:22Z</time>
      </trkpt>
      <trkpt lat="47.68179" lon="-3.1699">
        <ele>0.14</ele>
        <time>2016-07-25T12:24:33Z</time>
      </trkpt>
      <trkpt lat="47.68189" lon="-3.17017">
        <ele>0.14</ele>
        <time>2016-07-25T12:24:50Z</time>
      </trkpt>
      <trkpt lat="47.68194" lon="-3.1704">
        <ele>-0.34</ele>
        <time>2016-07-25T12:25:04Z</time>
      </trkpt>
      <trkpt lat="47.68201" lon="-3.17063">
        <ele>0.14</ele>
        <time>2016-07-25T12:25:18Z</time>
      </trkpt>
      <trkpt lat="47.68202" lon="-3.17064">
        <ele>0.14</ele>
        <time>2016-07-25T12:25:19Z</time>
      </trkpt>
      <trkpt lat="47.68211" lon="-3.17083">
        <ele>1.1</ele>
        <time>2016-07-25T12:25:32Z</time>
      </trkpt>
      <trkpt lat="47.68222" lon="-3.17097">
        <ele>1.58</ele>
        <time>2016-07-25T12:25:44Z</time>
      </trkpt>
      <trkpt lat="47.68229" lon="-3.17114">
        <ele>2.54</ele>
        <time>2016-07-25T12:25:56Z</time>
      </trkpt>
      <trkpt lat="47.68234" lon="-3.17135">
        <ele>2.54</ele>
        <time>2016-07-25T12:26:09Z</time>
      </trkpt>
      <trkpt lat="47.68238" lon="-3.17144">
        <ele>2.54</ele>
        <time>2016-07-25T12:26:15Z</time>
      </trkpt>
      <trkpt lat="47.6824" lon="-3.17153">
        <ele>2.54</ele>
        <time>2016-07-25T12:26:21Z</time>
      </trkpt>
      <trkpt lat="47.6824" lon="-3.17171">
        <ele>2.54</ele>
        <time>2016-07-25T12:26:33Z</time>
      </trkpt>
      <trkpt lat="47.68235" lon="-3.17174">
        <ele>-0.34</ele>
        <time>2016-07-25T12:26:45Z</time>
      </trkpt>
      <trkpt lat="47.68234" lon="-3.17174">
        <ele>-1.79</ele>
        <time>2016-07-25T12:27:01Z</time>
      </trkpt>
      <trkpt lat="47.68236" lon="-3.17177">
        <ele>-3.71</ele>
        <time>2016-07-25T12:27:26Z</time>
      </trkpt>
      <trkpt lat="47.68241" lon="-3.17177">
        <ele>-3.23</ele>
        <time>2016-07-25T12:27:55Z</time>
      </trkpt>
      <trkpt lat="47.68237" lon="-3.17168">
        <ele>-2.75</ele>
        <time>2016-07-25T12:28:17Z</time>
      </trkpt>
      <trkpt lat="47.68234" lon="-3.17169">
        <ele>3.02</ele>
        <time>2016-07-25T12:28:57Z</time>
      </trkpt>
      <trkpt lat="47.68237" lon="-3.17167">
        <ele>5.91</ele>
        <time>2016-07-25T12:29:33Z</time>
      </trkpt>
      <trkpt lat="47.68233" lon="-3.17167">
        <ele>10.23</ele>
        <time>2016-07-25T12:30:16Z</time>
      </trkpt>
      <trkpt lat="47.68232" lon="-3.17168">
        <ele>6.87</ele>
        <time>2016-07-25T12:30:56Z</time>
      </trkpt>
      <trkpt lat="47.68235" lon="-3.17161">
        <ele>4.94</ele>
        <time>2016-07-25T12:31:34Z</time>
      </trkpt>
      <trkpt lat="47.68234" lon="-3.17164">
        <ele>3.98</ele>
        <time>2016-07-25T12:32:14Z</time>
      </trkpt>
      <trkpt lat="47.68233" lon="-3.17168">
        <ele>5.91</ele>
        <time>2016-07-25T12:32:52Z</time>
      </trkpt>
      <trkpt lat="47.68233" lon="-3.17165">
        <ele>10.71</ele>
        <time>2016-07-25T12:33:31Z</time>
      </trkpt>
      <trkpt lat="47.68235" lon="-3.17163">
        <ele>11.19</ele>
        <time>2016-07-25T12:34:07Z</time>
      </trkpt>
      <trkpt lat="47.68238" lon="-3.17159">
        <ele>10.23</ele>
        <time>2016-07-25T12:34:38Z</time>
      </trkpt>
      <trkpt lat="47.68233" lon="-3.17164">
        <ele>9.27</ele>
        <time>2016-07-25T12:35:12Z</time>
      </trkpt>
      <trkpt lat="47.68235" lon="-3.17164">
        <ele>9.27</ele>
        <time>2016-07-25T12:35:51Z</time>
      </trkpt>
      <trkpt lat="47.68235" lon="-3.17163">
        <ele>8.31</ele>
        <time>2016-07-25T12:36:36Z</time>
      </trkpt>
      <trkpt lat="47.68235" lon="-3.17166">
        <ele>7.35</ele>
        <time>2016-07-25T12:37:20Z</time>
      </trkpt>
      <trkpt lat="47.68235" lon="-3.17167">
        <ele>7.83</ele>
        <time>2016-07-25T12:38:04Z</time>
      </trkpt>
      <trkpt lat="47.68237" lon="-3.17164">
        <ele>7.83</ele>
        <time>2016-07-25T12:38:45Z</time>
      </trkpt>
      <trkpt lat="47.68239" lon="-3.17164">
        <ele>4.94</ele>
        <time>2016-07-25T12:39:19Z</time>
      </trkpt>
      <trkpt lat="47.68238" lon="-3.17165">
        <ele>1.1</ele>
        <time>2016-07-25T12:39:45Z</time>
      </trkpt>
      <trkpt lat="47.68239" lon="-3.17166">
        <ele>0.14</ele>
        <time>2016-07-25T12:40:15Z</time>
      </trkpt>
      <trkpt lat="47.68235" lon="-3.17169">
        <ele>1.1</ele>
        <time>2016-07-25T12:40:41Z</time>
      </trkpt>
      <trkpt lat="47.68235" lon="-3.17177">
        <ele>5.42</ele>
        <time>2016-07-25T12:40:56Z</time>
      </trkpt>
      <trkpt lat="47.68241" lon="-3.17192">
        <ele>5.42</ele>
        <time>2016-07-25T12:41:09Z</time>
      </trkpt>
      <trkpt lat="47.68246" lon="-3.17206">
        <ele>5.42</ele>
        <time>2016-07-25T12:41:21Z</time>
      </trkpt>
      <trkpt lat="47.68251" lon="-3.17215">
        <ele>4.94</ele>
        <time>2016-07-25T12:41:29Z</time>
      </trkpt>
      <trkpt lat="47.68251" lon="-3.17217">
        <ele>4.94</ele>
        <time>2016-07-25T12:41:30Z</time>
      </trkpt>
      <trkpt lat="47.68252" lon="-3.1722">
        <ele>4.94</ele>
        <time>2016-07-25T12:41:32Z</time>
      </trkpt>
      <trkpt lat="47.68252" lon="-3.17235">
        <ele>3.02</ele>
        <time>2016-07-25T12:41:41Z</time>
      </trkpt>
      <trkpt lat="47.68243" lon="-3.17245">
        <ele>-3.71</ele>
        <time>2016-07-25T12:41:54Z</time>
      </trkpt>
      <trkpt lat="47.68237" lon="-3.17256">
        <ele>-8.51</ele>
        <time>2016-07-25T12:42:07Z</time>
      </trkpt>
      <trkpt lat="47.68234" lon="-3.17263">
        <ele>-9.48</ele>
        <time>2016-07-25T12:42:13Z</time>
      </trkpt>
      <trkpt lat="47.68225" lon="-3.17286">
        <ele>-8.51</ele>
        <time>2016-07-25T12:42:30Z</time>
      </trkpt>
      <trkpt lat="47.68215" lon="-3.17295">
        <ele>-6.59</ele>
        <time>2016-07-25T12:42:41Z</time>
      </trkpt>
      <trkpt lat="47.68204" lon="-3.173">
        <ele>-4.67</ele>
        <time>2016-07-25T12:42:51Z</time>
      </trkpt>
      <trkpt lat="47.68197" lon="-3.17304">
        <ele>-2.75</ele>
        <time>2016-07-25T12:42:57Z</time>
      </trkpt>
      <trkpt lat="47.68185" lon="-3.17317">
        <ele>4.94</ele>
        <time>2016-07-25T12:43:10Z</time>
      </trkpt>
      <trkpt lat="47.68182" lon="-3.17321">
        <ele>5.91</ele>
        <time>2016-07-25T12:43:15Z</time>
      </trkpt>
      <trkpt lat="47.68179" lon="-3.17323">
        <ele>5.91</ele>
        <time>2016-07-25T12:43:18Z</time>
      </trkpt>
      <trkpt lat="47.68176" lon="-3.17325">
        <ele>5.91</ele>
        <time>2016-07-25T12:43:21Z</time>
      </trkpt>
      <trkpt lat="47.68172" lon="-3.17328">
        <ele>6.87</ele>
        <time>2016-07-25T12:43:27Z</time>
      </trkpt>
      <trkpt lat="47.6817" lon="-3.1733">
        <ele>7.35</ele>
        <time>2016-07-25T12:43:30Z</time>
      </trkpt>
      <trkpt lat="47.68169" lon="-3.17334">
        <ele>7.35</ele>
        <time>2016-07-25T12:43:33Z</time>
      </trkpt>
      <trkpt lat="47.68164" lon="-3.1734">
        <ele>8.31</ele>
        <time>2016-07-25T12:43:39Z</time>
      </trkpt>
      <trkpt lat="47.68162" lon="-3.17342">
        <ele>8.31</ele>
        <time>2016-07-25T12:43:42Z</time>
      </trkpt>
      <trkpt lat="47.68151" lon="-3.17354">
        <ele>9.27</ele>
        <time>2016-07-25T12:43:55Z</time>
      </trkpt>
      <trkpt lat="47.68141" lon="-3.1736">
        <ele>9.75</ele>
        <time>2016-07-25T12:44:06Z</time>
      </trkpt>
      <trkpt lat="47.68134" lon="-3.17366">
        <ele>10.71</ele>
        <time>2016-07-25T12:44:20Z</time>
      </trkpt>
      <trkpt lat="47.68127" lon="-3.17369">
        <ele>9.75</ele>
        <time>2016-07-25T12:44:34Z</time>
      </trkpt>
      <trkpt lat="47.68125" lon="-3.1737">
        <ele>9.75</ele>
        <time>2016-07-25T12:44:47Z</time>
      </trkpt>
      <trkpt lat="47.68126" lon="-3.17375">
        <ele>10.71</ele>
        <time>2016-07-25T12:44:52Z</time>
      </trkpt>
      <trkpt lat="47.68123" lon="-3.17376">
        <ele>11.67</ele>
        <time>2016-07-25T12:45:05Z</time>
      </trkpt>
      <trkpt lat="47.68124" lon="-3.17376">
        <ele>11.67</ele>
        <time>2016-07-25T12:45:10Z</time>
      </trkpt>
      <trkpt lat="47.68132" lon="-3.17396">
        <ele>12.63</ele>
        <time>2016-07-25T12:45:24Z</time>
      </trkpt>
      <trkpt lat="47.68134" lon="-3.17398">
        <ele>12.63</ele>
        <time>2016-07-25T12:45:26Z</time>
      </trkpt>
      <trkpt lat="47.68136" lon="-3.17406">
        <ele>12.15</ele>
        <time>2016-07-25T12:45:31Z</time>
      </trkpt>
      <trkpt lat="47.68135" lon="-3.17422">
        <ele>9.75</ele>
        <time>2016-07-25T12:45:45Z</time>
      </trkpt>
      <trkpt lat="47.68133" lon="-3.17445">
        <ele>7.83</ele>
        <time>2016-07-25T12:46:00Z</time>
      </trkpt>
      <trkpt lat="47.68133" lon="-3.17466">
        <ele>6.39</ele>
        <time>2016-07-25T12:46:14Z</time>
      </trkpt>
      <trkpt lat="47.68133" lon="-3.17481">
        <ele>5.42</ele>
        <time>2016-07-25T12:46:24Z</time>
      </trkpt>
      <trkpt lat="47.68131" lon="-3.17501">
        <ele>4.46</ele>
        <time>2016-07-25T12:46:37Z</time>
      </trkpt>
      <trkpt lat="47.6813" lon="-3.17524">
        <ele>3.5</ele>
        <time>2016-07-25T12:46:51Z</time>
      </trkpt>
      <trkpt lat="47.6813" lon="-3.17549">
        <ele>1.58</ele>
        <time>2016-07-25T12:47:07Z</time>
      </trkpt>
      <trkpt lat="47.68128" lon="-3.17571">
        <ele>0.62</ele>
        <time>2016-07-25T12:47:21Z</time>
      </trkpt>
      <trkpt lat="47.68127" lon="-3.17582">
        <ele>0.14</ele>
        <time>2016-07-25T12:47:28Z</time>
      </trkpt>
      <trkpt lat="47.68127" lon="-3.17608">
        <ele>-1.79</ele>
        <time>2016-07-25T12:47:46Z</time>
      </trkpt>
      <trkpt lat="47.68126" lon="-3.17616">
        <ele>-1.3</ele>
        <time>2016-07-25T12:47:59Z</time>
      </trkpt>
      <trkpt lat="47.68126" lon="-3.17629">
        <ele>-1.3</ele>
        <time>2016-07-25T12:48:14Z</time>
      </trkpt>
      <trkpt lat="47.68123" lon="-3.17644">
        <ele>-0.34</ele>
        <time>2016-07-25T12:48:35Z</time>
      </trkpt>
      <trkpt lat="47.68123" lon="-3.1766">
        <ele>-0.34</ele>
        <time>2016-07-25T12:48:44Z</time>
      </trkpt>
      <trkpt lat="47.68124" lon="-3.17691">
        <ele>-0.34</ele>
        <time>2016-07-25T12:49:01Z</time>
      </trkpt>
      <trkpt lat="47.68124" lon="-3.17719">
        <ele>1.58</ele>
        <time>2016-07-25T12:49:17Z</time>
      </trkpt>
      <trkpt lat="47.68124" lon="-3.17747">
        <ele>2.54</ele>
        <time>2016-07-25T12:49:33Z</time>
      </trkpt>
      <trkpt lat="47.68127" lon="-3.17769">
        <ele>2.06</ele>
        <time>2016-07-25T12:49:46Z</time>
      </trkpt>
      <trkpt lat="47.68128" lon="-3.17775">
        <ele>1.58</ele>
        <time>2016-07-25T12:49:50Z</time>
      </trkpt>
      <trkpt lat="47.68131" lon="-3.17792">
        <ele>0.14</ele>
        <time>2016-07-25T12:50:00Z</time>
      </trkpt>
      <trkpt lat="47.68133" lon="-3.17801">
        <ele>-0.34</ele>
        <time>2016-07-25T12:50:06Z</time>
      </trkpt>
      <trkpt lat="47.68135" lon="-3.1781">
        <ele>-0.82</ele>
        <time>2016-07-25T12:50:11Z</time>
      </trkpt>
      <trkpt lat="47.68136" lon="-3.17817">
        <ele>-1.3</ele>
        <time>2016-07-25T12:50:16Z</time>
      </trkpt>
      <trkpt lat="47.6814" lon="-3.17831">
        <ele>-0.82</ele>
        <time>2016-07-25T12:50:25Z</time>
      </trkpt>
      <trkpt lat="47.68143" lon="-3.17847">
        <ele>-0.82</ele>
        <time>2016-07-25T12:50:34Z</time>
      </trkpt>
      <trkpt lat="47.68144" lon="-3.17855">
        <ele>-0.34</ele>
        <time>2016-07-25T12:50:39Z</time>
      </trkpt>
      <trkpt lat="47.68146" lon="-3.17863">
        <ele>0.14</ele>
        <time>2016-07-25T12:50:44Z</time>
      </trkpt>
      <trkpt lat="47.68149" lon="-3.17878">
        <ele>0.62</ele>
        <time>2016-07-25T12:50:53Z</time>
      </trkpt>
      <trkpt lat="47.68151" lon="-3.17894">
        <ele>0.62</ele>
        <time>2016-07-25T12:51:02Z</time>
      </trkpt>
      <trkpt lat="47.68153" lon="-3.179">
        <ele>0.62</ele>
        <time>2016-07-25T12:51:05Z</time>
      </trkpt>
      <trkpt lat="47.68154" lon="-3.17901">
        <ele>0.62</ele>
        <time>2016-07-25T12:51:06Z</time>
      </trkpt>
      <trkpt lat="47.68159" lon="-3.17908">
        <ele>-0.34</ele>
        <time>2016-07-25T12:51:14Z</time>
      </trkpt>
      <trkpt lat="47.6816" lon="-3.1791">
        <ele>-0.34</ele>
        <time>2016-07-25T12:51:15Z</time>
      </trkpt>
      <trkpt lat="47.68162" lon="-3.17912">
        <ele>0.14</ele>
        <time>2016-07-25T12:51:18Z</time>
      </trkpt>
      <trkpt lat="47.68163" lon="-3.17914">
        <ele>0.14</ele>
        <time>2016-07-25T12:51:19Z</time>
      </trkpt>
      <trkpt lat="47.6817" lon="-3.17924">
        <ele>0.62</ele>
        <time>2016-07-25T12:51:26Z</time>
      </trkpt>
      <trkpt lat="47.68174" lon="-3.17929">
        <ele>1.1</ele>
        <time>2016-07-25T12:51:31Z</time>
      </trkpt>
      <trkpt lat="47.68178" lon="-3.17933">
        <ele>1.58</ele>
        <time>2016-07-25T12:51:37Z</time>
      </trkpt>
      <trkpt lat="47.68182" lon="-3.17936">
        <ele>0.62</ele>
        <time>2016-07-25T12:51:44Z</time>
      </trkpt>
      <trkpt lat="47.68182" lon="-3.17944">
        <ele>0.14</ele>
        <time>2016-07-25T12:51:48Z</time>
      </trkpt>
      <trkpt lat="47.68181" lon="-3.17953">
        <ele>-0.82</ele>
        <time>2016-07-25T12:51:54Z</time>
      </trkpt>
      <trkpt lat="47.68177" lon="-3.1796">
        <ele>-1.3</ele>
        <time>2016-07-25T12:51:58Z</time>
      </trkpt>
      <trkpt lat="47.68172" lon="-3.17976">
        <ele>-3.23</ele>
        <time>2016-07-25T12:52:09Z</time>
      </trkpt>
      <trkpt lat="47.6817" lon="-3.17992">
        <ele>-3.23</ele>
        <time>2016-07-25T12:52:18Z</time>
      </trkpt>
      <trkpt lat="47.68169" lon="-3.18006">
        <ele>-3.23</ele>
        <time>2016-07-25T12:52:26Z</time>
      </trkpt>
      <trkpt lat="47.68168" lon="-3.18013">
        <ele>-3.71</ele>
        <time>2016-07-25T12:52:30Z</time>
      </trkpt>
      <trkpt lat="47.6817" lon="-3.18031">
        <ele>-1.79</ele>
        <time>2016-07-25T12:52:40Z</time>
      </trkpt>
      <trkpt lat="47.68171" lon="-3.18038">
        <ele>-1.3</ele>
        <time>2016-07-25T12:52:44Z</time>
      </trkpt>
      <trkpt lat="47.68172" lon="-3.18043">
        <ele>-1.3</ele>
        <time>2016-07-25T12:52:48Z</time>
      </trkpt>
      <trkpt lat="47.68175" lon="-3.18056">
        <ele>-0.34</ele>
        <time>2016-07-25T12:52:57Z</time>
      </trkpt>
      <trkpt lat="47.68177" lon="-3.18063">
        <ele>-0.82</ele>
        <time>2016-07-25T12:53:01Z</time>
      </trkpt>
      <trkpt lat="47.68179" lon="-3.1807">
        <ele>-1.3</ele>
        <time>2016-07-25T12:53:05Z</time>
      </trkpt>
      <trkpt lat="47.6818" lon="-3.18076">
        <ele>-1.79</ele>
        <time>2016-07-25T12:53:09Z</time>
      </trkpt>
      <trkpt lat="47.68182" lon="-3.18082">
        <ele>-1.79</ele>
        <time>2016-07-25T12:53:13Z</time>
      </trkpt>
      <trkpt lat="47.68184" lon="-3.18088">
        <ele>-2.27</ele>
        <time>2016-07-25T12:53:17Z</time>
      </trkpt>
      <trkpt lat="47.68183" lon="-3.18095">
        <ele>-1.3</ele>
        <time>2016-07-25T12:53:26Z</time>
      </trkpt>
      <trkpt lat="47.68175" lon="-3.18108">
        <ele>0.14</ele>
        <time>2016-07-25T12:53:36Z</time>
      </trkpt>
      <trkpt lat="47.68167" lon="-3.18118">
        <ele>1.1</ele>
        <time>2016-07-25T12:53:48Z</time>
      </trkpt>
      <trkpt lat="47.68164" lon="-3.18127">
        <ele>1.58</ele>
        <time>2016-07-25T12:53:53Z</time>
      </trkpt>
      <trkpt lat="47.68153" lon="-3.18137">
        <ele>2.06</ele>
        <time>2016-07-25T12:54:04Z</time>
      </trkpt>
      <trkpt lat="47.68151" lon="-3.18144">
        <ele>2.06</ele>
        <time>2016-07-25T12:54:08Z</time>
      </trkpt>
      <trkpt lat="47.68147" lon="-3.18148">
        <ele>2.06</ele>
        <time>2016-07-25T12:54:12Z</time>
      </trkpt>
      <trkpt lat="47.68145" lon="-3.18153">
        <ele>2.06</ele>
        <time>2016-07-25T12:54:16Z</time>
      </trkpt>
      <trkpt lat="47.68144" lon="-3.1816">
        <ele>2.06</ele>
        <time>2016-07-25T12:54:20Z</time>
      </trkpt>
      <trkpt lat="47.68145" lon="-3.18168">
        <ele>1.58</ele>
        <time>2016-07-25T12:54:24Z</time>
      </trkpt>
      <trkpt lat="47.68147" lon="-3.18175">
        <ele>1.58</ele>
        <time>2016-07-25T12:54:29Z</time>
      </trkpt>
      <trkpt lat="47.68146" lon="-3.18187">
        <ele>-0.34</ele>
        <time>2016-07-25T12:54:39Z</time>
      </trkpt>
      <trkpt lat="47.68143" lon="-3.18194">
        <ele>-0.82</ele>
        <time>2016-07-25T12:54:46Z</time>
      </trkpt>
      <trkpt lat="47.68142" lon="-3.18198">
        <ele>-0.82</ele>
        <time>2016-07-25T12:54:49Z</time>
      </trkpt>
      <trkpt lat="47.68141" lon="-3.18216">
        <ele>-1.79</ele>
        <time>2016-07-25T12:55:00Z</time>
      </trkpt>
      <trkpt lat="47.68142" lon="-3.18223">
        <ele>-2.27</ele>
        <time>2016-07-25T12:55:04Z</time>
      </trkpt>
      <trkpt lat="47.68141" lon="-3.18238">
        <ele>-2.27</ele>
        <time>2016-07-25T12:55:13Z</time>
      </trkpt>
      <trkpt lat="47.68145" lon="-3.18251">
        <ele>-2.27</ele>
        <time>2016-07-25T12:55:20Z</time>
      </trkpt>
      <trkpt lat="47.68145" lon="-3.18257">
        <ele>-2.75</ele>
        <time>2016-07-25T12:55:25Z</time>
      </trkpt>
      <trkpt lat="47.68148" lon="-3.18268">
        <ele>-3.23</ele>
        <time>2016-07-25T12:55:33Z</time>
      </trkpt>
      <trkpt lat="47.68149" lon="-3.18276">
        <ele>-3.23</ele>
        <time>2016-07-25T12:55:37Z</time>
      </trkpt>
      <trkpt lat="47.6815" lon="-3.18291">
        <ele>-4.19</ele>
        <time>2016-07-25T12:55:46Z</time>
      </trkpt>
      <trkpt lat="47.68156" lon="-3.18302">
        <ele>-4.67</ele>
        <time>2016-07-25T12:55:54Z</time>
      </trkpt>
      <trkpt lat="47.68158" lon="-3.18308">
        <ele>-4.67</ele>
        <time>2016-07-25T12:55:58Z</time>
      </trkpt>
      <trkpt lat="47.68159" lon="-3.18315">
        <ele>-4.19</ele>
        <time>2016-07-25T12:56:02Z</time>
      </trkpt>
      <trkpt lat="47.68162" lon="-3.18321">
        <ele>-3.71</ele>
        <time>2016-07-25T12:56:06Z</time>
      </trkpt>
      <trkpt lat="47.68165" lon="-3.18327">
        <ele>-3.71</ele>
        <time>2016-07-25T12:56:12Z</time>
      </trkpt>
      <trkpt lat="47.68166" lon="-3.18329">
        <ele>-3.71</ele>
        <time>2016-07-25T12:56:14Z</time>
      </trkpt>
      <trkpt lat="47.6817" lon="-3.18333">
        <ele>-2.75</ele>
        <time>2016-07-25T12:56:25Z</time>
      </trkpt>
      <trkpt lat="47.68173" lon="-3.18336">
        <ele>-3.23</ele>
        <time>2016-07-25T12:56:28Z</time>
      </trkpt>
      <trkpt lat="47.68179" lon="-3.18343">
        <ele>-2.75</ele>
        <time>2016-07-25T12:56:35Z</time>
      </trkpt>
      <trkpt lat="47.68188" lon="-3.18354">
        <ele>-1.3</ele>
        <time>2016-07-25T12:56:46Z</time>
      </trkpt>
      <trkpt lat="47.68193" lon="-3.18356">
        <ele>-1.3</ele>
        <time>2016-07-25T12:56:49Z</time>
      </trkpt>
      <trkpt lat="47.68195" lon="-3.18357">
        <ele>-1.3</ele>
        <time>2016-07-25T12:56:51Z</time>
      </trkpt>
      <trkpt lat="47.68202" lon="-3.18368">
        <ele>-0.34</ele>
        <time>2016-07-25T12:57:00Z</time>
      </trkpt>
      <trkpt lat="47.68211" lon="-3.18379">
        <ele>0.14</ele>
        <time>2016-07-25T12:57:10Z</time>
      </trkpt>
      <trkpt lat="47.68215" lon="-3.18383">
        <ele>-0.34</ele>
        <time>2016-07-25T12:57:14Z</time>
      </trkpt>
      <trkpt lat="47.6822" lon="-3.18388">
        <ele>0.14</ele>
        <time>2016-07-25T12:57:20Z</time>
      </trkpt>
      <trkpt lat="47.68224" lon="-3.18392">
        <ele>0.14</ele>
        <time>2016-07-25T12:57:26Z</time>
      </trkpt>
      <trkpt lat="47.6823" lon="-3.18382">
        <ele>0.62</ele>
        <time>2016-07-25T12:57:33Z</time>
      </trkpt>
      <trkpt lat="47.68236" lon="-3.18377">
        <ele>0.62</ele>
        <time>2016-07-25T12:57:39Z</time>
      </trkpt>
      <trkpt lat="47.68239" lon="-3.18374">
        <ele>0.62</ele>
        <time>2016-07-25T12:57:43Z</time>
      </trkpt>
      <trkpt lat="47.68243" lon="-3.1837">
        <ele>0.14</ele>
        <time>2016-07-25T12:57:48Z</time>
      </trkpt>
      <trkpt lat="47.68247" lon="-3.18366">
        <ele>0.14</ele>
        <time>2016-07-25T12:57:52Z</time>
      </trkpt>
      <trkpt lat="47.68258" lon="-3.18362">
        <ele>-1.79</ele>
        <time>2016-07-25T12:58:01Z</time>
      </trkpt>
      <trkpt lat="47.68266" lon="-3.18364">
        <ele>-2.75</ele>
        <time>2016-07-25T12:58:06Z</time>
      </trkpt>
      <trkpt lat="47.6827" lon="-3.18366">
        <ele>-2.75</ele>
        <time>2016-07-25T12:58:10Z</time>
      </trkpt>
      <trkpt lat="47.68282" lon="-3.18362">
        <ele>-3.71</ele>
        <time>2016-07-25T12:58:21Z</time>
      </trkpt>
      <trkpt lat="47.68283" lon="-3.1836">
        <ele>-3.71</ele>
        <time>2016-07-25T12:58:23Z</time>
      </trkpt>
      <trkpt lat="47.6829" lon="-3.18357">
        <ele>-3.71</ele>
        <time>2016-07-25T12:58:28Z</time>
      </trkpt>
      <trkpt lat="47.68294" lon="-3.18355">
        <ele>-3.23</ele>
        <time>2016-07-25T12:58:32Z</time>
      </trkpt>
      <trkpt lat="47.68297" lon="-3.18357">
        <ele>-2.75</ele>
        <time>2016-07-25T12:58:35Z</time>
      </trkpt>
      <trkpt lat="47.68302" lon="-3.1836">
        <ele>-2.27</ele>
        <time>2016-07-25T12:58:40Z</time>
      </trkpt>
      <trkpt lat="47.68305" lon="-3.18362">
        <ele>-1.79</ele>
        <time>2016-07-25T12:58:43Z</time>
      </trkpt>
      <trkpt lat="47.68311" lon="-3.18364">
        <ele>-1.79</ele>
        <time>2016-07-25T12:58:49Z</time>
      </trkpt>
      <trkpt lat="47.68315" lon="-3.18362">
        <ele>-1.3</ele>
        <time>2016-07-25T12:58:52Z</time>
      </trkpt>
      <trkpt lat="47.68318" lon="-3.18353">
        <ele>3.02</ele>
        <time>2016-07-25T12:59:07Z</time>
      </trkpt>
    </trkseg>
  </trk>
</gpx>